[[{"header":{"parameterUnit":"m.s-1","parameterCategory":1,"la1":30.6,"la2":29.2853,"lo1":-89.7004,"lo2":-87.6739,"dy":0.0162,"dx":0.0183,"nx":112,"ny":82,"refTime":"2026-04-14T12:00:00:Z","depth":0,"parameterNumber":2,"parameterNumberName":"U-component_of_WINDS"},"data":[0.0,0.0,0.0,0.0,0.0,0.0,0.0,0.0,0.0,0.0,0.0,0.0,0.0,0.0,0.0,0.0,0.0,0.0,0.0,0.0,0.0,0.0,0.0,0.0,0.0,0.0,0.0,0.0,0.0,0.0,0.0,0.0,0.0,0.0,0.0,0.0,0.0,0.0,0.0,0.0,0.0,0.0,0.0,0.0,0.0,0.0,0.0,0.0,0.0,0.0,0.0,0.0,0.0,0.0,0.0,0.0,0.0,0.0,0.0,0.0,0.0,0.0,0.0,0.0,0.0,0.0,0.0,0.0,0.0,0.0,0.0,0.0,0.0,0.0,0.0,0.0,0.0,0.0,0.0,0.0,0.0,0.0,0.0,0.0,0.0,0.0,0.0,0.0,0.0,0.0,-1.8757,-2.0652,-2.226,-2.3045,-2.2673,-2.1634,-2.0001,-1.7602,0.0,0.0,0.0,0.0,0.0,0.0,0.0,0.0,0.0,0.0,0.0,0.0,0.0,0.0,0.0,0.0,0.0,0.0,0.0,0.0,0.0,0.0,0.0,0.0,0.0,0.0,0.0,0.0,0.0,0.0,0.0,0.0,0.0,0.0,0.0,0.0,0.0,0.0,0.0,0.0,0.0,0.0,0.0,0.0,0.0,0.0,0.0,0.0,0.0,0.0,0.0,0.0,0.0,0.0,0.0,0.0,0.0,0.0,0.0,0.0,0.0,0.0,0.0,0.0,0.0,0.0,0.0,0.0,0.0,0.0,0.0,0.0,0.0,0.0,0.0,0.0,0.0,0.0,0.0,0.0,0.0,0.0,0.0,0.0,0.0,0.0,0.0,0.0,0.0,0.0,0.0,0.0,0.0,0.0,0.0,0.0,0.0,0.0,0.0,0.0,0.0,0.0,0.0,0.0,-1.894,-2.2036,-2.287,-2.2965,-2.2415,-2.1034,-1.9478,-1.7839,0.0,0.0,0.0,0.0,0.0,0.0,0.0,0.0,0.0,0.0,0.0,0.0,0.0,0.0,0.0,0.0,0.0,0.0,0.0,0.0,0.0,0.0,0.0,0.0,0.0,0.0,0.0,0.0,0.0,0.0,0.0,0.0,0.0,0.0,0.0,0.0,0.0,0.0,0.0,0.0,0.0,0.0,0.0,0.0,0.0,0.0,0.0,0.0,0.0,0.0,0.0,0.0,0.0,0.0,0.0,0.0,0.0,0.0,0.0,0.0,0.0,0.0,0.0,0.0,0.0,0.0,0.0,0.0,0.0,0.0,0.0,0.0,0.0,0.0,0.0,0.0,0.0,0.0,0.0,0.0,0.0,0.0,0.0,0.0,0.0,0.0,0.0,0.0,0.0,0.0,0.0,0.0,0.0,0.0,0.0,0.0,0.0,0.0,0.0,0.0,0.0,0.0,0.0,-1.8181,-1.9943,-2.2446,-2.2835,-2.2768,-2.2352,-2.0893,-1.931,-1.7691,-1.5273,0.0,0.0,0.0,0.0,0.0,0.0,0.0,0.0,0.0,0.0,0.0,0.0,0.0,0.0,0.0,0.0,0.0,0.0,0.0,0.0,0.0,0.0,0.0,0.0,0.0,0.0,0.0,0.0,0.0,0.0,0.0,0.0,0.0,0.0,0.0,0.0,0.0,0.0,0.0,0.0,0.0,0.0,0.0,0.0,0.0,0.0,0.0,0.0,0.0,0.0,0.0,0.0,0.0,0.0,0.0,0.0,0.0,0.0,0.0,0.0,0.0,0.0,0.0,0.0,0.0,0.0,0.0,0.0,0.0,0.0,0.0,0.0,0.0,0.0,0.0,0.0,0.0,0.0,0.0,0.0,0.0,0.0,0.0,0.0,0.0,0.0,0.0,0.0,0.0,0.0,0.0,0.0,0.0,0.0,0.0,0.0,0.0,0.0,0.0,0.0,0.0,0.0,-2.0212,-2.1079,-2.2457,-2.2656,-2.2586,-2.2307,-2.0724,-1.9096,-1.7587,-1.4766,0.0,0.0,0.0,0.0,0.0,0.0,0.0,0.0,0.0,0.0,0.0,0.0,0.0,0.0,0.0,0.0,0.0,0.0,0.0,0.0,0.0,0.0,0.0,0.0,0.0,0.0,0.0,0.0,0.0,0.0,0.0,0.0,0.0,0.0,0.0,0.0,0.0,0.0,0.0,0.0,0.0,0.0,0.0,0.0,0.0,0.0,0.0,0.0,0.0,0.0,0.0,0.0,0.0,0.0,0.0,0.0,0.0,0.0,0.0,0.0,0.0,0.0,0.0,0.0,0.0,0.0,0.0,0.0,0.0,0.0,0.0,0.0,0.0,0.0,0.0,0.0,0.0,0.0,0.0,0.0,0.0,0.0,0.0,0.0,0.0,0.0,0.0,0.0,0.0,0.0,0.0,0.0,0.0,0.0,0.0,0.0,0.0,0.0,0.0,0.0,0.0,0.0,-2.0484,-2.1983,-2.2289,-2.255,-2.2586,-2.2307,-2.0264,-1.8628,-1.7811,-1.4385,0.0,0.0,0.0,0.0,0.0,0.0,0.0,0.0,0.0,0.0,0.0,0.0,0.0,0.0,0.0,0.0,0.0,0.0,0.0,0.0,0.0,0.0,0.0,0.0,0.0,0.0,0.0,0.0,0.0,0.0,0.0,0.0,0.0,0.0,0.0,0.0,0.0,0.0,0.0,0.0,0.0,0.0,0.0,0.0,0.0,0.0,0.0,0.0,0.0,0.0,0.0,0.0,0.0,0.0,0.0,0.0,0.0,0.0,0.0,0.0,0.0,0.0,0.0,0.0,0.0,0.0,0.0,0.0,0.0,0.0,0.0,0.0,0.0,0.0,0.0,0.0,0.0,0.0,0.0,0.0,0.0,0.0,0.0,0.0,0.0,0.0,0.0,0.0,0.0,0.0,0.0,0.0,0.0,0.0,0.0,0.0,0.0,0.0,0.0,0.0,0.0,0.0,-1.9896,-2.1298,-2.2203,-2.2402,-2.2398,-2.231,-2.0435,-1.8601,-1.7032,0.0,0.0,0.0,0.0,0.0,0.0,0.0,0.0,0.0,0.0,0.0,0.0,0.0,0.0,0.0,0.0,0.0,0.0,0.0,0.0,0.0,0.0,0.0,0.0,0.0,0.0,0.0,0.0,0.0,0.0,0.0,0.0,0.0,0.0,0.0,0.0,0.0,0.0,0.0,0.0,0.0,0.0,0.0,0.0,0.0,0.0,0.0,0.0,0.0,0.0,0.0,0.0,0.0,0.0,0.0,0.0,0.0,0.0,0.0,0.0,0.0,0.0,0.0,0.0,0.0,0.0,0.0,0.0,0.0,0.0,0.0,0.0,0.0,0.0,0.0,0.0,0.0,0.0,0.0,0.0,0.0,0.0,0.0,0.0,0.0,0.0,0.0,0.0,0.0,0.0,0.0,0.0,0.0,0.0,0.0,0.0,0.0,0.0,0.0,0.0,0.0,0.0,-1.7979,-1.9849,-2.1288,-2.2192,-2.2296,-2.2296,-2.2296,-2.0361,-1.8373,-1.6542,0.0,0.0,0.0,0.0,0.0,0.0,0.0,0.0,0.0,0.0,0.0,0.0,0.0,0.0,0.0,0.0,0.0,0.0,0.0,0.0,0.0,0.0,0.0,0.0,0.0,0.0,0.0,0.0,0.0,0.0,0.0,0.0,0.0,0.0,0.0,0.0,0.0,0.0,0.0,0.0,0.0,0.0,0.0,0.0,0.0,0.0,0.0,0.0,0.0,0.0,0.0,0.0,0.0,0.0,0.0,0.0,0.0,0.0,0.0,0.0,0.0,0.0,0.0,0.0,0.0,0.0,0.0,0.0,0.0,0.0,0.0,0.0,0.0,0.0,0.0,0.0,0.0,0.0,0.0,0.0,0.0,0.0,0.0,0.0,0.0,0.0,0.0,0.0,0.0,0.0,0.0,0.0,0.0,0.0,0.0,0.0,0.0,0.0,0.0,0.0,0.0,0.0,-1.7893,-2.056,-2.2296,-2.2296,-2.2296,-2.2296,-2.2296,-1.9914,-1.7864,0.0,0.0,0.0,0.0,0.0,0.0,0.0,0.0,0.0,0.0,0.0,0.0,0.0,0.0,0.0,0.0,0.0,0.0,0.0,0.0,0.0,0.0,0.0,0.0,0.0,0.0,0.0,0.0,0.0,0.0,0.0,0.0,0.0,0.0,0.0,0.0,0.0,0.0,0.0,0.0,0.0,0.0,0.0,0.0,0.0,0.0,0.0,0.0,0.0,0.0,0.0,0.0,0.0,0.0,0.0,0.0,0.0,0.0,0.0,0.0,0.0,0.0,0.0,0.0,0.0,0.0,0.0,0.0,0.0,0.0,0.0,0.0,0.0,0.0,0.0,0.0,0.0,0.0,0.0,0.0,0.0,0.0,0.0,0.0,0.0,0.0,0.0,0.0,0.0,0.0,0.0,0.0,0.0,0.0,0.0,0.0,0.0,0.0,0.0,0.0,0.0,0.0,0.0,-1.7883,-2.056,-2.2296,-2.2296,-2.2296,-2.2296,-2.2296,-2.0169,-1.788,-1.5648,0.0,0.0,0.0,0.0,0.0,0.0,0.0,0.0,0.0,0.0,0.0,0.0,0.0,0.0,0.0,0.0,0.0,0.0,0.0,0.0,0.0,0.0,0.0,0.0,0.0,0.0,0.0,0.0,0.0,0.0,0.0,0.0,0.0,0.0,0.0,0.0,0.0,0.0,0.0,0.0,0.0,0.0,0.0,0.0,0.0,0.0,0.0,0.0,0.0,0.0,0.0,0.0,0.0,0.0,0.0,0.0,0.0,0.0,0.0,0.0,0.0,0.0,0.0,0.0,0.0,0.0,0.0,0.0,0.0,0.0,0.0,0.0,0.0,0.0,0.0,0.0,0.0,0.0,0.0,0.0,0.0,0.0,0.0,0.0,0.0,0.0,0.0,0.0,0.0,0.0,0.0,0.0,0.0,0.0,0.0,0.0,0.0,0.0,0.0,0.0,0.0,0.0,-1.7766,-2.051,-2.2296,-2.2296,-2.2296,-2.2296,-2.2296,-2.0378,-1.8137,-1.566,0.0,0.0,0.0,0.0,0.0,0.0,0.0,0.0,0.0,0.0,0.0,0.0,0.0,0.0,0.0,0.0,0.0,0.0,0.0,0.0,0.0,0.0,0.0,0.0,0.0,0.0,0.0,0.0,0.0,0.0,0.0,0.0,0.0,0.0,0.0,0.0,0.0,0.0,0.0,0.0,0.0,0.0,0.0,0.0,0.0,0.0,0.0,0.0,0.0,0.0,0.0,0.0,0.0,0.0,0.0,0.0,0.0,0.0,0.0,0.0,0.0,0.0,0.0,0.0,0.0,0.0,0.0,0.0,0.0,0.0,0.0,0.0,0.0,0.0,0.0,0.0,0.0,0.0,0.0,0.0,0.0,0.0,0.0,0.0,0.0,0.0,0.0,0.0,0.0,0.0,0.0,0.0,0.0,0.0,0.0,0.0,0.0,0.0,0.0,0.0,0.0,0.0,-1.7614,-2.042,-2.2296,-2.2296,-2.2296,-2.2296,-2.2296,-2.0591,-1.8564,-1.6373,0.0,0.0,0.0,0.0,0.0,0.0,0.0,0.0,0.0,0.0,0.0,0.0,0.0,0.0,0.0,0.0,0.0,0.0,0.0,0.0,0.0,0.0,0.0,0.0,0.0,0.0,0.0,0.0,0.0,0.0,0.0,0.0,0.0,0.0,0.0,0.0,0.0,0.0,0.0,0.0,0.0,0.0,0.0,0.0,0.0,0.0,0.0,0.0,0.0,0.0,0.0,0.0,0.0,0.0,0.0,0.0,0.0,0.0,0.0,0.0,-2.1481,-2.0042,0.0,0.0,0.0,0.0,0.0,0.0,0.0,0.0,0.0,0.0,0.0,0.0,0.0,0.0,0.0,0.0,0.0,0.0,0.0,0.0,0.0,0.0,0.0,0.0,0.0,0.0,0.0,0.0,0.0,0.0,0.0,0.0,0.0,0.0,0.0,0.0,0.0,0.0,0.0,0.0,-1.7614,-2.042,-2.2296,-2.2296,-2.2296,-2.2296,-2.2296,-2.0591,-1.8856,-1.7372,-1.4647,0.0,0.0,0.0,0.0,0.0,0.0,0.0,0.0,0.0,0.0,0.0,0.0,0.0,0.0,0.0,0.0,0.0,0.0,0.0,0.0,0.0,0.0,0.0,0.0,0.0,0.0,0.0,0.0,0.0,0.0,0.0,0.0,0.0,0.0,0.0,0.0,0.0,0.0,0.0,0.0,0.0,0.0,0.0,0.0,0.0,0.0,0.0,0.0,0.0,0.0,0.0,0.0,0.0,0.0,0.0,0.0,0.0,0.0,0.0,-2.4763,-2.2954,0.0,0.0,0.0,0.0,0.0,0.0,0.0,0.0,0.0,0.0,0.0,0.0,0.0,0.0,0.0,0.0,0.0,0.0,0.0,0.0,0.0,0.0,0.0,0.0,0.0,0.0,0.0,0.0,0.0,0.0,0.0,0.0,0.0,0.0,0.0,0.0,0.0,0.0,0.0,0.0,-1.8149,-2.064,-2.2296,-2.2296,-2.2296,-2.2296,-2.2296,-2.1079,-1.9584,-1.7897,-1.5745,0.0,0.0,0.0,0.0,0.0,0.0,0.0,0.0,0.0,0.0,0.0,0.0,0.0,0.0,0.0,0.0,0.0,0.0,0.0,0.0,0.0,0.0,0.0,0.0,0.0,0.0,0.0,0.0,0.0,0.0,0.0,0.0,0.0,0.0,0.0,0.0,0.0,0.0,0.0,0.0,0.0,0.0,0.0,0.0,0.0,0.0,0.0,0.0,0.0,0.0,0.0,0.0,0.0,-3.0934,-3.1393,-3.1952,-3.1343,-3.1393,-3.1782,-2.8704,-2.6928,-2.6168,-2.4899,0.0,0.0,0.0,0.0,0.0,0.0,0.0,0.0,0.0,0.0,0.0,0.0,0.0,0.0,0.0,0.0,0.0,0.0,0.0,0.0,0.0,0.0,-2.1783,-2.1783,-2.1783,-2.1089,-1.8601,0.0,0.0,0.0,0.0,0.0,0.0,0.0,0.0,0.0,0.0,0.0,-1.8894,-2.0974,-2.2296,-2.2296,-2.2296,-2.2296,-2.2296,-2.1617,-2.0381,-1.8473,-1.6971,-1.5003,0.0,0.0,0.0,0.0,0.0,0.0,0.0,0.0,0.0,0.0,0.0,0.0,0.0,0.0,0.0,0.0,0.0,0.0,0.0,0.0,0.0,0.0,0.0,0.0,0.0,0.0,0.0,0.0,0.0,0.0,0.0,0.0,-2.0818,-2.1021,0.0,0.0,0.0,0.0,0.0,0.0,0.0,0.0,0.0,0.0,0.0,0.0,0.0,-2.9567,-2.9651,-3.1664,-3.2743,-3.2983,-3.4247,-3.4923,-3.5008,-3.4906,-3.4923,-3.4991,-3.4501,0.0,-2.8854,-2.8442,0.0,0.0,0.0,0.0,0.0,0.0,0.0,0.0,0.0,0.0,0.0,0.0,0.0,0.0,0.0,0.0,0.0,0.0,0.0,0.0,0.0,0.0,-2.4051,-2.4051,-2.4051,-2.3949,-2.356,-1.9887,-1.6614,-1.6326,-1.5223,-1.4267,0.0,0.0,0.0,0.0,0.0,0.0,-1.9664,-2.1282,-2.2296,-2.2296,-2.2296,-2.2296,-2.2296,-2.1617,-2.0779,-1.9811,-1.8135,-1.6354,-1.4485,-1.2842,0.0,0.0,0.0,0.0,0.0,0.0,0.0,0.0,0.0,0.0,0.0,0.0,0.0,0.0,0.0,0.0,0.0,0.0,0.0,0.0,0.0,0.0,0.0,0.0,0.0,0.0,0.0,0.0,0.0,-2.1989,-2.3526,-2.3103,-2.3797,-2.3814,0.0,0.0,0.0,0.0,0.0,0.0,0.0,0.0,0.0,-3.09,-3.2002,-3.2983,-3.3846,-3.4827,-3.5723,-3.6552,-3.7212,-3.7736,-3.8108,-3.7702,-3.7736,-3.8075,-3.7263,-3.6083,-3.4583,-3.1942,-2.993,-2.8401,0.0,0.0,0.0,0.0,-2.6336,-2.6065,-2.7334,-2.7232,-2.6471,-2.6031,0.0,0.0,0.0,0.0,0.0,0.0,0.0,-2.3238,-2.4085,-2.5321,-2.6251,-2.5828,-2.5743,-2.5625,-2.5203,-2.3001,-2.0716,-1.9464,-1.8335,-1.7062,-1.5399,-1.5544,0.0,0.0,0.0,-1.9439,-2.0534,-2.1634,-2.2296,-2.2296,-2.2296,-2.2296,-2.2296,-2.2006,-2.1383,-2.0391,-1.922,-1.7802,-1.6052,-1.4332,-1.2748,0.0,0.0,0.0,0.0,0.0,0.0,0.0,0.0,0.0,0.0,0.0,0.0,0.0,0.0,0.0,0.0,0.0,0.0,0.0,0.0,0.0,0.0,0.0,0.0,0.0,0.0,0.0,0.0,-2.4306,-2.5896,-2.5151,-2.6725,-2.6979,0.0,0.0,0.0,0.0,0.0,0.0,-3.0866,-3.1816,-3.2916,-3.4235,-3.5165,-3.6197,-3.7354,-3.7557,-3.82,-3.9276,-3.9276,-3.9571,-4.0079,-3.9537,-3.9588,-4.0045,-3.8937,-3.8768,-3.8971,-3.5069,-3.3021,-3.2188,-3.07,-2.9634,-2.9058,-3.004,-2.9768,-2.9176,-3.0886,-3.077,-2.9788,-2.9362,-2.8111,-2.6522,-2.522,0.0,0.0,0.0,0.0,-2.5608,-2.6691,-2.7537,-2.7959,-2.7418,-2.7131,-2.6826,-2.6269,-2.5439,-2.4237,-2.2392,-2.1262,-1.9896,-1.7693,-1.7901,0.0,-1.789,-1.9249,-2.0589,-2.138,-2.1955,-2.2296,-2.2296,-2.2296,-2.2296,-2.2296,-2.2194,-2.1685,-2.0648,-1.9808,-1.8651,-1.7066,-1.543,-1.3872,-1.2453,0.0,0.0,0.0,0.0,0.0,0.0,0.0,0.0,0.0,0.0,0.0,0.0,0.0,0.0,0.0,0.0,0.0,0.0,0.0,0.0,0.0,0.0,0.0,0.0,0.0,0.0,0.0,0.0,0.0,-2.6674,-2.9178,0.0,0.0,0.0,0.0,-2.9869,-3.1241,-3.2408,-3.3203,-3.4585,-3.5774,-3.6609,-3.8007,-3.8802,-3.8886,-3.9588,-3.9977,-4.0045,-4.0045,-4.0062,-4.0096,-4.0062,-4.0062,-4.0096,-4.0028,-4.0011,-3.9859,-3.754,-3.6096,-3.5228,-3.3761,-3.273,-3.2005,-3.136,-3.1549,-3.209,-3.2209,-3.2192,-3.2242,-3.2899,-3.1664,-2.9736,-2.8959,-2.7673,0.0,0.0,-2.7097,-2.7655,-2.7722,-2.8349,-2.8925,-2.8891,-2.8298,-2.7739,-2.7705,-2.6556,-2.5304,-2.4491,-2.3173,-2.2144,-2.1992,0.0,-2.0149,-2.0869,-2.1072,-2.141,-2.2158,-2.2279,-2.2296,-2.2296,-2.2296,-2.2296,-2.2296,-2.1899,-2.1315,-2.0543,-1.951,-1.843,-1.7336,-1.5971,-1.447,-1.2821,-1.1431,0.0,0.0,0.0,0.0,0.0,0.0,0.0,0.0,0.0,0.0,0.0,0.0,0.0,0.0,0.0,0.0,0.0,0.0,0.0,0.0,0.0,0.0,0.0,0.0,0.0,0.0,0.0,0.0,-3.0347,-3.251,0.0,-3.1559,-3.2324,-3.3136,-3.3605,-3.4607,-3.5729,-3.6941,-3.7499,-3.8142,-3.8911,-3.9436,-3.9723,-3.9723,-3.9977,-4.0096,-4.0096,-4.0096,-4.0096,-4.0096,-4.0096,-4.0096,-4.0096,-4.0096,-4.0096,-4.0045,-3.9249,-3.8464,-3.7702,-3.6705,-3.5842,-3.5221,-3.5436,-3.5064,-3.4506,-3.5018,-3.4561,-3.3613,-3.2936,-3.2175,-3.1396,-3.0632,-2.9702,-2.8991,-2.9448,-2.9448,-2.9379,-2.9871,-3.0192,-3.0313,-2.982,-2.9499,-2.9161,-2.867,-2.7757,-2.6945,-2.6657,-2.505,-2.341,-2.2448,-2.2229,-2.1955,-2.1292,-2.16,-2.2006,-2.2262,-2.2296,-2.2296,-2.2296,-2.2032,-2.1838,-2.1838,-2.1461,-2.0921,-2.0224,-1.9365,-1.8532,-1.7719,-1.6559,-1.5253,-1.379,-1.2659,-1.1247,0.0,0.0,0.0,0.0,0.0,0.0,0.0,0.0,0.0,0.0,0.0,0.0,0.0,0.0,0.0,0.0,0.0,0.0,0.0,0.0,0.0,0.0,0.0,0.0,0.0,-3.0683,-3.3038,-3.3038,-3.5233,-3.6056,-3.4298,-3.5284,-3.6214,-3.6721,-3.7466,-3.8352,-3.9334,-3.9385,-3.9605,-4.0079,-4.0096,-4.0096,-4.0096,-4.0096,-4.0096,-4.0096,-4.0096,-4.0096,-4.0096,-4.0096,-4.0096,-4.0096,-4.0096,-3.9952,-3.9731,-3.9995,-3.964,-3.8916,-3.8451,-3.7973,-3.7574,-3.7821,-3.7263,-3.6434,-3.6711,-3.5981,-3.465,-3.3175,-3.2689,-3.2571,-3.183,-3.1419,-3.1326,-3.1799,-3.141,-3.0954,-3.1427,-3.1396,-3.1072,-3.0598,-3.0294,-2.9973,-2.9465,-2.8534,-2.7807,-2.7807,-2.6218,-2.456,-2.3579,-2.3613,-2.3357,-2.2138,-2.2361,-2.2581,-2.233,-2.2149,-2.2061,-2.2061,-2.1658,-2.1399,-2.1399,-2.083,-2.0369,-2.0115,-1.887,-1.8057,-1.7838,-1.6521,-1.5261,-1.4147,-1.3038,-1.1831,-1.0533,0.0,0.0,0.0,0.0,0.0,0.0,0.0,0.0,0.0,0.0,0.0,0.0,0.0,0.0,0.0,0.0,0.0,0.0,0.0,0.0,0.0,0.0,0.0,-3.1258,-3.3186,-3.4607,-3.4624,-3.7229,-3.8159,-3.5955,-3.7736,-3.9022,-3.9022,-3.9706,-4.0096,-4.0096,-4.0096,-4.0113,-4.013,-4.013,-4.013,-4.013,-4.013,-4.013,-4.0096,-4.0096,-4.0096,-4.0096,-4.0096,-4.007,-4.007,-4.007,-3.961,-3.8935,-3.9705,-3.9584,-3.8869,-3.8984,-3.9022,-3.8937,-3.8203,-3.7908,-3.7749,-3.7036,-3.6298,-3.5424,-3.4025,-3.3524,-3.3353,-3.2679,-3.2907,-3.3419,-3.3419,-3.2882,-3.2293,-3.2293,-3.1752,-3.119,-3.1171,-3.063,-3.0104,-3.0104,-2.8869,-2.7788,-2.7805,-2.6607,-2.5577,-2.5576,-2.4968,-2.4225,-2.3498,-2.338,0.0,-2.2386,-2.1886,-2.1582,-2.1582,-2.1213,-2.0975,-2.0975,-2.0002,-1.9632,-2.0172,-1.8015,-1.701,-1.7654,-1.5845,-1.4526,-1.3842,-1.2512,-1.1835,-1.1835,0.0,0.0,0.0,0.0,0.0,0.0,0.0,0.0,0.0,0.0,0.0,0.0,0.0,0.0,0.0,0.0,0.0,0.0,0.0,0.0,0.0,-3.1529,-3.3406,-3.2865,-3.5199,-3.7161,-3.7686,-3.8979,-3.9554,-3.8903,-3.9436,-3.9808,-3.9808,-3.9994,-4.0096,-4.0096,-4.0096,-4.0367,-4.0882,-4.0899,-4.0899,-4.0899,-4.0899,-4.0629,-4.0096,-4.0096,-4.0096,-4.0096,-4.0096,-3.9782,-3.9236,-3.9236,-3.8816,-3.8121,-3.8346,-3.829,-3.8218,-3.9341,-3.9808,-3.9699,-3.892,-3.7965,-3.6993,-3.681,-3.5947,-3.494,-3.5054,-3.4407,-3.3614,-3.3906,-3.3746,-3.3561,-3.4054,-3.3292,-3.2293,-3.2293,-3.1752,-3.1075,-3.0658,-3.0389,-3.0257,-3.0257,-2.8779,-2.7571,-2.8011,-2.658,-2.5252,-2.5059,-2.4571,-2.3951,-2.3219,-2.2702,-2.2313,-2.2102,-2.1536,-2.1166,-2.1166,-2.0764,-2.05,-2.05,-1.9953,-1.9284,-1.8466,-1.7793,-1.7294,-1.6995,-1.6039,-1.5215,-1.4528,-1.3208,-1.2519,0.0,0.0,0.0,0.0,0.0,0.0,0.0,0.0,0.0,0.0,0.0,0.0,0.0,0.0,0.0,0.0,0.0,0.0,0.0,0.0,0.0,0.0,-3.4343,-3.5799,-3.5723,-3.7494,-3.9089,-3.9834,-4.029,-4.0544,-4.0544,-4.0832,-4.1027,-4.1027,-4.068,-4.0478,-4.0478,-4.0165,-4.0337,-4.1086,-4.0785,-4.095,-4.166,-4.095,-4.0431,-4.0105,-4.0036,-3.9711,-3.9146,-3.9463,-3.9183,-3.8442,-3.8442,-3.8003,-3.7338,-3.7661,-3.7602,-3.7411,0.0,0.0,0.0,0.0,-3.7903,-3.713,-3.6821,-3.5814,-3.4675,-3.4744,-3.4053,-3.3235,-3.3633,-3.3662,-3.3632,-3.4013,-3.3297,-3.2315,-3.2045,-3.1427,-3.0709,-3.0081,-2.9913,-2.9913,-2.9913,-2.8543,-2.7398,-2.7745,-2.6222,0.0,-2.466,-2.4593,-2.4313,-2.3572,-2.3127,-2.2666,-2.2093,-2.1495,-2.1014,-2.0746,-2.0313,-2.0052,-2.0052,-1.9579,0.0,0.0,0.0,-1.7295,-1.6368,-1.5994,0.0,0.0,0.0,0.0,0.0,0.0,0.0,0.0,-1.2483,-1.2198,0.0,0.0,0.0,0.0,0.0,0.0,0.0,0.0,0.0,0.0,0.0,0.0,0.0,0.0,0.0,0.0,-3.7028,-3.828,-3.892,-3.9634,-4.0279,-4.0867,-4.103,-4.109,-4.1175,-4.1765,-4.2162,-4.2162,-4.1354,-4.0865,-4.0865,-4.0204,0.0,0.0,0.0,-4.0661,-4.2118,-4.0661,-3.9978,-4.0059,-3.986,-3.9117,-3.7934,-3.8502,-3.8358,-3.7661,-3.7661,-3.7219,-3.6523,-3.7249,-3.713,-3.6554,-3.7456,-3.7748,-3.7661,-3.7661,-3.7602,-3.7465,-3.6886,0.0,0.0,-3.3847,-3.3153,-3.2585,-3.259,-3.3029,-3.3495,-3.3582,-3.3077,-3.2348,-3.1662,-3.0934,-3.0201,-2.9476,-2.9293,-2.9293,-2.9293,-2.8198,-2.7222,-2.7227,-2.5696,-2.44,-2.4323,-2.4697,-2.4802,-2.4141,-2.3983,-2.346,-2.2128,-2.1541,-2.0967,-2.0306,-1.9909,0.0,-1.9708,-1.9151,-1.9031,-1.9558,-1.8461,-1.7265,-1.6054,-1.6098,-1.5814,-1.5126,-1.5709,-1.6278,-1.6801,-1.7413,-1.7399,-1.6756,-1.393,-1.3096,0.0,0.0,0.0,0.0,0.0,0.0,0.0,0.0,0.0,0.0,0.0,0.0,0.0,0.0,0.0,-3.6241,-3.8634,-4.0206,-3.9782,-3.9828,-3.9771,-3.9321,-3.9888,-4.0481,-4.0976,-4.1158,-4.1269,-4.1269,-4.0485,-4.0023,-4.0023,-3.9871,-4.0143,-4.0905,-4.0766,-4.0859,-4.1166,-4.0859,-4.0414,-3.9845,-3.9266,0.0,-3.8579,-3.8178,-3.7587,-3.6813,-3.6813,-3.6399,-3.5733,-3.5878,-3.5846,-3.5846,-3.7265,-3.7397,-3.6813,-3.6813,-3.6461,-3.6006,-3.6445,-3.5692,-3.453,-3.4488,-3.3579,-3.252,-3.2579,-3.2695,0.0,-3.3443,-3.3077,-3.2348,-3.1662,-3.0934,-3.0123,-2.8951,-2.8662,-2.8662,-2.8662,-2.7664,-2.6718,-2.6676,-2.5516,-2.4393,-2.3857,-2.3837,-2.3855,-2.3734,-2.3279,-2.2672,-2.1868,-2.1212,-2.0553,-1.9893,-1.9747,-1.9708,-1.9708,-1.9588,-1.9333,-1.8927,-1.8657,-1.8147,-1.737,-1.7849,-1.7819,-1.716,-1.7265,-1.74,-1.7503,-1.7654,-1.7623,-1.7473,-1.6338,-1.6074,0.0,0.0,0.0,0.0,0.0,0.0,0.0,0.0,0.0,0.0,0.0,-3.1863,-3.4054,0.0,-3.7944,-3.823,-3.9502,-4.0059,-3.8949,-3.8466,-3.8513,-3.9253,-3.9731,-4.0242,-4.0883,-4.1286,-4.1496,-4.1496,-4.0721,-4.0258,-4.0258,-3.9849,-3.9987,-4.0761,-4.0378,-4.0562,-4.1454,-4.0595,-3.9849,-3.9251,-3.8889,-3.8154,-3.7157,-3.7166,-3.6783,-3.6054,-3.6054,-3.5831,-3.5504,-3.5504,-3.5504,-3.5602,-3.6337,-3.6384,-3.6054,-3.6054,-3.5814,-3.5554,-3.5926,-3.5392,-3.4461,-3.4197,-3.3351,-3.2451,-3.2135,-3.2064,-3.212,-3.2461,-3.2269,-3.1851,-3.1166,-3.05,-2.9749,-2.8763,-2.8301,-2.8042,-2.8042,-2.7282,-2.6474,-2.6108,-2.5251,-2.4395,-2.3714,-2.3595,-2.3595,-2.3595,-2.3325,-2.2927,-2.2283,-2.162,-2.0946,-2.0273,-1.9884,-1.9708,-1.9708,-1.9708,-1.9573,-1.9211,-1.9196,-1.8897,-1.8222,-1.8506,-1.8371,-1.7697,-1.8027,-1.8192,-1.8192,-1.8553,-1.8702,-1.8687,-1.8356,-1.7947,0.0,0.0,0.0,0.0,0.0,0.0,0.0,-2.8442,-2.9032,-3.2125,-3.355,-3.5006,-3.7636,-3.9276,-4.0139,-3.9695,-3.9783,-3.9297,-3.7698,-3.6895,-3.719,-3.9015,-3.9388,-3.9751,-4.042,-4.1135,-4.1565,-4.1565,-4.0883,-4.0432,-4.0432,-3.9758,-3.9737,-4.0432,-3.9773,-4.006,-4.1478,-4.0095,-3.9118,-3.8633,-3.8444,-3.744,-3.5716,-3.6163,-3.6054,-3.5504,-3.5504,-3.5504,-3.5504,-3.5504,-3.5504,-3.5504,-3.5504,-3.5504,-3.5504,-3.5504,-3.5504,-3.5504,-3.5504,-3.5145,-3.4593,-3.3903,-3.3245,-3.2557,-3.1899,-3.16,-3.1511,-3.1511,-3.1511,-3.1346,-3.0687,-3.0043,-2.9442,-2.8757,-2.8094,-2.76,-2.76,-2.718,-2.6587,-2.5929,-2.5247,-2.4575,-2.3924,-2.3684,-2.3595,-2.3595,-2.3595,-2.337,-2.2778,-2.2119,-2.144,-2.0763,-2.0094,-1.9708,-1.9708,-1.9708,-1.9708,-1.9708,-1.9708,-1.9468,-1.8912,-1.8897,-1.8642,-1.8102,-1.8627,-1.8897,-1.8897,-1.9453,-1.9708,-1.9708,-1.9708,-1.9121,-2.5674,-2.5871,-2.6794,-2.8106,-2.8313,-2.9473,0.0,-3.3552,-3.2834,-3.7095,-3.7524,-3.7643,-3.9331,-4.0307,-4.0369,-3.8964,-3.9303,-3.8994,-3.6926,-3.6543,-3.6607,-3.6851,-3.7506,-3.82,-3.89,-3.957,-3.9942,-3.9942,-3.969,-3.9553,-3.9553,-3.9445,-3.9445,-3.9538,-3.9445,-3.9481,-3.9681,-3.9517,-3.9071,-3.8432,-3.7811,-3.7147,-3.6357,-3.5857,-3.5587,-3.5504,-3.5504,-3.5504,-3.5504,-3.5504,-3.5504,-3.5504,-3.5504,-3.5504,-3.5504,-3.5504,-3.5504,-3.5504,-3.5504,-3.5459,-3.528,-3.4623,-3.3918,-3.326,-3.2602,-3.1974,-3.1511,-3.1511,-3.1511,-3.1346,-3.0687,-3.0043,-2.9442,-2.8757,-2.8094,-2.76,-2.76,-2.754,-2.7285,-2.6626,-2.5959,-2.5277,-2.4605,-2.3999,-2.3595,-2.3595,-2.3595,-2.337,-2.2778,-2.2119,-2.144,-2.0763,-2.0094,-1.9708,-1.9708,-1.9708,-1.9708,-1.9708,-1.9708,-1.9678,-1.9588,-1.9588,-1.9558,-1.9483,-1.9558,-1.9588,-1.9588,-1.9663,-1.9708,-1.9708,-1.9708,-1.9633,-2.9074,-2.9571,-3.0342,-3.1218,-3.2269,-3.3577,-3.5501,-3.5267,-3.544,-3.8188,-3.8795,-3.9151,-4.0167,-4.0688,-4.0293,-3.8241,-3.8258,-3.7923,-3.616,-3.5908,-3.5908,-3.5908,-3.6189,-3.681,-3.7843,-3.8193,-3.8512,-3.8907,-3.8858,-3.899,-3.9394,-3.9388,-3.9388,-3.9388,-3.9388,-3.9388,-3.9388,-3.902,-3.8482,-3.7808,-3.718,-3.6537,-3.5908,-3.5624,-3.5504,-3.5504,-3.5504,-3.5504,-3.5504,-3.5504,-3.5504,-3.5504,-3.5504,-3.5504,-3.5504,-3.5504,-3.5504,-3.5504,-3.5504,-3.5504,-3.5385,-3.4728,-3.4324,-3.3873,-3.2826,-3.2288,-3.1989,-3.1615,-3.1511,-3.1436,-3.1152,-3.0342,-2.9532,-2.9235,-2.8378,-2.76,-2.76,-2.76,-2.7405,-2.6746,-2.6063,-2.5382,-2.4724,-2.4036,-2.3595,-2.3595,-2.3595,-2.3505,-2.3272,-2.2323,-2.1291,-2.0228,-1.9872,-1.9708,-1.9708,-1.9708,-1.9708,-1.9708,-1.9708,-1.9708,-1.9708,-1.9708,-1.9708,-1.9708,-1.9708,-1.9708,-1.9708,-1.9708,-1.9708,-1.9708,-1.9708,-1.9708,-3.092,-3.1922,-3.3099,-3.3867,-3.5423,-3.6737,-3.6585,-3.6766,-3.7391,-3.8938,-3.9455,-3.9862,-4.0563,-4.0483,-3.9632,-3.7699,-3.7387,-3.6912,-3.5692,-3.5504,-3.5504,-3.5504,-3.5504,-3.5863,-3.6791,-3.7045,-3.7345,-3.7823,-3.8182,-3.8601,-3.911,-3.932,-3.9388,-3.9388,-3.9388,-3.9388,-3.9388,-3.8931,-3.8257,-3.7404,-3.6956,-3.6312,-3.5504,-3.5504,-3.5504,-3.5504,-3.5504,-3.5504,-3.5504,-3.5504,-3.5504,-3.5504,-3.5504,-3.5504,-3.5504,-3.5504,-3.5504,-3.5504,-3.5504,-3.5504,-3.5429,-3.4921,-3.4668,-3.4294,-3.3125,-3.2662,-3.2348,-3.169,-3.1511,-3.1511,-3.1511,-3.0687,-2.9816,-2.9651,-2.8723,-2.7824,-2.7645,-2.76,-2.7465,-2.6986,-2.6333,-2.5674,-2.4993,-2.4321,-2.3819,-2.3625,-2.3595,-2.3595,-2.3595,-2.2488,-2.1261,-2.0094,-1.9813,-1.9708,-1.9708,-1.9708,-1.9708,-1.9708,-1.9708,-1.9708,-1.9708,-1.9708,-1.9708,-1.9708,-1.9708,-1.9708,-1.9708,-1.9708,-1.9708,-1.9708,-1.9708,-1.9708,-2.9896,-3.1581,-3.3839,-3.5361,-3.6593,-3.782,-3.9181,-3.888,-3.8782,-4.0319,-3.998,-3.9687,-4.0554,-3.9482,-3.8237,-3.7524,-3.6915,-3.6286,-3.5594,-3.5504,-3.5504,-3.5504,-3.5504,-3.5519,-3.5564,-3.6148,-3.6522,-3.6552,-3.7689,-3.8407,-3.8422,-3.905,-3.9388,-3.9388,-3.9388,-3.9388,-3.9388,-3.9394,-3.8721,-3.7404,-3.7389,-3.6731,-3.5504,-3.5504,-3.5504,-3.5504,-3.5504,-3.5504,-3.5504,-3.5504,-3.5504,-3.5504,-3.5504,-3.5504,-3.5504,-3.5504,-3.5504,-3.5504,-3.5504,-3.5504,-3.5504,-3.5489,-3.5026,-3.4384,-3.3664,-3.3021,-3.2348,-3.169,-3.1511,-3.1511,-3.1511,-3.0972,-3.0328,-2.9756,-2.9071,-2.8382,-2.775,-2.76,-2.7585,-2.757,-2.7031,-2.6363,-2.5689,-2.5008,-2.435,-2.3699,-2.3595,-2.3595,-2.3595,-2.2488,-2.144,-2.0733,-2.0094,-1.9708,-1.9708,-1.9708,-1.9708,-1.9708,-1.9708,-1.9708,-1.9708,-1.9708,-1.9708,-1.9708,-1.9708,-1.9708,-1.9708,-1.9708,-1.9708,-1.9708,-1.9708,-1.9708,-3.2175,-3.4283,-3.649,-3.6785,-3.7875,-3.9,-3.9369,-3.9279,-3.9062,-3.9158,-3.8572,-3.8047,-3.7937,-3.7146,-3.6402,-3.6193,-3.6342,-3.6252,-3.5594,-3.5878,-3.5998,-3.5549,-3.5504,-3.5504,-3.5504,-3.5699,-3.6013,-3.6447,-3.727,-3.7928,-3.8362,-3.905,-3.9388,-3.9388,-3.9388,-3.9388,-3.9388,-3.896,-3.8512,-3.8048,-3.721,-3.6342,-3.5504,-3.5504,-3.5504,-3.5504,-3.5504,-3.5504,-3.5504,-3.5504,-3.5504,-3.5504,-3.5504,-3.5504,-3.5504,-3.5504,-3.5504,-3.5504,-3.5504,-3.5504,-3.5504,-3.5504,-3.5355,-3.4951,-3.3829,-3.3335,-3.2931,-3.1809,-3.1511,-3.1511,-3.1511,-3.0987,-3.0447,-3.0238,-2.9385,-2.8532,-2.8308,-2.7914,-2.76,-2.76,-2.7061,-2.6512,-2.6303,-2.5337,-2.4365,-2.3699,-2.3595,-2.3445,-2.3062,-2.2628,-2.1934,-2.0823,-2.0513,-2.0183,-1.9738,-1.9708,-1.9708,-1.9708,-1.9708,-1.9708,-1.9708,-1.9708,-1.9708,-1.9708,-1.9708,-1.9708,-1.9708,-1.9708,-1.9708,-1.9708,-1.9708,-1.9708,-3.3984,-3.5783,-3.753,-3.8065,-3.885,-3.9508,-3.9412,-3.923,-3.8856,-3.8182,-3.7345,-3.6611,-3.6207,-3.5205,-3.4666,-3.5385,-3.5654,-3.5714,-3.5534,-3.6073,-3.6237,-3.5579,-3.5504,-3.5504,-3.5504,-3.5504,-3.5684,-3.6103,-3.6926,-3.7599,-3.8018,-3.8916,-3.9388,-3.9388,-3.9388,-3.9388,-3.9388,-3.8975,-3.8512,-3.8018,-3.6985,-3.6148,-3.5504,-3.5504,-3.5504,-3.5504,-3.5504,-3.5504,-3.5504,-3.5504,-3.5504,-3.5504,-3.5504,-3.5504,-3.5504,-3.5504,-3.5504,-3.5504,-3.5504,-3.5504,-3.5504,-3.5504,-3.5504,-3.5295,-3.4188,-3.3679,-3.3275,-3.2153,-3.169,-3.1511,-3.1511,-3.1182,-3.0806,-3.0567,-2.9714,-2.8891,-2.8652,-2.8053,-2.76,-2.76,-2.7255,-2.6881,-2.6632,-2.5495,-2.4365,-2.3699,-2.3595,-2.346,-2.3077,-2.2838,-2.2373,-2.1515,-2.0991,-2.0543,-2.0094,-1.9842,-1.9708,-1.9708,-1.9708,-1.9708,-1.9708,-1.9708,-1.9708,-1.9708,-1.9708,-1.9708,-1.9708,-1.9708,-1.9708,-1.9708,-1.9708,-1.9708,-3.5153,-3.6191,-3.718,-3.9118,-3.9499,-3.9373,-3.9379,-3.8841,-3.8123,-3.736,-3.6193,-3.5265,-3.5175,-3.3679,-3.305,-3.4996,-3.4906,-3.4801,-3.5459,-3.6118,-3.6297,-3.5669,-3.5609,-3.5609,-3.5609,-3.5609,-3.5609,-3.5609,-3.6731,-3.7419,-3.7464,-3.8706,-3.9388,-3.9388,-3.9388,-3.9388,-3.9388,-3.9394,-3.8706,-3.7404,-3.6791,-3.6148,-3.5504,-3.5504,-3.5504,-3.5504,-3.5504,-3.5504,-3.5504,-3.5504,-3.5504,-3.5504,-3.5504,-3.5504,-3.5504,-3.5504,-3.5504,-3.5504,-3.5504,-3.5504,-3.5504,-3.5504,-3.5504,-3.537,-3.4713,-3.4023,-3.3365,-3.2706,-3.2019,-3.1511,-3.1511,-3.1511,-3.1346,-3.0717,-3.0088,-2.9472,-2.8801,-2.8113,-2.7645,-2.76,-2.76,-2.739,-2.6731,-2.5525,-2.4425,-2.3759,-2.3625,-2.3595,-2.3595,-2.3107,-2.2733,-2.2703,-2.156,-2.0778,-2.0748,-2.0139,-1.9753,-1.9753,-1.9723,-1.9708,-1.9708,-1.9708,-1.9708,-1.9708,-1.9708,-1.9708,-1.9708,-1.9708,-1.9708,-1.9708,-1.9708,-1.9708,-3.6728,-3.8248,-3.9584,-3.9461,-3.9418,-3.929,-3.8766,-3.8138,-3.706,-3.4936,-3.3455,-3.2064,-3.0627,-3.1107,-3.1914,-3.2437,-3.4472,-3.6028,-3.6207,-3.6776,-3.712,-3.6941,-3.6926,-3.6926,-3.6926,-3.6926,-3.6926,-3.6926,-3.7225,-3.7629,-3.8108,-3.8945,-3.9388,-3.9388,-3.9388,-3.9388,-3.9388,-3.8901,-3.8227,-3.7404,-3.6791,-3.6148,-3.5504,-3.5504,-3.5504,-3.5504,-3.5504,-3.5504,-3.5504,-3.5504,-3.5504,-3.5504,-3.5504,-3.5504,-3.5504,-3.5504,-3.5504,-3.5504,-3.5504,-3.5504,-3.5504,-3.5504,-3.5504,-3.537,-3.4713,-3.4023,-3.3365,-3.2706,-3.2019,-3.1511,-3.1511,-3.1511,-3.1466,-3.1286,-3.0761,-3.0103,-2.946,-2.8801,-2.8188,-2.7705,-2.76,-2.739,-2.6731,-2.5899,-2.5113,-2.444,-2.3924,-2.3595,-2.3595,-2.346,-2.3212,-2.2748,-2.2403,-2.1999,-2.1485,-2.0842,-2.0453,-2.0453,-1.9974,-1.9708,-1.9708,-1.9708,-1.9708,-1.9708,-1.9708,-1.9708,-1.9708,-1.9708,-1.9708,-1.9708,-1.9708,-1.9708,-3.7691,-3.8957,-4.0025,-3.9502,-3.9185,-3.8646,-3.7404,-3.6387,-3.4861,-3.1943,-3.0522,-2.937,-2.7979,-2.8846,-3.015,-3.1316,-3.3574,-3.5385,-3.5968,-3.6836,-3.73,-3.7045,-3.724,-3.7404,-3.7404,-3.7404,-3.7524,-3.7823,-3.7838,-3.8003,-3.8362,-3.905,-3.9388,-3.9388,-3.9388,-3.9388,-3.9388,-3.8736,-3.8063,-3.7404,-3.6791,-3.6148,-3.5504,-3.5504,-3.5504,-3.5504,-3.5504,-3.5504,-3.5504,-3.5504,-3.5504,-3.5504,-3.5504,-3.5504,-3.5504,-3.5504,-3.5504,-3.5504,-3.5504,-3.5504,-3.5504,-3.5504,-3.5504,-3.5429,-3.504,-3.4262,-3.3425,-3.3051,-3.2228,-3.1511,-3.1511,-3.1511,-3.1511,-3.1511,-3.0972,-3.0417,-3.0058,-2.925,-2.8397,-2.7735,-2.76,-2.739,-2.6731,-2.6288,-2.5719,-2.4754,-2.4276,-2.3939,-2.364,-2.3595,-2.346,-2.3137,-2.2868,-2.2553,-2.2179,-2.1515,-2.1002,-2.0718,-2.0348,-2.0004,-1.9708,-1.9708,-1.9708,-1.9708,-1.9708,-1.9708,-1.9708,-1.9708,-1.9708,-1.9708,-1.9708,-1.9708,-3.8347,-3.896,-3.9388,-3.9388,-3.8841,-3.7749,-3.5804,-3.4188,-3.2168,-2.8876,-2.7615,-2.6866,-2.6207,-2.6851,-2.8304,-3.0838,-3.2527,-3.3993,-3.5429,-3.6582,-3.715,-3.6776,-3.721,-3.7584,-3.7674,-3.7674,-3.7913,-3.8482,-3.8527,-3.8527,-3.8527,-3.9095,-3.9388,-3.9388,-3.9334,-3.929,-3.929,-3.8512,-3.7853,-3.7285,-3.6656,-3.6058,-3.5504,-3.5504,-3.5504,-3.5504,-3.5504,-3.5504,-3.5504,-3.5504,-3.5504,-3.5504,-3.5504,-3.5504,-3.5504,-3.5504,-3.5504,-3.5504,-3.5504,-3.5504,-3.5504,-3.5504,-3.5504,-3.5504,-3.5504,-3.4622,-3.3604,-3.3529,-3.2617,-3.1615,-3.1525,-3.1511,-3.1511,-3.1511,-3.1047,-3.0612,-3.0522,-2.9505,-2.8397,-2.7735,-2.76,-2.742,-2.6811,-2.6647,-2.6198,-2.5038,-2.4709,-2.4395,-2.3819,-2.3655,-2.3595,-2.3595,-2.3137,-2.2823,-2.2823,-2.2224,-2.1575,-2.1006,-2.0882,-2.0572,-1.9992,-1.9977,-1.9977,-1.9977,-1.9887,-1.9887,-1.9977,-1.9887,-1.9887,-1.9962,-1.9872,-1.9842,-3.905,-3.9334,-3.9388,-3.9388,-3.8497,-3.706,-3.51,-3.2766,0.0,-2.6811,-2.5151,-2.4103,-2.3496,-2.5249,-2.748,-2.9579,-3.1928,-3.4158,-3.6058,-3.6507,-3.7,-3.7943,-3.8153,-3.8437,-3.902,-3.9029,-3.911,-3.923,-3.9245,-3.9245,-3.9245,-3.9349,-3.9388,-3.9388,-3.8871,-3.8571,-3.8571,-3.7404,-3.6761,-3.6641,-3.5983,-3.5609,-3.5504,-3.5504,-3.5504,-3.5504,-3.5504,-3.5504,-3.5504,-3.5504,-3.5504,-3.5504,-3.5504,-3.5504,-3.5504,-3.5504,-3.5504,-3.5504,-3.5504,-3.5504,-3.5504,-3.5504,-3.5504,-3.5504,-3.5504,-3.4936,-3.4219,-3.3649,-3.2946,-3.2183,-3.1645,-3.1511,-3.1511,-3.1511,-3.1406,-3.1167,-3.0627,-2.9505,-2.8397,-2.7735,-2.76,-2.7555,-2.745,-2.6971,-2.6512,-2.6288,-2.5307,-2.456,-2.444,-2.3954,-2.3595,-2.3595,-2.3505,-2.343,-2.343,-2.2882,-2.2478,-2.2358,-2.1829,-2.147,-2.135,-2.135,-2.135,-2.135,-2.0812,-2.0797,-2.1335,-2.0797,-2.0812,-2.1335,-2.0782,-2.0543,-3.8796,-3.914,-3.9209,-3.8542,-3.7644,-3.6066,-3.2714,0.0,0.0,-2.3467,-2.2184,-2.1663,-2.1316,-2.3386,-2.5765,-2.7729,-2.9669,-3.1884,-3.4547,-3.4936,-3.5669,-3.7644,-3.8182,-3.8661,-3.9313,-3.9388,-3.9388,-3.9388,-3.9388,-3.9388,-3.9388,-3.9388,-3.926,-3.8901,-3.8556,-3.8227,-3.7883,-3.6956,-3.6492,-3.6477,-3.5818,-3.5504,-3.5504,-3.5504,-3.5504,-3.5504,-3.5504,-3.5504,-3.5504,-3.5504,-3.5504,-3.5504,-3.5504,-3.5504,-3.5504,-3.5504,-3.5504,-3.5504,-3.5504,-3.5504,-3.5504,-3.5504,-3.5504,-3.5504,-3.5504,-3.5026,-3.4369,-3.3679,-3.3021,-3.2333,-3.1675,-3.1511,-3.1511,-3.1511,-3.1511,-3.1316,-3.0657,-3.0028,-2.9295,-2.8293,-2.7825,-2.7561,-2.7594,-2.7014,-2.6436,-2.6084,-2.5818,-2.5369,-2.4646,-2.403,-2.3636,-2.3596,-2.3595,-2.3595,-2.3595,-2.3325,-2.3032,-2.2718,-2.2403,-2.2074,-2.171,-2.1695,-2.1695,-2.1695,-2.138,-2.138,-2.1695,-2.138,-2.1395,-2.168,-2.138,-2.1231,-3.8392,-3.8901,-3.9125,-3.7913,-3.6836,-3.4912,-3.0426,-2.7746,0.0,-2.0612,-1.971,-1.9677,-1.9729,-2.1535,-2.3708,-2.5853,-2.7333,-2.9411,-3.2826,-3.341,-3.4412,-3.6911,-3.7778,-3.8452,-3.9125,-3.9334,-3.9388,-3.9388,-3.9388,-3.9388,-3.9388,-3.9388,-3.9095,-3.8407,-3.8257,-3.7868,-3.721,-3.6582,-3.6282,-3.6267,-3.5744,-3.5504,-3.5504,-3.5504,-3.5504,-3.5504,-3.5504,-3.5504,-3.5504,-3.5504,-3.5504,-3.5504,-3.5504,-3.5504,-3.5504,-3.5504,-3.5504,-3.5504,-3.5504,-3.5504,-3.5504,-3.5504,-3.5504,-3.5504,-3.5504,-3.513,-3.4562,-3.3888,-3.323,-3.2572,-3.1884,-3.1615,-3.1511,-3.1511,-3.1511,-3.1316,-3.0657,-3.0507,-3.0178,-2.9026,-2.8121,-2.752,-2.7576,-2.6861,-2.6085,-2.5571,-2.5847,-2.5735,-2.4615,-2.3977,-2.3621,-2.3553,-2.3459,-2.3421,-2.3421,-2.3421,-2.3213,-2.2723,-2.2572,-2.2294,-2.193,-2.1915,-2.1839,-2.1701,-2.1706,-2.1767,-2.1915,-2.1767,-2.1843,-2.2099,-2.1964,-2.1904,-3.8392,-3.8901,-3.923,-3.8482,-3.6462,-3.3645,-2.9752,0.0,-2.3141,-1.9845,-1.8685,-1.8464,-1.9051,-1.988,-2.1425,-2.4471,-2.6079,-2.8265,-3.2079,-3.3125,-3.4262,-3.6327,-3.712,-3.7764,-3.8422,-3.905,-3.9388,-3.9388,-3.9388,-3.9388,-3.9388,-3.9388,-3.9095,-3.8407,-3.7808,-3.721,-3.6582,-3.5923,-3.5594,-3.5594,-3.5534,-3.5504,-3.5504,-3.5504,-3.5504,-3.5504,-3.5504,-3.5504,-3.5504,-3.5504,-3.5504,-3.5504,-3.5504,-3.5504,-3.5504,-3.5504,-3.5504,-3.5504,-3.5504,-3.5504,-3.5504,-3.5504,-3.5504,-3.5504,-3.5504,-3.5459,-3.5265,-3.4608,-3.3918,-3.3245,-3.2572,-3.1959,-3.1511,-3.1511,-3.1511,-3.1316,-3.0657,-3.0507,-3.0298,-2.9651,-2.8429,-2.7514,-2.7511,-2.6382,-2.5494,-2.5425,-2.4953,-2.4564,-2.4429,-2.3837,-2.3425,-2.3407,-2.3041,-2.2785,-2.2785,-2.2785,-2.277,-2.2712,-2.2131,-2.2034,-2.2581,-2.2603,-2.2326,-2.1708,-2.1703,-2.2004,-2.2603,-2.2004,-2.2286,-2.3415,-2.2868,-2.2613,-3.7135,-3.8003,-3.8452,-3.7015,-3.5265,-3.2778,-2.8569,-2.5374,-2.2315,-1.8804,-1.7586,-1.7316,-1.7914,-1.8565,-1.9885,-2.2616,-2.3499,-2.5194,-2.9017,-3.0118,-3.1569,-3.4352,-3.5624,-3.6821,-3.8257,-3.8631,-3.8796,-3.8796,-3.8796,-3.8631,-3.8227,-3.8586,-3.8497,-3.7823,-3.718,-3.6552,-3.5893,-3.5639,-3.5504,-3.5504,-3.5504,-3.5504,-3.5504,-3.5504,-3.5504,-3.5504,-3.5504,-3.5504,-3.5504,-3.5504,-3.5504,-3.5504,-3.5504,-3.5504,-3.5504,-3.5504,-3.5504,-3.5504,-3.5504,-3.5504,-3.5504,-3.5504,-3.5504,-3.5504,-3.5504,-3.5504,-3.5355,-3.4698,-3.4039,-3.335,-3.2677,-3.1634,-3.0644,-3.0103,-3.0011,-2.9909,-2.9638,-2.9595,-2.941,-2.8767,-2.7821,-2.7033,-2.6777,-2.5873,-2.5112,-2.4791,-2.4887,-2.4833,-2.4403,-2.3782,-2.3541,-2.3954,-2.3184,-2.2628,-2.2628,-2.2301,-2.21,-2.21,-2.1852,-2.1828,-2.21,-2.21,-2.1969,-2.171,-2.1709,-2.1838,-2.21,-2.2255,-2.2561,-2.3054,-2.319,-2.3236,-3.5654,-3.6836,-3.7449,-3.5893,-3.418,-3.1735,-2.7285,-2.4235,-2.1373,-1.7859,-1.681,-1.6616,-1.6993,-1.7444,-1.8495,-2.0699,-2.1391,-2.3049,-2.7046,-2.8364,-3.0043,-3.3125,-3.4502,-3.5818,-3.7389,-3.7883,-3.8093,-3.8093,-3.8093,-3.7898,-3.7434,-3.7674,-3.7614,-3.715,-3.6716,-3.6178,-3.5519,-3.5504,-3.5504,-3.5504,-3.5504,-3.5504,-3.5504,-3.5504,-3.5504,-3.5504,-3.5504,-3.5504,-3.5504,-3.5504,-3.5504,-3.5504,-3.5504,-3.5504,-3.5504,-3.5504,-3.5504,-3.5504,-3.5504,-3.5504,-3.5504,-3.5504,-3.5504,-3.5504,-3.5504,-3.5504,-3.54,-3.4921,-3.3986,-3.2967,-3.2285,-3.1019,-2.9766,-2.916,-2.9002,-2.9002,-2.9002,-2.9002,-2.8878,-2.8388,-2.7543,-2.6804,-2.6481,-2.5495,-2.4641,-2.4268,-2.45,-2.4525,-2.4002,-2.3566,-2.3505,-2.3968,-2.3125,-2.2532,-2.2536,-2.2002,-2.1673,-2.1673,-2.1326,-2.1232,-2.1424,-2.1424,-2.1328,-2.1135,-2.1328,-2.1424,-2.1424,-2.2091,-2.2498,-2.2717,-2.3334,-2.3595,-3.4174,-3.5507,-3.6357,-3.5669,-3.3446,-3.0316,-2.5996,-2.2885,-2.0085,-1.7128,-1.65,-1.65,-1.6522,-1.65,-1.7093,-1.8838,-2.0249,-2.2623,-2.6996,-2.8753,-3.0565,-3.3185,-3.4114,-3.4788,-3.5474,-3.6686,-3.7419,-3.7419,-3.7419,-3.7419,-3.7404,-3.6836,-3.6507,-3.6492,-3.6492,-3.6178,-3.5519,-3.5504,-3.5504,-3.5504,-3.5504,-3.5504,-3.5504,-3.5504,-3.5504,-3.5504,-3.5504,-3.5504,-3.5504,-3.5504,-3.5504,-3.5504,-3.5504,-3.5504,-3.5504,-3.5504,-3.5504,-3.5504,-3.5504,-3.5504,-3.5504,-3.5504,-3.5504,-3.5504,-3.5504,-3.5504,-3.5504,-3.5489,-3.3912,-3.206,-3.1397,-3.0111,-2.9002,-2.9002,-2.9002,-2.9002,-2.9002,-2.9002,-2.9002,-2.8989,-2.7858,-2.6897,-2.6884,-2.5286,-2.4004,-2.3991,-2.3502,-2.3138,-2.3108,-2.3095,-2.3095,-2.3125,-2.2623,-2.2344,-2.2415,-2.1904,-2.1602,-2.1602,-2.0489,-2.0131,-2.0771,-2.0795,-2.0497,-1.9824,-2.0472,-2.0795,-2.0795,-2.1414,-2.2053,-2.2717,-2.3334,-2.3595,-3.0796,-3.2093,-3.2811,-3.1734,-2.9762,-2.733,-2.4306,-2.1931,-1.9624,-1.7039,-1.65,-1.65,-1.65,-1.65,-1.7335,-1.986,-2.112,-2.2942,-2.6234,-2.8734,-3.0687,-3.1974,-3.4337,-3.5938,-3.6148,-3.6926,-3.724,-3.6806,-3.6776,-3.6582,-3.6133,-3.5923,-3.6028,-3.6477,-3.6058,-3.5714,-3.5504,-3.5504,-3.5504,-3.5504,-3.5504,-3.5504,-3.5504,-3.5504,-3.5504,-3.5504,-3.5504,-3.5504,-3.5504,-3.5504,-3.51,-3.4461,-3.4461,-3.4461,-3.4394,-3.3754,-3.3925,-3.4461,-3.4461,-3.4461,-3.4461,-3.4461,-3.4461,-3.4361,-3.3719,-3.4457,-3.527,-3.4178,-3.2839,-3.1408,-2.9791,-2.8999,-2.8419,-2.7509,-2.7284,-2.7284,-2.7284,-2.7284,-2.7284,-2.7284,-2.692,-2.6488,-2.608,-2.5507,-2.4833,-2.4104,-2.3841,-2.359,-2.3158,-2.3108,-2.3108,-2.3108,-2.2945,-2.2707,-2.2356,-2.1824,-2.1533,-2.1533,-2.115,-2.1062,-2.1278,-2.1266,-2.1197,-2.0981,-2.0816,-2.0731,-2.0731,-2.1385,-2.224,-2.3249,-2.3551,-2.3853,-2.7234,-2.8567,-2.9211,-2.8642,-2.7003,-2.494,-2.2768,-2.0764,-1.8817,-1.6898,-1.65,-1.65,-1.65,-1.668,-1.7385,-1.9183,-2.0484,-2.233,-2.5311,-2.7864,-3.0106,-3.2049,-3.4322,-3.5761,-3.5761,-3.6312,-3.6537,-3.6148,-3.6118,-3.5938,-3.5534,-3.5504,-3.5684,-3.6103,-3.5714,-3.5504,-3.5504,-3.5504,-3.5504,-3.5504,-3.5504,-3.5504,-3.5504,-3.5504,-3.5504,-3.5504,-3.5504,-3.5504,0.0,-3.51,-3.4576,-3.3959,-3.3602,-3.3449,-3.338,-3.282,-3.2961,-3.3449,-3.3449,-3.3449,-3.3449,-3.3449,-3.3449,-3.3345,-3.2784,-3.3429,-3.4187,-3.3195,-3.2076,-3.0848,-2.9552,-2.8634,-2.7829,-2.7015,-2.665,-2.6499,-2.6499,-2.6499,-2.6499,-2.6499,-2.6499,-2.6386,-2.6021,-2.5737,-2.5372,-2.4707,-2.4431,-2.4104,-2.3496,-2.3434,-2.3346,-2.3133,-2.3108,-2.2957,-2.2619,-2.2121,-2.1794,-2.1794,-2.1606,-2.1493,-2.1493,-2.1493,-2.1493,-2.1493,-2.1182,-2.1006,-2.0993,-2.1652,-2.2471,-2.3466,-2.354,-2.39,0.0,-2.4915,-2.5598,-2.6105,-2.4792,-2.2951,-2.1278,-1.9473,0.0,-1.6726,-1.65,-1.6525,-1.66,-1.6994,-1.737,-1.7579,-1.9019,-2.1237,-2.4529,-2.6736,-2.9415,-3.3184,-3.4173,-3.4578,-3.4578,-3.513,-3.5504,-3.5504,-3.5504,-3.5504,-3.5504,-3.5504,-3.5472,-3.5392,-3.5392,-3.5439,-3.5504,-3.5504,-3.5504,-3.5504,-3.5504,-3.5504,-3.5504,-3.5504,-3.5504,-3.5504,-3.5504,-3.5472,-3.5326,-3.4394,-3.391,-3.3705,-3.2855,-3.25,-3.25,-3.2429,-3.2464,-3.25,-3.25,-3.25,-3.25,-3.25,-3.2464,-3.2393,-3.2393,-3.2464,-3.25,-3.25,-3.1487,-3.0342,-3.0303,-2.8859,-2.7381,-2.7341,-2.6927,-2.6549,-2.6499,-2.6499,-2.6499,-2.6499,-2.6499,-2.6499,-2.6499,-2.6047,-2.5636,-2.5598,-2.5184,-2.4669,-2.413,-2.4054,-2.3841,-2.3233,-2.3158,-2.3145,-2.3108,-2.2631,-2.2372,-2.2372,-2.1895,-2.1606,-2.1606,-2.1606,-2.1606,-2.1606,-2.1568,-2.1559,-2.1564,-2.209,-2.2698,-2.3383,-2.3409,-2.3824,-1.8802,0.0,-2.2119,-2.1727,-2.091,-1.9973,0.0,-1.8261,-1.7375,-1.6638,-1.65,-1.6763,-1.7652,-1.7536,-1.8022,-2.0169,-2.1377,-2.3134,-2.626,-2.9828,-3.2839,-3.4784,-3.5175,-3.5265,-3.5265,-3.5415,-3.5504,-3.5504,-3.5504,-3.5504,-3.5504,-3.5504,-3.5133,-3.4394,-3.4361,-3.4725,-3.5504,-3.5504,-3.5504,-3.5504,-3.5504,-3.5504,-3.5504,-3.5504,-3.5504,-3.5504,-3.5504,-3.5067,-3.4312,-3.4095,-3.3136,-3.1852,-3.1609,-3.1536,-3.1426,-3.0733,-3.0908,-3.1536,-3.1536,-3.1536,-3.1536,-3.1536,-3.1044,-3.047,-3.047,-3.0945,-3.1536,-3.1536,-3.0742,-2.9821,-2.9364,-2.8874,-2.8335,-2.7482,-2.718,-2.7002,-2.6587,-2.6499,-2.6499,-2.6499,-2.6499,-2.6499,-2.6499,-2.6386,-2.6135,-2.5661,-2.5485,-2.5222,-2.4695,-2.4619,-2.4418,-2.3853,-2.3791,-2.3584,-2.3145,-2.2982,-2.2907,-2.2907,-2.2794,-2.2719,-2.2719,-2.2719,-2.2719,-2.2719,-2.2305,-2.215,-2.2186,-2.1884,-2.2268,-2.332,-2.3376,-2.4042,-1.6898,-1.853,-2.0114,-2.0,-1.9507,-1.8988,-1.8678,-1.7772,-1.6898,-1.6563,-1.65,-1.6763,-1.7664,-1.7974,-1.8595,-2.0128,-2.19,-2.4448,-2.8279,-3.1776,-3.4337,-3.5385,-3.5504,-3.5326,-3.4872,-3.4806,-3.4624,-3.4192,-3.4158,-3.4375,-3.4806,-3.4409,-3.4109,-3.3993,-3.3602,-3.3602,-3.4158,-3.4158,-3.4375,-3.4806,-3.4806,-3.5052,-3.5472,-3.5019,-3.4806,-3.4806,-3.4375,-3.3856,-3.331,-3.289,-3.2141,-3.1143,-3.0733,-3.0558,-3.0482,-3.0011,-3.0101,-3.0558,-3.0558,-3.0558,-3.0558,-3.0558,-3.0216,-2.9792,-2.9792,-3.0139,-3.0558,-3.0558,-3.0177,-2.9716,-2.9402,-2.9126,-2.8737,-2.8185,-2.7657,-2.7241,-2.6939,-2.6675,-2.6499,-2.6499,-2.6499,-2.6499,-2.6499,-2.6499,-2.6386,-2.6072,-2.6021,-2.5799,-2.5247,-2.5172,-2.4971,-2.4431,-2.4381,-2.4155,-2.3547,-2.3496,-2.3384,-2.312,-2.3108,-2.3108,-2.3108,-2.3108,-2.3108,-2.3108,-2.2807,-2.2669,-2.2724,-2.2407,-2.2571,-2.3199,-2.3244,-2.3848,-1.6701,-1.7917,-1.9171,-1.9358,-1.9219,-1.8942,-1.8778,-1.764,-1.6595,-1.6522,-1.6563,-1.6873,-1.7637,-1.8685,-1.952,-1.9737,-2.2392,-2.5841,-2.9856,-3.2781,-3.4694,-3.5204,-3.5279,-3.4953,-3.4095,-3.3876,-3.3449,-3.2664,-3.2593,-3.2961,-3.3739,-3.3031,-3.289,-3.3553,-3.282,-3.2321,-3.2177,-3.2464,-3.2996,-3.3774,-3.3774,-3.4211,-3.5034,-3.4177,-3.3774,-3.3739,-3.2961,-3.2522,-3.2321,-3.1536,-3.1106,-3.0895,-3.0101,-2.9792,-2.9792,-2.9792,-2.9792,-2.9792,-2.9792,-2.9792,-2.9792,-2.9792,-2.9792,-2.9792,-2.9792,-2.9792,-2.9792,-2.9792,-2.9792,-2.9792,-2.9792,-2.9428,-2.9001,-2.8913,-2.821,-2.7507,-2.7419,-2.7077,-2.6725,-2.6637,-2.6612,-2.66,-2.6512,-2.6499,-2.6499,-2.6499,-2.6499,-2.6311,-2.5787,-2.5724,-2.5523,-2.4996,-2.4913,-2.4687,-2.4167,-2.4117,-2.3916,-2.3396,-2.3195,-2.3108,-2.3108,-2.3108,-2.3108,-2.3108,-2.3108,-2.3108,-2.3108,-2.3108,-2.3108,-2.3108,-2.3108,-2.3641,-1.7689,-1.8794,-1.9371,-1.8007,-1.834,-1.8757,-1.7774,-1.7363,-1.7055,-1.6595,-1.6911,-1.7725,-1.9158,-2.055,-2.1841,-2.3031,-2.6102,-2.8663,-2.9544,-3.246,-3.4441,-3.424,-3.4245,-3.4177,-3.4027,-3.3276,-3.2749,-3.2593,-3.2593,-3.2664,-3.282,-3.2664,-3.2321,-3.1633,-3.1499,-3.1044,-3.0254,-3.1792,-3.2664,-3.282,-3.282,-3.289,-3.3031,-3.289,-3.282,-3.282,-3.2664,-3.2141,-3.1389,-3.1241,-3.0733,-2.9998,-2.9869,-2.9792,-2.9792,-2.9792,-2.9792,-2.9792,-2.9792,-2.9792,-2.9792,-2.9792,-2.9792,-2.9792,-2.9792,-2.9792,-2.9792,-2.9792,-2.9792,-2.9792,-2.9792,-2.9729,-2.9528,-2.9001,-2.8762,-2.8512,-2.8084,-2.7908,-2.772,-2.7291,-2.719,-2.704,-2.6575,-2.6499,-2.6499,-2.6499,-2.6499,-2.6461,-2.6373,-2.6361,-2.6135,-2.5536,-2.5473,-2.5259,-2.4713,-2.4662,-2.4625,-2.4537,-2.3634,-2.3108,-2.3108,-2.3108,-2.3108,-2.3108,-2.3108,-2.3108,-2.3108,-2.3108,-2.3108,-2.3108,-2.3108,-2.4161,-1.7127,-1.8103,-1.8815,-1.834,-1.9292,-2.0219,-1.974,-1.9121,-1.8574,-1.8339,-1.8505,-1.9007,-2.0101,-2.1288,-2.2964,-2.5567,-2.7901,-2.9653,-3.0518,-3.2254,-3.3411,-3.3268,-3.3241,-3.3031,-3.2522,-3.2105,-3.1646,-3.1132,-3.1095,-3.1304,-3.1829,-3.1365,-3.1119,-3.1217,-3.0696,-3.0241,-2.9792,-3.0671,-3.1328,-3.1852,-3.1852,-3.2105,-3.2558,-3.2069,-3.1852,-3.1829,-3.1304,-3.0846,-3.0457,-3.0457,-3.0177,-2.9792,-2.9792,-2.9792,-2.9792,-2.9792,-2.9792,-2.9792,-2.9792,-2.9792,-2.9792,-2.9792,-2.9792,-2.9792,-2.9792,-2.9792,-2.9792,-2.9792,-2.9792,-2.9792,-2.9792,-2.9792,-2.9729,-2.9453,-2.9151,-2.8825,-2.8612,-2.831,-2.8034,-2.777,-2.772,-2.7645,-2.7394,-2.7344,-2.7291,-2.6989,-2.6939,-2.6839,-2.6537,-2.6499,-2.6386,-2.6122,-2.6097,-2.5837,-2.5285,-2.5247,-2.5121,-2.4813,-2.4299,-2.401,-2.401,-2.401,-2.401,-2.401,-2.401,-2.401,-2.401,-2.401,-2.401,-2.401,-2.401,-2.456,-1.6814,-1.7551,-1.8396,-1.9214,-2.0256,-2.1203,-2.1498,-2.0759,-2.0028,-2.0163,-2.03,-2.0564,-2.1142,-2.246,-2.4474,-2.7584,-2.9108,-3.0184,-3.1065,-3.1998,-3.2522,-3.2321,-3.2285,-3.1997,-3.1278,-3.1007,-3.0558,-2.9856,-2.9792,-3.0101,-3.0833,-3.0177,-3.0139,-3.0833,-3.0177,-2.9792,-2.9792,-2.9792,-3.0177,-3.0871,-3.0871,-3.1254,-3.1938,-3.118,-3.0871,-3.0833,-3.0101,-2.9792,-2.9792,-2.9792,-2.9792,-2.9792,-2.9792,-2.9792,-2.9792,-2.9792,-2.9792,-2.9792,-2.9792,-2.9792,-2.9792,-2.9792,-2.9792,-2.9792,-2.9792,-2.9792,-2.9792,-2.9792,-2.9792,-2.9792,-2.9792,-2.9792,-2.9792,-2.9792,-2.9453,-2.9126,-2.9126,-2.88,-2.8461,-2.8323,-2.8298,-2.826,-2.8134,-2.8109,-2.7959,-2.7544,-2.7469,-2.7318,-2.6939,-2.6876,-2.6839,-2.67,-2.6688,-2.6449,-2.585,-2.5799,-2.5636,-2.5222,-2.4938,-2.4788,-2.4788,-2.4788,-2.4788,-2.4788,-2.4788,-2.4788,-2.4788,-2.4788,-2.4788,-2.4788,-2.4788,-2.498,-1.7802,-1.8141,-1.861,-2.0267,-2.0278,-2.0205,-2.125,-2.1002,-2.0694,-2.1264,-2.1769,-2.2297,-2.2832,-2.5134,-2.7446,-2.9005,-3.0296,-3.0828,-3.0037,-3.1486,-3.2285,-3.1389,-3.1278,-3.1278,-3.1217,-3.0419,-2.9856,-2.9792,-2.9792,-2.983,-2.9895,-2.983,-2.983,-2.9895,-2.983,-2.9792,-2.9792,-2.9792,-2.983,-2.9895,-2.9895,-2.9934,-2.9998,-2.9934,-2.9895,-2.9895,-2.983,-2.9792,-2.9792,-2.9792,-2.9792,-2.9792,-2.9792,-2.9792,-2.9792,-2.9792,-2.9792,-2.9792,-2.9792,-2.9792,-2.9792,-2.9792,-2.9792,-2.9792,-2.9792,-2.9792,-2.9792,-2.9792,-2.9792,-2.9792,-2.9792,-2.9792,-2.9792,-2.9792,-2.9767,-2.9729,-2.9729,-2.9691,-2.9515,-2.8938,-2.8838,-2.8662,-2.8197,-2.8109,-2.8097,-2.8059,-2.8047,-2.8034,-2.7996,-2.7984,-2.7795,-2.7316,-2.7218,-2.704,-2.6487,-2.6436,-2.6411,-2.6386,-2.5385,-2.4788,-2.4788,-2.4788,-2.4788,-2.4788,-2.4788,-2.4788,-2.4788,-2.4788,-2.4788,-2.4788,-2.4788,-2.548,-1.7014,-1.7892,-1.8855,-1.9519,-2.0259,-2.1245,-2.2765,-2.3186,-2.3479,-2.4419,-2.4777,-2.4978,-2.5172,-2.6339,-2.7599,-2.8454,-2.9575,-3.0216,-2.9869,-3.0394,-3.0746,-3.0381,-3.0317,-3.0317,-3.0317,-2.9998,-2.9792,-2.9792,-2.9792,-2.9792,-2.9792,-2.9792,-2.9792,-2.9792,-2.9792,-2.9792,-2.9792,-2.9792,-2.9792,-2.9792,-2.9792,-2.9792,-2.9792,-2.9792,-2.9792,-2.9792,-2.9792,-2.9792,-2.9792,-2.9792,-2.9792,-2.9792,-2.9792,-2.9792,-2.9792,-2.9792,-2.9792,-2.9792,-2.9792,-2.9792,-2.9792,-2.9792,-2.9792,-2.9792,-2.9792,-2.9792,-2.9792,-2.9792,-2.9792,-2.9792,-2.9792,-2.9792,-2.9792,-2.9792,-2.9792,-2.9792,-2.9792,-2.9792,-2.9729,-2.9503,-2.9465,-2.9402,-2.9189,-2.9151,-2.9026,-2.8662,-2.8612,-2.8499,-2.8147,-2.8109,-2.8021,-2.7821,-2.7494,-2.7241,-2.7014,-2.6688,-2.6499,-2.6499,-2.6109,-2.5871,-2.5871,-2.5871,-2.5871,-2.5871,-2.5871,-2.5871,-2.5871,-2.5871,-2.5871,-2.5871,-2.5871,-2.6139,-1.6763,-1.7626,-1.8607,-1.9121,-2.0263,-2.1835,-2.4069,-2.4671,-2.5234,-2.6713,-2.6876,-2.6801,-2.6977,-2.7329,-2.772,-2.8285,-2.9164,-2.9792,-2.9792,-2.9792,-2.9792,-2.9792,-2.9792,-2.9792,-2.9792,-2.9792,-2.9792,-2.9792,-2.9792,-2.9792,-2.9792,-2.9792,-2.9792,-2.9792,-2.9792,-2.9792,-2.9792,-2.9792,-2.9792,-2.9792,-2.9792,-2.9792,-2.9792,-2.9792,-2.9792,-2.9792,-2.9792,-2.9792,-2.9792,-2.9792,-2.9792,-2.9792,-2.9792,-2.9792,-2.9792,-2.9792,-2.9792,-2.9792,-2.9792,-2.9792,-2.9792,-2.9792,-2.9792,-2.9792,-2.9792,-2.9792,-2.9792,-2.9792,-2.9792,-2.9792,-2.9792,-2.9792,-2.9792,-2.9792,-2.9792,-2.9792,-2.9792,-2.9792,-2.9792,-2.9792,-2.9792,-2.9792,-2.9792,-2.9792,-2.9654,-2.9264,-2.9164,-2.9063,-2.8687,-2.8637,-2.8561,-2.8386,-2.7871,-2.7544,-2.7544,-2.7241,-2.7014,-2.7014,-2.6851,-2.6675,-2.6499,-2.6499,-2.6499,-2.6499,-2.6499,-2.6499,-2.6499,-2.6499,-2.6499,-2.6499,-2.6499,-2.6499,-1.7398,-1.741,-1.7813,-1.9397,-2.0289,-2.1597,-2.4858,-2.5209,-2.544,-2.767,-2.7682,-2.7469,-2.8009,-2.8109,-2.8298,-2.88,-2.9415,-2.9792,-2.9792,-2.9792,-2.9792,-2.9792,-2.9792,-2.9792,-2.9792,-2.9792,-2.9792,-2.9792,-2.9792,-2.9792,-2.9792,-2.9792,-2.9792,-2.9792,-2.9792,-2.9792,-2.9792,-2.9792,-2.9792,-2.9792,-2.9792,-2.9792,-2.9792,-2.9792,-2.9792,-2.9792,-2.9792,-2.9792,-2.9792,-2.9792,-2.9792,-2.9792,-2.9792,-2.9792,-2.9792,-2.9792,-2.9792,-2.9792,-2.9792,-2.9792,-2.9792,-2.9792,-2.9792,-2.9792,-2.9792,-2.9792,-2.9792,-2.9792,-2.9792,-2.9792,-2.9792,-2.9792,-2.9792,-2.9792,-2.9792,-2.9792,-2.9792,-2.9792,-2.9792,-2.9792,-2.9792,-2.9792,-2.9792,-2.9792,-2.9792,-2.9792,-2.9792,-2.9792,-2.9792,-2.9792,-2.9578,-2.8963,-2.8448,-2.8109,-2.8109,-2.8109,-2.8109,-2.8109,-2.7595,-2.7077,-2.6524,-2.6499,-2.6499,-2.6499,-2.6499,-2.6499,-2.6499,-2.6499,-2.6499,-2.6499,-2.6499,-2.6499,-1.6886,-1.7903,-1.9196,-1.9685,-2.1719,-2.4054,-2.5833,-2.6389,-2.708,-2.8913,-2.8837,-2.8449,-2.8612,-2.865,-2.87,-2.8863,-2.9415,-2.9792,-2.9792,-2.9792,-2.9792,-2.9792,-2.9792,-2.9792,-2.9792,-2.9792,-2.9792,-2.9792,-2.9792,-2.9792,-2.9792,-2.9792,-2.9792,-2.9792,-2.9792,-2.9792,-2.9792,-2.9792,-2.9792,-2.9792,-2.9792,-2.9792,-2.9792,-2.9792,-2.9792,-2.9792,-2.9792,-2.9792,-2.9792,-2.9792,-2.9792,-2.9792,-2.9792,-2.9792,-2.9792,-2.9792,-2.9792,-2.9792,-2.9792,-2.9792,-2.9792,-2.9792,-2.9792,-2.9792,-2.9792,-2.9792,-2.9792,-2.9792,-2.9792,-2.9792,-2.9792,-2.9792,-2.9792,-2.9792,-2.9792,-2.9792,-2.9792,-2.9792,-2.9792,-2.9792,-2.9792,-2.9792,-2.9792,-2.9792,-2.9792,-2.9792,-2.9792,-2.9792,-2.9792,-2.9792,-2.9729,-2.9553,-2.9026,-2.865,-2.865,-2.8335,-2.8109,-2.8109,-2.7946,-2.7607,-2.709,-2.67,-2.6499,-2.6499,-2.6499,-2.6499,-2.6499,-2.6499,-2.6688,-2.7065,-2.7065,-2.7243,-1.7677,-1.8643,-1.9735,-2.0853,-2.2824,-2.5008,-2.6992,-2.7871,-2.8574,-2.9578,-2.934,-2.8963,-2.9189,-2.9051,-2.8963,-2.9239,-2.9566,-2.9792,-2.9792,-2.9792,-2.9792,-2.9792,-2.9792,-2.9792,-2.9792,-2.9792,-2.9792,-2.9792,-2.9792,-2.9792,-2.9792,-2.9792,-2.9792,-2.9792,-2.9792,-2.9792,-2.9792,-2.9792,-2.9792,-2.9792,-2.9792,-2.9792,-2.9792,-2.9792,-2.9792,-2.9792,-2.9792,-2.9792,-2.9792,-2.9792,-2.9792,-2.9792,-2.9792,-2.9792,-2.9792,-2.9792,-2.9792,-2.9792,-2.9792,-2.9792,-2.9792,-2.9792,-2.9792,-2.9792,-2.9792,-2.9792,-2.9792,-2.9792,-2.9792,-2.9792,-2.9792,-2.9792,-2.9792,-2.9792,-2.9792,-2.9792,-2.9792,-2.9792,-2.9792,-2.9792,-2.9792,-2.9792,-2.9792,-2.9792,-2.9792,-2.9792,-2.9792,-2.9792,-2.9792,-2.9792,-2.9792,-2.9792,-2.9478,-2.9277,-2.9277,-2.8963,-2.8775,-2.8775,-2.8561,-2.8285,-2.7946,-2.7406,-2.7153,-2.7153,-2.7153,-2.7153,-2.7153,-2.7153,-2.7281,-2.7607,-2.7607,-2.7986,-1.9095,-1.9396,-1.9785,-2.2443,-2.3722,-2.5184,-2.8298,-2.9415,-2.9792,-2.9792,-2.9377,-2.9126,-2.9691,-2.9365,-2.9176,-2.9704,-2.9792,-2.9792,-2.9792,-2.9792,-2.9792,-2.9792,-2.9792,-2.9792,-2.9792,-2.9792,-2.9792,-2.9792,-2.9792,-2.9792,-2.9792,-2.9792,-2.9792,-2.9792,-2.9792,-2.9792,-2.9792,-2.9792,-2.9792,-2.9792,-2.9792,-2.9792,-2.9792,-2.9792,-2.9792,-2.9792,-2.9792,-2.9792,-2.9792,-2.9792,-2.9792,-2.9792,-2.9792,-2.9792,-2.9792,-2.9792,-2.9792,-2.9792,-2.9792,-2.9792,-2.9792,-2.9792,-2.9792,-2.9792,-2.9792,-2.9792,-2.9792,-2.9792,-2.9792,-2.9792,-2.9792,-2.9792,-2.9792,-2.9792,-2.9792,-2.9792,-2.9792,-2.9792,-2.9792,-2.9792,-2.9792,-2.9792,-2.9792,-2.9792,-2.9792,-2.9792,-2.9792,-2.9792,-2.9792,-2.9792,-2.9792,-2.9792,-2.9792,-2.9792,-2.9792,-2.9792,-2.9792,-2.9792,-2.9302,-2.8963,-2.8963,-2.8423,-2.8109,-2.8109,-2.8109,-2.8109,-2.8109,-2.8109,-2.8134,-2.8185,-2.8282,-2.879,-1.8304,-1.9409,-2.0765,-2.2631,-2.5197,-2.7645,-2.9239,-2.9704,-2.9792,-2.9792,-2.9691,-2.9641,-2.9767,-2.9691,-2.9641,-2.9779,-2.9792,-2.9792,-2.9792,-2.9792,-2.9792,-2.9792,-2.9792,-2.9792,-2.9792,-2.9792,-2.9792,-2.9792,-2.9792,-2.9792,-2.9792,-2.9792,-2.9792,-2.9792,-2.9792,-2.9792,-2.9792,-2.9792,-2.9792,-2.9792,-2.9792,-2.9792,-2.9792,-2.9792,-2.9792,-2.9792,-2.9792,-2.9792,-2.9792,-2.9792,-2.9792,-2.9792,-2.9792,-2.9792,-2.9792,-2.9792,-2.9792,-2.9792,-2.9792,-2.9792,-2.9792,-2.9792,-2.9792,-2.9792,-2.9792,-2.9792,-2.9792,-2.9792,-2.9792,-2.9792,-2.9792,-2.9792,-2.9792,-2.9792,-2.9792,-2.9792,-2.9792,-2.9792,-2.9792,-2.9792,-2.9792,-2.9792,-2.9792,-2.9792,-2.9792,-2.9792,-2.9792,-2.9792,-2.9792,-2.9792,-2.9792,-2.9792,-2.9792,-2.9792,-2.9792,-2.9792,-2.9792,-2.9792,-2.9679,-2.9603,-2.9603,-2.8649,-2.8109,-2.8109,-2.8109,-2.8109,-2.8109,-2.8109,-2.8335,-2.875,-2.9538,-3.022,-1.8455,-1.9824,-2.1345,-2.4042,-2.6427,-2.8335,-2.9189,-2.9591,-2.9792,-2.9792,-2.9792,-2.9792,-2.9792,-2.9792,-2.9792,-2.9792,-2.9792,-2.9792,-2.9792,-2.9792,-2.9792,-2.9792,-2.9792,-2.9792,-2.9792,-2.9792,-2.9792,-2.9792,-2.9792,-2.9792,-2.9792,-2.9792,-2.9792,-2.9792,-2.9792,-2.9792,-2.9792,-2.9792,-2.9792,-2.9792,-2.9792,-2.9792,-2.9792,-2.9792,-2.9792,-2.9792,-2.9792,-2.9792,-2.9792,-2.9792,-2.9792,-2.9792,-2.9792,-2.9792,-2.9792,-2.9792,-2.9792,-2.9792,-2.9792,-2.9792,-2.9792,-2.9792,-2.9792,-2.9792,-2.9792,-2.9792,-2.9792,-2.9792,-2.9792,-2.9792,-2.9792,-2.9792,-2.9792,-2.9792,-2.9792,-2.9792,-2.9792,-2.9792,-2.9792,-2.9792,-2.9792,-2.9792,-2.9792,-2.9792,-2.9792,-2.9792,-2.9792,-2.9792,-2.9792,-2.9792,-2.9792,-2.9792,-2.9792,-2.9792,-2.9792,-2.9792,-2.9792,-2.9792,-2.9792,-2.9792,-2.9792,-2.9227,-2.8913,-2.8913,-2.8913,-2.8913,-2.8913,-2.8913,-2.9302,-3.0031,-3.0537,-3.1401,-1.8468,-2.0075,-2.1873,-2.5569,-2.7253,-2.8134,-2.875,-2.9302,-2.9666,-2.9779,-2.9792,-2.9792,-2.9792,-2.9792,-2.9792,-2.9792,-2.9792,-2.9792,-2.9792,-2.9792,-2.9792,-2.9792,-2.9792,-2.9792,-2.9792,-2.9792,-2.9792,-2.9792,-2.9792,-2.9741,-2.9641,-2.9641,-2.9591,-2.9503,-2.9591,-2.9641,-2.9641,-2.9741,-2.9792,-2.9792,-2.9792,-2.9792,-2.9792,-2.9792,-2.9792,-2.9792,-2.9792,-2.9792,-2.9792,-2.9792,-2.9792,-2.9792,-2.9792,-2.9792,-2.9792,-2.9792,-2.9792,-2.9792,-2.9792,-2.9792,-2.9792,-2.9792,-2.9792,-2.9792,-2.9792,-2.9792,-2.9792,-2.9792,-2.9792,-2.9792,-2.9792,-2.9792,-2.9792,-2.9792,-2.9792,-2.9792,-2.9792,-2.9792,-2.9792,-2.9792,-2.9792,-2.9792,-2.9792,-2.9792,-2.9792,-2.9792,-2.9792,-2.9792,-2.9792,-2.9792,-2.9792,-2.9792,-2.9792,-2.9792,-2.9792,-2.9792,-2.9792,-2.9792,-2.9792,-2.9792,-2.9792,-2.9792,-2.9792,-2.9792,-2.9792,-2.9792,-2.9792,-2.9792,-3.0216,-3.097,-3.1278,-3.2285,-1.671,-1.9472,-2.2799,-2.5757,-2.6964,-2.7657,-2.865,-2.895,-2.9189,-2.9691,-2.9792,-2.9792,-2.9792,-2.9792,-2.9792,-2.9792,-2.9792,-2.9792,-2.9792,-2.9792,-2.9792,-2.9792,-2.9792,-2.9792,-2.9792,-2.9792,-2.9792,-2.9792,-2.9792,-2.9578,-2.9026,-2.9001,-2.8825,-2.8348,-2.88,-2.9001,-2.9001,-2.9541,-2.9792,-2.9792,-2.9792,-2.9792,-2.9792,-2.9792,-2.9792,-2.9792,-2.9792,-2.9792,-2.9792,-2.9792,-2.9792,-2.9792,-2.9792,-2.9792,-2.9792,-2.9792,-2.9792,-2.9792,-2.9792,-2.9792,-2.9792,-2.9792,-2.9792,-2.9792,-2.9792,-2.9792,-2.9792,-2.9792,-2.9792,-2.9792,-2.9792,-2.9792,-2.9792,-2.9792,-2.9792,-2.9792,-2.9792,-2.9792,-2.9792,-2.9792,-2.9792,-2.9792,-2.9792,-2.9792,-2.9792,-2.9792,-2.9792,-2.9792,-2.9792,-2.9792,-2.9792,-2.9792,-2.9792,-2.9792,-2.9792,-2.9792,-2.9792,-2.9792,-2.9792,-2.9792,-2.9792,-2.9792,-2.9792,-2.9792,-2.9792,-2.9792,-2.9792,-2.9792,-2.9856,-3.0037,-3.1659,-3.2558,-1.7702,-2.0062,-2.251,-2.5285,-2.6436,-2.7065,-2.7821,-2.8247,-2.8624,-2.9189,-2.9315,-2.9402,-2.9729,-2.9792,-2.9792,-2.9792,-2.9792,-2.9792,-2.9792,-2.9792,-2.9792,-2.9792,-2.9792,-2.9666,-2.934,-2.9315,-2.9176,-2.8875,-2.885,-2.8737,-2.8486,-2.8461,-2.8348,-2.8109,-2.8348,-2.8461,-2.8461,-2.8712,-2.9001,-2.9315,-2.9641,-2.9792,-2.9792,-2.9792,-2.9792,-2.9792,-2.9792,-2.9792,-2.9792,-2.9792,-2.9792,-2.9792,-2.9792,-2.9792,-2.9792,-2.9792,-2.9792,-2.9792,-2.9792,-2.9792,-2.9792,-2.9792,-2.9792,-2.9792,-2.9792,-2.9792,-2.9792,-2.9792,-2.9792,-2.9792,-2.9792,-2.9792,-2.9792,-2.9792,-2.9792,-2.9792,-2.9792,-2.9792,-2.9792,-2.9792,-2.9792,-2.9792,-2.9792,-2.9792,-2.9792,-2.9792,-2.9792,-2.9792,-2.9792,-2.9792,-2.9792,-2.9792,-2.9792,-2.9792,-2.9792,-2.9792,-2.9792,-2.9792,-2.9792,-2.9792,-2.9792,-2.9792,-2.9792,-2.9792,-2.9792,-2.9792,-2.9792,-2.9792,-3.0075,-3.0582,-3.1426,-3.2105,-1.8216,-1.9798,-2.1131,-2.3866,-2.5084,-2.5871,-2.6666,-2.7293,-2.7883,-2.8574,-2.8687,-2.8813,-2.9277,-2.9478,-2.9616,-2.9767,-2.9666,-2.9628,-2.9779,-2.9666,-2.9578,-2.9578,-2.9453,-2.9202,-2.8725,-2.8687,-2.8512,-2.8134,-2.8109,-2.8047,-2.7896,-2.7896,-2.7833,-2.7695,-2.7821,-2.7896,-2.7896,-2.8034,-2.8386,-2.89,-2.9365,-2.9654,-2.9792,-2.9792,-2.9792,-2.9792,-2.9792,-2.9792,-2.9792,-2.9792,-2.9792,-2.9792,-2.9792,-2.9792,-2.9792,-2.9792,-2.9792,-2.9792,-2.9792,-2.9792,-2.9792,-2.9792,-2.9792,-2.9792,-2.9792,-2.9792,-2.9792,-2.9792,-2.9792,-2.9792,-2.9792,-2.9792,-2.9792,-2.9792,-2.9792,-2.9792,-2.9792,-2.9792,-2.9792,-2.9792,-2.9792,-2.9792,-2.9792,-2.9792,-2.9792,-2.9792,-2.9792,-2.9792,-2.9792,-2.9792,-2.9792,-2.9792,-2.9792,-2.9792,-2.9792,-2.9792,-2.9792,-2.9792,-2.9792,-2.9792,-2.9792,-2.9792,-2.9792,-2.9792,-2.9792,-2.9792,-2.9792,-2.9792,-3.0177,-3.0833,-3.1068,-3.1573,-1.6735,-1.7574,-1.8278,-2.1043,-2.251,-2.3697,-2.5322,-2.616,-2.6889,-2.7921,-2.8147,-2.816,-2.8185,-2.8612,-2.9113,-2.9704,-2.934,-2.9164,-2.9716,-2.9315,-2.8938,-2.8938,-2.8511,-2.8185,-2.8147,-2.8147,-2.8134,-2.8109,-2.8109,-2.7871,-2.7356,-2.7318,-2.7115,-2.66,-2.709,-2.7318,-2.7318,-2.7846,-2.8386,-2.8888,-2.8925,-2.9264,-2.9792,-2.9792,-2.9792,-2.9792,-2.9792,-2.9792,-2.9792,-2.9792,-2.9792,-2.9792,-2.9792,-2.9792,-2.9792,-2.9792,-2.9792,-2.9792,-2.9792,-2.9792,-2.9792,-2.9792,-2.9792,-2.9792,-2.9792,-2.9792,-2.9792,-2.9792,-2.9792,-2.9792,-2.9792,-2.9792,-2.9792,-2.9792,-2.9792,-2.9792,-2.9792,-2.9792,-2.9792,-2.9792,-2.9792,-2.9792,-2.9792,-2.9792,-2.9792,-2.9792,-2.9792,-2.9792,-2.9792,-2.9792,-2.9792,-2.9792,-2.9792,-2.9792,-2.9792,-2.9792,-2.9792,-2.9792,-2.9792,-2.9792,-2.9792,-2.9792,-2.9792,-2.9792,-2.9792,-2.9792,-2.9792,-2.9792,-2.983,-2.9895,-3.0796,-3.1217,-1.5932,-1.7087,-1.8317,-1.9987,-2.1518,-2.2819,-2.3772,-2.4996,-2.6126,-2.6927,-2.7331,-2.7682,-2.8047,-2.8273,-2.8473,-2.8674,-2.8536,-2.8473,-2.8674,-2.8536,-2.8398,-2.8398,-2.8235,-2.7959,-2.7607,-2.7582,-2.7431,-2.7115,-2.709,-2.7002,-2.6801,-2.6788,-2.67,-2.6499,-2.6688,-2.6788,-2.6788,-2.7341,-2.7858,-2.8398,-2.8725,-2.9239,-2.9792,-2.9792,-2.9792,-2.9792,-2.9792,-2.9792,-2.9792,-2.9792,-2.9792,-2.9792,-2.9792,-2.9792,-2.9792,-2.9792,-2.9792,-2.9792,-2.9792,-2.9792,-2.9792,-2.9792,-2.9792,-2.9792,-2.9792,-2.9792,-2.9792,-2.9792,-2.9792,-2.9792,-2.9792,-2.9792,-2.988,-3.0231,-3.0583,-3.0821,-3.0821,-3.0281,-2.9792,-2.9792,-2.9792,-2.9792,-2.9792,-2.9792,-2.9792,-2.9792,-2.9792,-2.9792,-2.9792,-2.9792,-2.9792,-2.9792,-2.9792,-2.9792,-2.9792,-2.9792,-2.9792,-2.9792,-2.9792,-2.9792,-2.9792,-2.9792,-2.9792,-2.9792,-2.9792,-2.9792,-2.9792,-2.9792,-2.9792,-2.9792,-3.0139,-3.0317,-1.506,-1.6116,-1.7438,-1.8907,-1.9962,-2.1041,-2.2493,-2.3703,-2.477,-2.5711,-2.6339,-2.6892,-2.7457,-2.7557,-2.767,-2.8047,-2.7946,-2.7896,-2.8084,-2.7946,-2.7821,-2.7821,-2.767,-2.7406,-2.7077,-2.704,-2.6889,-2.6524,-2.6499,-2.6499,-2.6499,-2.6499,-2.6499,-2.6499,-2.6499,-2.6499,-2.6499,-2.6851,-2.7281,-2.7833,-2.8386,-2.895,-2.9503,-2.9704,-2.9792,-2.9792,-2.9792,-2.9792,-2.9792,-2.9792,-2.9792,-2.9792,-2.9792,-2.9792,-2.9792,-2.9792,-2.9792,-2.9792,-2.9792,-2.9792,-2.9792,-2.9792,-2.9792,-2.9792,-2.9792,-2.9792,-2.9792,-2.9792,-2.993,-3.0068,-3.0068,-3.0193,-3.0419,-3.0783,-3.1135,-3.1386,-3.1386,-3.0834,-3.0331,-3.0331,-3.0331,-3.0331,-3.0331,-3.0331,-3.0331,-3.0331,-3.0331,-3.0331,-3.0331,-3.0331,-3.0331,-3.0331,-3.0331,-3.0331,-3.0331,-3.0331,-3.0256,-3.008,-3.0068,-2.998,-2.9804,-2.9792,-2.9792,-2.9792,-2.9792,-2.9792,-2.9792,-2.9792,-2.9792,-2.9792,-2.9792,-2.9792,0.0,0.0,0.0,-1.7576,-1.7727,-1.8204,-2.143,-2.2196,-2.2711,-2.4374,-2.5159,-2.5711,-2.6336,-2.6461,-2.6826,-2.7858,-2.7595,-2.7444,-2.7984,-2.7595,-2.7291,-2.7291,-2.6826,-2.6499,-2.6499,-2.6499,-2.6499,-2.6499,-2.6499,-2.6499,-2.6499,-2.6499,-2.6499,-2.6499,-2.6499,-2.6499,-2.6499,-2.6499,-2.6776,-2.7329,-2.7846,-2.8398,-2.8913,-2.9528,-2.9792,-2.9792,-2.9792,-2.9792,-2.9792,-2.9792,-2.9792,-2.9792,-2.9792,-2.9792,-2.9792,-2.9792,-2.9792,-2.9792,-2.9792,-2.9792,-2.9792,-2.9792,-2.9792,-2.9792,-2.9792,-2.9792,-2.9792,-2.9817,-3.0206,-3.062,-3.0633,-3.1022,-3.1411,-3.1411,-3.1424,-3.1436,-3.1436,-3.1436,-3.1436,-3.1399,-3.1386,-3.1386,-3.1386,-3.1386,-3.1386,-3.1386,-3.1386,-3.1386,-3.1386,-3.1386,-3.1386,-3.1386,-3.1386,-3.1386,-3.1386,-3.1386,-3.1173,-3.067,-3.0633,-3.0394,-2.9867,-2.9829,-2.9817,-2.9817,-2.9804,-2.9792,-2.9792,-2.9792,-2.9792,-2.9792,-2.9792,-2.9792,-1.4676,0.0,0.0,0.0,0.0,0.0,-1.8442,-1.966,-2.0978,-2.2661,-2.3409,-2.4086,-2.5096,-2.5586,-2.5937,-2.6239,-2.6549,-2.6776,-2.6927,-2.6813,-2.6725,-2.6725,-2.6587,-2.6499,-2.6499,-2.6499,-2.6499,-2.6499,-2.6499,-2.6499,-2.6499,-2.6499,-2.6499,-2.6499,-2.6499,-2.6499,-2.6499,-2.6499,-2.6776,-2.7329,-2.7846,-2.8398,-2.8913,-2.9528,-2.9792,-2.9792,-2.9792,-2.9792,-2.9792,-2.9792,-2.9792,-2.9792,-2.9792,-2.9792,-2.9792,-2.9792,-2.9792,-2.9792,-2.9792,-2.9792,-2.9792,-2.9792,-2.9792,-2.9792,-2.9792,-2.9792,-2.988,-3.0281,-3.0507,-3.0708,-3.1085,-3.1574,-3.1989,-3.1989,-3.2303,-3.2616,-3.2616,-3.2616,-3.2365,-3.1549,-3.1386,-3.1386,-3.1386,-3.1386,-3.1386,-3.1386,-3.1386,-3.1386,-3.1386,-3.1386,-3.1386,-3.1386,-3.1386,-3.1386,-3.1386,-3.1386,-3.1336,-3.1185,-3.1173,-3.111,-3.0947,-3.0583,-3.0382,-3.0382,-2.9993,-2.9792,-2.9792,-2.9792,-2.9792,-2.9792,-2.9792,-2.9792,-1.5009,-1.5299,-1.5731,-1.5902,0.0,0.0,-1.7727,-1.8442,-1.9334,-2.123,-2.2071,-2.2757,-2.3885,-2.4556,-2.4933,-2.4933,-2.541,-2.5971,-2.6436,-2.6499,-2.6499,-2.6499,-2.6499,-2.6499,-2.6499,-2.6499,-2.6499,-2.6499,-2.6499,-2.6499,-2.6499,-2.6499,-2.6499,-2.6499,-2.6499,-2.6499,-2.6499,-2.6499,-2.6663,-2.6977,-2.7494,-2.8047,-2.8612,-2.9176,-2.9566,-2.9792,-2.9792,-2.9792,-2.9792,-2.9792,-2.9792,-2.9792,-2.9792,-2.9792,-2.9792,-2.9792,-2.9792,-2.9792,-2.9792,-2.9792,-2.9792,-2.9792,-2.9792,-2.9792,-2.9792,-2.9955,-3.0206,-3.052,-3.0934,-3.1411,-3.1951,-3.2328,-3.2579,-3.2579,-3.283,-3.3124,-3.3124,-3.3124,-3.288,-3.2227,-3.2089,-3.2089,-3.2089,-3.2089,-3.2089,-3.2089,-3.2089,-3.2089,-3.2089,-3.2089,-3.2089,-3.2089,-3.2089,-3.2089,-3.2089,-3.2089,-3.1989,-3.175,-3.1738,-3.1625,-3.1399,-3.1097,-3.0934,-3.0934,-3.0407,-3.0018,-2.9792,-2.9792,-2.9792,-2.9792,-2.9792,-2.9792,-1.5512,-1.5575,-1.6107,-1.7049,-1.6229,0.0,-1.8105,-1.799,-1.7976,-2.0,-2.0805,-2.1455,-2.2531,-2.3238,-2.3627,-2.3627,-2.4192,-2.5021,-2.616,-2.6311,-2.6311,-2.6311,-2.6361,-2.6399,-2.6399,-2.6461,-2.6499,-2.6499,-2.6499,-2.6499,-2.6499,-2.6499,-2.6499,-2.6499,-2.6499,-2.6499,-2.6499,-2.6499,-2.6499,-2.6499,-2.7052,-2.757,-2.8122,-2.8674,-2.9252,-2.9792,-2.9792,-2.9792,-2.9792,-2.9792,-2.9792,-2.9792,-2.9792,-2.9792,-2.9792,-2.9792,-2.9792,-2.9792,-2.9792,-2.9792,-2.9792,-2.9792,-2.9792,-2.9804,-2.9867,-3.0231,-3.0633,-3.0758,-3.1524,-3.2428,-3.2943,-3.3124,-3.3124,-3.3124,-3.3124,-3.3124,-3.3124,-3.3124,-3.3124,-3.3124,-3.3124,-3.3124,-3.3124,-3.3124,-3.3124,-3.3124,-3.3124,-3.3124,-3.3124,-3.3124,-3.3124,-3.3124,-3.3124,-3.3124,-3.3124,-3.3124,-3.2855,-3.234,-3.2303,-3.2089,-3.1599,-3.1512,-3.1486,-3.1486,-3.0909,-3.0382,-2.988,-2.9829,-2.9792,-2.9792,-2.9792,-2.9792,-1.7488,-1.7313,-1.7021,-1.6748,-1.6785,0.0,-1.6434,-1.6886,-1.7626,-1.8505,-1.8769,-1.9171,-2.025,-2.0928,-2.1345,-2.1345,-2.2523,-2.3822,-2.4983,-2.5146,-2.5146,-2.5146,-2.5511,-2.5774,-2.5774,-2.6223,-2.6499,-2.6499,-2.6499,-2.6499,-2.6499,-2.6499,-2.6499,-2.6499,-2.6499,-2.6499,-2.6499,-2.6499,-2.6499,-2.6499,-2.7052,-2.757,-2.8122,-2.8674,-2.9252,-2.9792,-2.9792,-2.9792,-2.9792,-2.9792,-2.9792,-2.9792,-2.9792,-2.9792,-2.9792,-2.9792,-2.9792,-2.9792,-2.9792,-2.9792,-2.9792,-2.9792,-2.9792,-2.988,-3.0319,-3.0532,-3.0796,-3.1662,-3.239,-3.293,-3.3056,-3.3124,-3.3124,-3.3124,-3.3124,-3.3124,-3.3124,-3.3124,-3.3124,-3.3124,-3.3124,-3.3124,-3.3124,-3.3124,-3.3124,-3.3124,-3.3124,-3.3124,-3.3124,-3.3124,-3.3124,-3.3124,-3.3124,-3.3124,-3.3124,-3.3124,-3.3074,-3.2918,-3.2905,-3.2867,-3.2754,-3.2303,-3.2051,-3.2051,-3.111,-3.057,-3.0457,-3.0005,-2.9792,-2.9792,-2.9792,-2.9792,-1.8279,-1.8003,-1.779,-1.7754,-1.7111,0.0,0.0,-1.6516,-1.6495,-1.7908,-1.7752,-1.7777,-1.9133,-1.9422,-1.9635,-2.015,-2.1179,-2.2096,-2.2661,-2.3954,-2.4788,-2.4788,-2.5059,-2.5209,-2.5209,-2.5473,-2.5749,-2.6047,-2.6059,-2.6185,-2.6474,-2.6499,-2.6499,-2.6499,-2.6499,-2.6499,-2.6499,-2.6499,-2.6499,-2.6499,-2.6776,-2.7306,-2.8109,-2.8398,-2.8988,-2.9792,-2.9792,-2.9792,-2.9792,-2.9792,-2.9792,-2.9792,-2.9792,-2.9792,-2.9792,-2.9792,-2.9792,-2.9792,-2.9792,-2.9792,-2.9792,-2.9792,-2.9792,-2.9892,-3.0457,-3.0984,-3.1587,-3.2403,-3.2855,-3.3124,-3.3124,-3.3124,-3.3124,-3.3124,-3.3124,-3.3124,-3.3124,-3.3124,-3.3124,-3.3124,-3.3124,-3.3124,-3.3124,-3.3124,-3.3124,-3.3124,-3.3124,-3.3124,-3.3124,-3.3124,-3.3124,-3.3124,-3.3124,-3.3124,-3.3124,-3.3124,-3.3124,-3.3124,-3.3124,-3.3124,-3.3124,-3.2805,-3.2503,-3.2227,-3.1687,-3.1273,-3.0997,-3.0721,-3.0319,-2.9792,-2.9792,-2.9792,-1.9108,-1.892,-1.8995,-1.8995,-1.7859,-1.6949,0.0,0.0,0.0,-1.7547,-1.7127,-1.6914,-1.8268,-1.8155,-1.8166,-1.9032,-1.9774,-2.0214,-2.0214,-2.2309,-2.3853,-2.3853,-2.4111,-2.4311,-2.4311,-2.4399,-2.4725,-2.5398,-2.5247,-2.546,-2.6285,-2.6336,-2.6386,-2.6499,-2.6499,-2.6499,-2.6499,-2.6499,-2.6499,-2.6499,-2.6499,-2.7065,-2.8109,-2.8109,-2.8725,-2.9792,-2.9792,-2.9792,-2.9792,-2.9792,-2.9792,-2.9792,-2.9792,-2.9792,-2.9792,-2.9792,-2.9792,-2.9792,-2.9792,-2.9792,-2.9792,-2.9792,-2.993,-3.0206,-3.0758,-3.1599,-3.2478,-3.2943,-3.3124,-3.3124,-3.3124,-3.3124,-3.3124,-3.3124,-3.3124,-3.3124,-3.3124,-3.3124,-3.3124,-3.3124,-3.3124,-3.3124,-3.3124,-3.3124,-3.3124,-3.3124,-3.3124,-3.3124,-3.3124,-3.3124,-3.3124,-3.3124,-3.3124,-3.3124,-3.3124,-3.3124,-3.3124,-3.3124,-3.3124,-3.3124,-3.3124,-3.3124,-3.2855,-3.239,-3.2277,-3.1989,-3.1549,-3.1436,-3.0896,-2.9942,-2.9942,-2.9892,-2.128,-2.1468,-2.1365,-1.9472,-1.9922,-2.0096,-1.7328,0.0,-1.7597,-1.6851,0.0,-1.655,-1.6751,0.0,0.0,-1.6851,-1.779,-1.848,-1.848,-1.9572,-2.0376,-2.0376,-2.1694,-2.2569,-2.2569,-2.3007,-2.3735,-2.48,-2.3948,-2.4048,-2.5611,-2.5686,-2.5971,-2.6474,-2.6499,-2.6499,-2.6499,-2.6499,-2.6499,-2.6499,-2.6499,-2.7065,-2.8109,-2.8109,-2.8725,-2.9792,-2.9792,-2.9792,-2.9792,-2.9792,-2.9792,-2.9792,-2.9792,-2.9792,-2.9792,-2.9792,-2.9792,-2.9792,-2.9792,-2.9792,-2.9792,-2.9792,-3.0432,-3.1311,-3.1863,-3.2478,-3.2993,-3.3056,-3.3124,-3.3124,-3.3124,-3.3124,-3.3124,-3.3124,-3.3124,-3.3124,-3.3124,-3.3124,-3.3124,-3.3124,-3.3124,-3.3124,-3.3124,-3.3124,-3.3124,-3.3124,-3.3124,-3.3124,-3.3124,-3.3124,-3.3124,-3.3124,-3.3124,-3.3124,-3.3124,-3.3124,-3.3124,-3.3124,-3.3124,-3.3124,-3.3124,-3.3124,-3.3086,-3.298,-3.2466,-3.2177,-3.2127,-3.1625,-3.1085,-3.052,-3.052,-3.0256,-2.1644,-2.1895,-2.1933,-2.0363,-2.0,-1.9556,-1.7859,-1.7053,-1.6745,-1.697,0.0,0.0,0.0,0.0,0.0,0.0,-1.7413,-1.7601,-1.7275,-1.7903,-1.8744,-1.9698,-2.0426,-2.0991,-2.1358,-2.1568,-2.2171,-2.3288,-2.2895,-2.3221,-2.4594,-2.5259,-2.5711,-2.5984,-2.6323,-2.6499,-2.6499,-2.6499,-2.6499,-2.6499,-2.6499,-2.7065,-2.8109,-2.8109,-2.8725,-2.9792,-2.9792,-2.9792,-2.9792,-2.9792,-2.9792,-2.9792,-2.9792,-2.9792,-2.9792,-2.9792,-2.9792,-2.9792,-2.9792,-2.9792,-2.9842,-3.0168,-3.0783,-3.1499,-3.2051,-3.2616,-3.3124,-3.3124,-3.3124,-3.3124,-3.3124,-3.3124,-3.3124,-3.3124,-3.3124,-3.3124,-3.3124,-3.3124,-3.3124,-3.3124,-3.3124,-3.3124,-3.3124,-3.3124,-3.3124,-3.3124,-3.3124,-3.3124,-3.3124,-3.3124,-3.3124,-3.3124,-3.3124,-3.3124,-3.3124,-3.3124,-3.3124,-3.3124,-3.3124,-3.3124,-3.3124,-3.3124,-3.3124,-3.3124,-3.283,-3.2717,-3.2717,-3.2478,-3.2089,-3.1537,-3.121,-3.0934,-2.2359,-2.2585,-2.2585,-2.088,-1.9934,-1.9108,-1.7997,-1.7119,-1.6703,-1.7282,-1.7087,0.0,0.0,0.0,0.0,0.0,0.0,-1.6925,-1.6346,-1.6495,-1.7169,-1.8506,-1.9083,-1.9585,-2.0189,-2.0101,-2.0541,-2.1769,-2.1581,-2.2096,-2.3678,-2.4494,-2.5134,-2.5586,-2.6034,-2.6336,-2.6499,-2.6499,-2.6499,-2.6499,-2.6499,-2.7065,-2.8109,-2.8109,-2.8725,-2.9792,-2.9792,-2.9792,-2.9792,-2.9792,-2.9792,-2.9792,-2.9792,-2.9792,-2.9792,-2.9792,-2.9792,-2.9792,-2.9792,-2.9892,-3.0105,-3.0645,-3.1185,-3.1725,-3.2277,-3.2742,-3.3124,-3.3124,-3.3124,-3.3124,-3.3124,-3.3124,-3.3124,-3.3124,-3.3124,-3.3124,-3.3124,-3.3124,-3.3124,-3.3124,-3.3124,-3.3124,-3.3124,-3.3124,-3.3124,-3.3124,-3.3124,-3.3124,-3.3124,-3.3124,-3.3124,-3.3124,-3.3124,-3.3124,-3.3124,-3.3124,-3.3124,-3.3124,-3.3124,-3.3124,-3.3124,-3.3124,-3.3124,-3.3124,-3.3124,-3.3124,-3.3124,-3.3124,-3.2855,-3.2441,-3.1876,-3.1537,-2.4205,-2.4318,-2.3923,-2.0652,-2.0238,-1.9924,-1.7165,-1.7756,-1.8607,-1.7601,-1.8606,0.0,0.0,0.0,0.0,0.0,0.0,0.0,0.0,-1.5195,-1.5112,-1.5757,-1.7262,-1.8468,-1.9008,-1.8569,-1.8957,-2.0629,-1.9736,-2.0287,-2.2982,-2.3158,-2.391,-2.5548,-2.5611,-2.5921,-2.6487,-2.6499,-2.6499,-2.6499,-2.6499,-2.7065,-2.8109,-2.8109,-2.8725,-2.9792,-2.9792,-2.9792,-2.9792,-2.9792,-2.9792,-2.9792,-2.9792,-2.9792,-2.9792,-2.9792,-2.9792,-2.9792,-2.9792,-3.0143,-3.067,-3.1198,-3.1738,-3.229,-3.2867,-3.3056,-3.3124,-3.3124,-3.3124,-3.3124,-3.3124,-3.3124,-3.3124,-3.3124,-3.3124,-3.3124,-3.3124,-3.3124,-3.3124,-3.3124,-3.3124,-3.3124,-3.3124,-3.3124,-3.3124,-3.3124,-3.3124,-3.3124,-3.3124,-3.3124,-3.3124,-3.3124,-3.3124,-3.3124,-3.3124,-3.3124,-3.3124,-3.3124,-3.3124,-3.3124,-3.3124,-3.3124,-3.3124,-3.3124,-3.3124,-3.3124,-3.3124,-3.3124,-3.3111,-3.3074,-3.2453,-3.1901,-2.4644,-2.4933,-2.4707,-2.2108,-2.133,-2.0616,-1.8179,-1.8331,-1.8694,-1.7614,-1.8668,-1.9307,0.0,0.0,0.0,0.0,0.0,0.0,0.0,0.0,-1.4144,-1.5064,-1.6296,-1.714,-1.7328,-1.7539,-1.8041,-1.897,-1.9032,-1.9748,-2.1405,-2.2506,-2.3534,-2.4506,-2.5222,-2.5908,-2.6487,-2.6499,-2.6499,-2.6499,-2.6499,-2.7065,-2.8109,-2.8109,-2.8725,-2.9792,-2.9792,-2.9792,-2.9792,-2.9792,-2.9792,-2.9792,-2.9792,-2.9792,-2.9792,-2.9792,-2.9792,-2.9792,-2.9792,-3.0156,-3.0708,-3.1223,-3.1763,-3.2328,-3.2905,-3.3124,-3.3124,-3.3124,-3.3124,-3.3124,-3.3124,-3.3124,-3.3124,-3.3124,-3.3124,-3.3124,-3.3124,-3.337,-3.3621,-3.3621,-3.3922,-3.4161,-3.4161,-3.4161,-3.3922,-3.3224,-3.3124,-3.3124,-3.3124,-3.3124,-3.3124,-3.3124,-3.3124,-3.3124,-3.3124,-3.3124,-3.3124,-3.3124,-3.3124,-3.3124,-3.3124,-3.3124,-3.3124,-3.3124,-3.3124,-3.3124,-3.3124,-3.3124,-3.3124,-3.3111,-3.288,-3.2679,-2.5209,-2.5335,-2.5109,-2.307,-2.2305,-2.1493,-1.9271,-1.951,-1.986,-1.8793,-1.956,-2.0106,0.0,0.0,0.0,0.0,0.0,0.0,0.0,-1.3091,-1.3517,-1.4217,-1.5245,-1.6061,-1.6454,-1.6182,-1.652,-1.7817,-1.7936,-1.8635,-2.0275,-2.1757,-2.2987,-2.3966,-2.4858,-2.5686,-2.6487,-2.6499,-2.6499,-2.6499,-2.6499,-2.7065,-2.8109,-2.8109,-2.8725,-2.9792,-2.9792,-2.9792,-2.9792,-2.9792,-2.9792,-2.9792,-2.9792,-2.9792,-2.9792,-2.9792,-2.9792,-2.9817,-3.0018,-3.0444,-3.0972,-3.1512,-3.2064,-3.2591,-3.2968,-3.3124,-3.3124,-3.3124,-3.3124,-3.3124,-3.3124,-3.3124,-3.3174,-3.3319,-3.337,-3.342,-3.3621,-3.3935,-3.4198,-3.4198,-3.4474,-3.468,-3.468,-3.468,-3.4487,-3.3771,-3.3658,-3.3658,-3.3658,-3.3658,-3.3658,-3.3658,-3.3658,-3.3583,-3.3382,-3.337,-3.3282,-3.3093,-3.3124,-3.3124,-3.3124,-3.3124,-3.3124,-3.3124,-3.3124,-3.3124,-3.3124,-3.3124,-3.3124,-3.3124,-3.3124,-3.3124]},{"header":{"parameterUnit":"m.s-1","parameterCategory":1,"la1":30.6,"la2":29.2853,"lo1":-89.7004,"lo2":-87.6739,"dy":0.0162,"dx":0.0183,"nx":112,"ny":82,"refTime":"2026-04-14T12:00:00:Z","depth":0,"parameterNumber":3,"parameterNumberName":"V-component_of_WINDS"},"data":[0.0,0.0,0.0,0.0,0.0,0.0,0.0,0.0,0.0,0.0,0.0,0.0,0.0,0.0,0.0,0.0,0.0,0.0,0.0,0.0,0.0,0.0,0.0,0.0,0.0,0.0,0.0,0.0,0.0,0.0,0.0,0.0,0.0,0.0,0.0,0.0,0.0,0.0,0.0,0.0,0.0,0.0,0.0,0.0,0.0,0.0,0.0,0.0,0.0,0.0,0.0,0.0,0.0,0.0,0.0,0.0,0.0,0.0,0.0,0.0,0.0,0.0,0.0,0.0,0.0,0.0,0.0,0.0,0.0,0.0,0.0,0.0,0.0,0.0,0.0,0.0,0.0,0.0,0.0,0.0,0.0,0.0,0.0,0.0,0.0,0.0,0.0,0.0,0.0,0.0,0.7107,0.8057,0.9737,1.1116,1.1898,1.2054,1.1723,1.0787,0.0,0.0,0.0,0.0,0.0,0.0,0.0,0.0,0.0,0.0,0.0,0.0,0.0,0.0,0.0,0.0,0.0,0.0,0.0,0.0,0.0,0.0,0.0,0.0,0.0,0.0,0.0,0.0,0.0,0.0,0.0,0.0,0.0,0.0,0.0,0.0,0.0,0.0,0.0,0.0,0.0,0.0,0.0,0.0,0.0,0.0,0.0,0.0,0.0,0.0,0.0,0.0,0.0,0.0,0.0,0.0,0.0,0.0,0.0,0.0,0.0,0.0,0.0,0.0,0.0,0.0,0.0,0.0,0.0,0.0,0.0,0.0,0.0,0.0,0.0,0.0,0.0,0.0,0.0,0.0,0.0,0.0,0.0,0.0,0.0,0.0,0.0,0.0,0.0,0.0,0.0,0.0,0.0,0.0,0.0,0.0,0.0,0.0,0.0,0.0,0.0,0.0,0.0,0.0,0.8408,1.0867,1.0939,1.1325,1.2618,1.2083,1.1302,1.0429,0.0,0.0,0.0,0.0,0.0,0.0,0.0,0.0,0.0,0.0,0.0,0.0,0.0,0.0,0.0,0.0,0.0,0.0,0.0,0.0,0.0,0.0,0.0,0.0,0.0,0.0,0.0,0.0,0.0,0.0,0.0,0.0,0.0,0.0,0.0,0.0,0.0,0.0,0.0,0.0,0.0,0.0,0.0,0.0,0.0,0.0,0.0,0.0,0.0,0.0,0.0,0.0,0.0,0.0,0.0,0.0,0.0,0.0,0.0,0.0,0.0,0.0,0.0,0.0,0.0,0.0,0.0,0.0,0.0,0.0,0.0,0.0,0.0,0.0,0.0,0.0,0.0,0.0,0.0,0.0,0.0,0.0,0.0,0.0,0.0,0.0,0.0,0.0,0.0,0.0,0.0,0.0,0.0,0.0,0.0,0.0,0.0,0.0,0.0,0.0,0.0,0.0,0.0,0.7554,0.9036,1.153,1.1541,1.1758,1.2808,1.2093,1.1318,1.0603,0.8974,0.0,0.0,0.0,0.0,0.0,0.0,0.0,0.0,0.0,0.0,0.0,0.0,0.0,0.0,0.0,0.0,0.0,0.0,0.0,0.0,0.0,0.0,0.0,0.0,0.0,0.0,0.0,0.0,0.0,0.0,0.0,0.0,0.0,0.0,0.0,0.0,0.0,0.0,0.0,0.0,0.0,0.0,0.0,0.0,0.0,0.0,0.0,0.0,0.0,0.0,0.0,0.0,0.0,0.0,0.0,0.0,0.0,0.0,0.0,0.0,0.0,0.0,0.0,0.0,0.0,0.0,0.0,0.0,0.0,0.0,0.0,0.0,0.0,0.0,0.0,0.0,0.0,0.0,0.0,0.0,0.0,0.0,0.0,0.0,0.0,0.0,0.0,0.0,0.0,0.0,0.0,0.0,0.0,0.0,0.0,0.0,0.0,0.0,0.0,0.0,0.0,0.0,0.8815,0.9745,1.1847,1.1888,1.2104,1.2847,1.1995,1.122,1.0699,0.872,0.0,0.0,0.0,0.0,0.0,0.0,0.0,0.0,0.0,0.0,0.0,0.0,0.0,0.0,0.0,0.0,0.0,0.0,0.0,0.0,0.0,0.0,0.0,0.0,0.0,0.0,0.0,0.0,0.0,0.0,0.0,0.0,0.0,0.0,0.0,0.0,0.0,0.0,0.0,0.0,0.0,0.0,0.0,0.0,0.0,0.0,0.0,0.0,0.0,0.0,0.0,0.0,0.0,0.0,0.0,0.0,0.0,0.0,0.0,0.0,0.0,0.0,0.0,0.0,0.0,0.0,0.0,0.0,0.0,0.0,0.0,0.0,0.0,0.0,0.0,0.0,0.0,0.0,0.0,0.0,0.0,0.0,0.0,0.0,0.0,0.0,0.0,0.0,0.0,0.0,0.0,0.0,0.0,0.0,0.0,0.0,0.0,0.0,0.0,0.0,0.0,0.0,0.9771,1.0931,1.2643,1.2212,1.2104,1.2847,1.1699,1.0782,1.0361,0.8326,0.0,0.0,0.0,0.0,0.0,0.0,0.0,0.0,0.0,0.0,0.0,0.0,0.0,0.0,0.0,0.0,0.0,0.0,0.0,0.0,0.0,0.0,0.0,0.0,0.0,0.0,0.0,0.0,0.0,0.0,0.0,0.0,0.0,0.0,0.0,0.0,0.0,0.0,0.0,0.0,0.0,0.0,0.0,0.0,0.0,0.0,0.0,0.0,0.0,0.0,0.0,0.0,0.0,0.0,0.0,0.0,0.0,0.0,0.0,0.0,0.0,0.0,0.0,0.0,0.0,0.0,0.0,0.0,0.0,0.0,0.0,0.0,0.0,0.0,0.0,0.0,0.0,0.0,0.0,0.0,0.0,0.0,0.0,0.0,0.0,0.0,0.0,0.0,0.0,0.0,0.0,0.0,0.0,0.0,0.0,0.0,0.0,0.0,0.0,0.0,0.0,0.0,1.0083,1.1324,1.2754,1.2642,1.2608,1.2881,1.2218,1.1287,1.0183,0.0,0.0,0.0,0.0,0.0,0.0,0.0,0.0,0.0,0.0,0.0,0.0,0.0,0.0,0.0,0.0,0.0,0.0,0.0,0.0,0.0,0.0,0.0,0.0,0.0,0.0,0.0,0.0,0.0,0.0,0.0,0.0,0.0,0.0,0.0,0.0,0.0,0.0,0.0,0.0,0.0,0.0,0.0,0.0,0.0,0.0,0.0,0.0,0.0,0.0,0.0,0.0,0.0,0.0,0.0,0.0,0.0,0.0,0.0,0.0,0.0,0.0,0.0,0.0,0.0,0.0,0.0,0.0,0.0,0.0,0.0,0.0,0.0,0.0,0.0,0.0,0.0,0.0,0.0,0.0,0.0,0.0,0.0,0.0,0.0,0.0,0.0,0.0,0.0,0.0,0.0,0.0,0.0,0.0,0.0,0.0,0.0,0.0,0.0,0.0,0.0,0.0,0.9112,1.0637,1.1952,1.2812,1.2905,1.2905,1.2905,1.2416,1.1509,1.0087,0.0,0.0,0.0,0.0,0.0,0.0,0.0,0.0,0.0,0.0,0.0,0.0,0.0,0.0,0.0,0.0,0.0,0.0,0.0,0.0,0.0,0.0,0.0,0.0,0.0,0.0,0.0,0.0,0.0,0.0,0.0,0.0,0.0,0.0,0.0,0.0,0.0,0.0,0.0,0.0,0.0,0.0,0.0,0.0,0.0,0.0,0.0,0.0,0.0,0.0,0.0,0.0,0.0,0.0,0.0,0.0,0.0,0.0,0.0,0.0,0.0,0.0,0.0,0.0,0.0,0.0,0.0,0.0,0.0,0.0,0.0,0.0,0.0,0.0,0.0,0.0,0.0,0.0,0.0,0.0,0.0,0.0,0.0,0.0,0.0,0.0,0.0,0.0,0.0,0.0,0.0,0.0,0.0,0.0,0.0,0.0,0.0,0.0,0.0,0.0,0.0,0.0,0.9614,1.1573,1.2905,1.2905,1.2905,1.2905,1.2905,1.2173,1.1217,0.0,0.0,0.0,0.0,0.0,0.0,0.0,0.0,0.0,0.0,0.0,0.0,0.0,0.0,0.0,0.0,0.0,0.0,0.0,0.0,0.0,0.0,0.0,0.0,0.0,0.0,0.0,0.0,0.0,0.0,0.0,0.0,0.0,0.0,0.0,0.0,0.0,0.0,0.0,0.0,0.0,0.0,0.0,0.0,0.0,0.0,0.0,0.0,0.0,0.0,0.0,0.0,0.0,0.0,0.0,0.0,0.0,0.0,0.0,0.0,0.0,0.0,0.0,0.0,0.0,0.0,0.0,0.0,0.0,0.0,0.0,0.0,0.0,0.0,0.0,0.0,0.0,0.0,0.0,0.0,0.0,0.0,0.0,0.0,0.0,0.0,0.0,0.0,0.0,0.0,0.0,0.0,0.0,0.0,0.0,0.0,0.0,0.0,0.0,0.0,0.0,0.0,0.0,0.9634,1.1573,1.2905,1.2905,1.2905,1.2905,1.2905,1.2725,1.1806,0.9897,0.0,0.0,0.0,0.0,0.0,0.0,0.0,0.0,0.0,0.0,0.0,0.0,0.0,0.0,0.0,0.0,0.0,0.0,0.0,0.0,0.0,0.0,0.0,0.0,0.0,0.0,0.0,0.0,0.0,0.0,0.0,0.0,0.0,0.0,0.0,0.0,0.0,0.0,0.0,0.0,0.0,0.0,0.0,0.0,0.0,0.0,0.0,0.0,0.0,0.0,0.0,0.0,0.0,0.0,0.0,0.0,0.0,0.0,0.0,0.0,0.0,0.0,0.0,0.0,0.0,0.0,0.0,0.0,0.0,0.0,0.0,0.0,0.0,0.0,0.0,0.0,0.0,0.0,0.0,0.0,0.0,0.0,0.0,0.0,0.0,0.0,0.0,0.0,0.0,0.0,0.0,0.0,0.0,0.0,0.0,0.0,0.0,0.0,0.0,0.0,0.0,0.0,0.9848,1.1663,1.2905,1.2905,1.2905,1.2905,1.2905,1.2796,1.1948,1.0169,0.0,0.0,0.0,0.0,0.0,0.0,0.0,0.0,0.0,0.0,0.0,0.0,0.0,0.0,0.0,0.0,0.0,0.0,0.0,0.0,0.0,0.0,0.0,0.0,0.0,0.0,0.0,0.0,0.0,0.0,0.0,0.0,0.0,0.0,0.0,0.0,0.0,0.0,0.0,0.0,0.0,0.0,0.0,0.0,0.0,0.0,0.0,0.0,0.0,0.0,0.0,0.0,0.0,0.0,0.0,0.0,0.0,0.0,0.0,0.0,0.0,0.0,0.0,0.0,0.0,0.0,0.0,0.0,0.0,0.0,0.0,0.0,0.0,0.0,0.0,0.0,0.0,0.0,0.0,0.0,0.0,0.0,0.0,0.0,0.0,0.0,0.0,0.0,0.0,0.0,0.0,0.0,0.0,0.0,0.0,0.0,0.0,0.0,0.0,0.0,0.0,0.0,1.0195,1.1819,1.2905,1.2905,1.2905,1.2905,1.2905,1.2526,1.1827,1.0684,0.0,0.0,0.0,0.0,0.0,0.0,0.0,0.0,0.0,0.0,0.0,0.0,0.0,0.0,0.0,0.0,0.0,0.0,0.0,0.0,0.0,0.0,0.0,0.0,0.0,0.0,0.0,0.0,0.0,0.0,0.0,0.0,0.0,0.0,0.0,0.0,0.0,0.0,0.0,0.0,0.0,0.0,0.0,0.0,0.0,0.0,0.0,0.0,0.0,0.0,0.0,0.0,0.0,0.0,0.0,0.0,0.0,0.0,0.0,0.0,1.2402,1.1923,0.0,0.0,0.0,0.0,0.0,0.0,0.0,0.0,0.0,0.0,0.0,0.0,0.0,0.0,0.0,0.0,0.0,0.0,0.0,0.0,0.0,0.0,0.0,0.0,0.0,0.0,0.0,0.0,0.0,0.0,0.0,0.0,0.0,0.0,0.0,0.0,0.0,0.0,0.0,0.0,1.0195,1.1819,1.2905,1.2905,1.2905,1.2905,1.2905,1.2526,1.184,1.075,1.0137,0.0,0.0,0.0,0.0,0.0,0.0,0.0,0.0,0.0,0.0,0.0,0.0,0.0,0.0,0.0,0.0,0.0,0.0,0.0,0.0,0.0,0.0,0.0,0.0,0.0,0.0,0.0,0.0,0.0,0.0,0.0,0.0,0.0,0.0,0.0,0.0,0.0,0.0,0.0,0.0,0.0,0.0,0.0,0.0,0.0,0.0,0.0,0.0,0.0,0.0,0.0,0.0,0.0,0.0,0.0,0.0,0.0,0.0,0.0,1.4297,1.3521,0.0,0.0,0.0,0.0,0.0,0.0,0.0,0.0,0.0,0.0,0.0,0.0,0.0,0.0,0.0,0.0,0.0,0.0,0.0,0.0,0.0,0.0,0.0,0.0,0.0,0.0,0.0,0.0,0.0,0.0,0.0,0.0,0.0,0.0,0.0,0.0,0.0,0.0,0.0,0.0,1.0478,1.1946,1.2905,1.2905,1.2905,1.2905,1.2905,1.251,1.2001,1.1457,1.0746,0.0,0.0,0.0,0.0,0.0,0.0,0.0,0.0,0.0,0.0,0.0,0.0,0.0,0.0,0.0,0.0,0.0,0.0,0.0,0.0,0.0,0.0,0.0,0.0,0.0,0.0,0.0,0.0,0.0,0.0,0.0,0.0,0.0,0.0,0.0,0.0,0.0,0.0,0.0,0.0,0.0,0.0,0.0,0.0,0.0,0.0,0.0,0.0,0.0,0.0,0.0,0.0,0.0,1.7905,1.8125,1.8447,1.8096,1.8125,1.835,1.6572,1.5664,1.5338,1.4412,0.0,0.0,0.0,0.0,0.0,0.0,0.0,0.0,0.0,0.0,0.0,0.0,0.0,0.0,0.0,0.0,0.0,0.0,0.0,0.0,0.0,0.0,1.2545,1.2545,1.2545,1.2145,1.0712,0.0,0.0,0.0,0.0,0.0,0.0,0.0,0.0,0.0,0.0,0.0,1.0908,1.2109,1.2905,1.2905,1.2905,1.2905,1.2905,1.248,1.2155,1.2112,1.1233,1.0481,0.0,0.0,0.0,0.0,0.0,0.0,0.0,0.0,0.0,0.0,0.0,0.0,0.0,0.0,0.0,0.0,0.0,0.0,0.0,0.0,0.0,0.0,0.0,0.0,0.0,0.0,0.0,0.0,0.0,0.0,0.0,0.0,1.1989,1.2106,0.0,0.0,0.0,0.0,0.0,0.0,0.0,0.0,0.0,0.0,0.0,0.0,0.0,1.707,1.7119,1.8281,1.8952,1.9043,1.9822,2.0214,2.0263,2.0204,2.0214,2.0253,1.9969,0.0,1.7769,1.6712,0.0,0.0,0.0,0.0,0.0,0.0,0.0,0.0,0.0,0.0,0.0,0.0,0.0,0.0,0.0,0.0,0.0,0.0,0.0,0.0,0.0,0.0,1.3851,1.3851,1.3851,1.3792,1.3568,1.1453,0.9544,0.9378,0.8789,0.8258,0.0,0.0,0.0,0.0,0.0,0.0,1.141,1.2318,1.2905,1.2905,1.2905,1.2905,1.2905,1.248,1.2057,1.1699,1.1113,1.057,1.0096,0.9438,0.0,0.0,0.0,0.0,0.0,0.0,0.0,0.0,0.0,0.0,0.0,0.0,0.0,0.0,0.0,0.0,0.0,0.0,0.0,0.0,0.0,0.0,0.0,0.0,0.0,0.0,0.0,0.0,0.0,1.2695,1.3549,1.3305,1.3704,1.3714,0.0,0.0,0.0,0.0,0.0,0.0,0.0,0.0,0.0,1.7885,1.8477,1.9043,1.9541,2.0107,2.0625,2.1103,2.1484,2.1787,2.2002,2.1768,2.1787,2.1982,2.1514,2.1096,2.0524,1.8581,1.7455,1.6897,0.0,0.0,0.0,0.0,1.5244,1.5049,1.5781,1.5723,1.5245,1.5029,0.0,0.0,0.0,0.0,0.0,0.0,0.0,1.3383,1.387,1.4619,1.5156,1.4874,1.4825,1.4757,1.4551,1.3246,1.1931,1.1209,1.0586,0.9901,0.8913,0.8975,0.0,0.0,0.0,1.1252,1.1855,1.249,1.2905,1.2905,1.2905,1.2905,1.2905,1.2705,1.2533,1.2404,1.1922,1.1423,1.0955,1.0412,0.9694,0.0,0.0,0.0,0.0,0.0,0.0,0.0,0.0,0.0,0.0,0.0,0.0,0.0,0.0,0.0,0.0,0.0,0.0,0.0,0.0,0.0,0.0,0.0,0.0,0.0,0.0,0.0,0.0,1.4033,1.4951,1.4484,1.5391,1.5576,0.0,0.0,0.0,0.0,0.0,0.0,1.7866,1.8369,1.9004,1.9766,2.0303,2.0898,2.1512,2.1629,2.1999,2.2676,2.2676,2.2789,2.3081,2.2769,2.2799,2.3062,2.248,2.2383,2.25,2.0196,1.9017,1.8584,1.7725,1.7109,1.6819,1.7344,1.723,1.6887,1.7832,1.772,1.7155,1.6995,1.6271,1.5312,1.4561,0.0,0.0,0.0,0.0,1.4747,1.541,1.5898,1.6183,1.583,1.5664,1.5488,1.5204,1.4687,1.3958,1.2895,1.2275,1.1516,1.0215,1.0361,0.0,1.0303,1.1113,1.1917,1.2344,1.2676,1.2905,1.2905,1.2905,1.2905,1.2905,1.3041,1.3094,1.3028,1.271,1.2374,1.2061,1.1392,1.0572,0.9599,0.0,0.0,0.0,0.0,0.0,0.0,0.0,0.0,0.0,0.0,0.0,0.0,0.0,0.0,0.0,0.0,0.0,0.0,0.0,0.0,0.0,0.0,0.0,0.0,0.0,0.0,0.0,0.0,0.0,1.54,1.6846,0.0,0.0,0.0,0.0,1.7288,1.8037,1.8711,1.917,2.0018,2.0654,2.1083,2.1943,2.2402,2.2451,2.2799,2.3023,2.3062,2.3062,2.3071,2.3091,2.3071,2.3071,2.3091,2.3052,2.3042,2.2955,2.1619,2.084,2.039,1.9492,1.8896,1.8432,1.8105,1.8169,1.8481,1.8549,1.8539,1.8568,1.8994,1.8281,1.7168,1.6677,1.5937,0.0,0.0,1.5644,1.6007,1.6046,1.6367,1.6658,1.6638,1.6338,1.6056,1.6036,1.5371,1.4609,1.4104,1.3379,1.2817,1.2729,0.0,1.1663,1.2018,1.2135,1.233,1.2793,1.2895,1.2905,1.2905,1.2905,1.2905,1.2905,1.342,1.3579,1.3119,1.3128,1.3177,1.3212,1.22,1.1331,1.0639,0.9592,0.0,0.0,0.0,0.0,0.0,0.0,0.0,0.0,0.0,0.0,0.0,0.0,0.0,0.0,0.0,0.0,0.0,0.0,0.0,0.0,0.0,0.0,0.0,0.0,0.0,0.0,0.0,0.0,1.7477,1.8769,0.0,1.8267,1.8662,1.9131,1.9451,1.998,2.0576,2.1328,2.165,2.2021,2.2409,2.2711,2.2877,2.2877,2.3023,2.3091,2.3091,2.3091,2.3091,2.3091,2.3091,2.3091,2.3091,2.3091,2.3091,2.3062,2.2604,2.2207,2.1768,2.1191,2.0693,2.0284,2.0459,2.0244,1.9922,2.0167,1.9904,1.9358,1.8968,1.8529,1.8081,1.7686,1.7148,1.6738,1.7002,1.7002,1.7005,1.7246,1.7432,1.7457,1.7217,1.7031,1.6836,1.6553,1.6025,1.5596,1.5429,1.4463,1.3516,1.2993,1.2866,1.2676,1.2262,1.2471,1.2705,1.2886,1.2905,1.2905,1.2905,1.3238,1.3481,1.3481,1.4037,1.4145,1.3641,1.334,1.3067,1.2727,1.2394,1.1757,1.0774,1.0343,0.9416,0.0,0.0,0.0,0.0,0.0,0.0,0.0,0.0,0.0,0.0,0.0,0.0,0.0,0.0,0.0,0.0,0.0,0.0,0.0,0.0,0.0,0.0,0.0,0.0,0.0,1.7715,1.9026,1.9026,2.0342,2.0869,1.9852,2.0371,2.0908,2.1201,2.1631,2.2087,2.2652,2.2682,2.2808,2.3081,2.3091,2.3091,2.3091,2.3091,2.3091,2.3091,2.3091,2.3091,2.3091,2.3091,2.3091,2.3091,2.3091,2.3299,2.3637,2.3266,2.3175,2.321,2.2424,2.1924,2.1639,2.1836,2.1514,2.1035,2.1142,2.1036,2.0717,1.9835,1.9544,1.9474,1.9078,1.8507,1.8086,1.8359,1.8135,1.7871,1.8144,1.8081,1.7939,1.7666,1.749,1.7305,1.7012,1.6515,1.6095,1.6095,1.5137,1.418,1.3613,1.3633,1.3451,1.2749,1.291,1.3037,1.2925,1.3079,1.319,1.319,1.3732,1.4097,1.4097,1.4484,1.4663,1.4481,1.3868,1.3423,1.326,1.2734,1.2031,1.1078,1.0652,0.9905,0.8838,0.0,0.0,0.0,0.0,0.0,0.0,0.0,0.0,0.0,0.0,0.0,0.0,0.0,0.0,0.0,0.0,0.0,0.0,0.0,0.0,0.0,0.0,0.0,1.8047,1.916,1.998,1.999,2.1494,2.2031,2.0811,2.1787,2.2529,2.2529,2.2867,2.3091,2.3091,2.3091,2.3101,2.311,2.311,2.311,2.311,2.311,2.311,2.3091,2.3091,2.3091,2.3091,2.3091,2.3135,2.3135,2.3135,2.38,2.4745,2.3681,2.3844,2.4703,2.3135,2.2529,2.248,2.2112,2.1997,2.196,2.1437,2.1918,2.2622,2.1728,2.146,2.1402,2.0969,2.0165,1.9343,1.9343,1.8984,1.8598,1.8598,1.8286,1.8008,1.8042,1.7729,1.7468,1.7468,1.6794,1.6205,1.6175,1.5478,1.4879,1.4841,1.4488,1.4057,1.3635,1.3567,0.0,1.3023,1.3478,1.3815,1.3815,1.4376,1.4721,1.4721,1.4801,1.5064,1.5548,1.4654,1.4337,1.4846,1.3295,1.2162,1.164,1.0522,0.9931,0.9931,0.0,0.0,0.0,0.0,0.0,0.0,0.0,0.0,0.0,0.0,0.0,0.0,0.0,0.0,0.0,0.0,0.0,0.0,0.0,0.0,0.0,1.8203,1.9287,1.8975,2.0322,2.1455,2.1758,2.2448,2.2779,2.2461,2.2711,2.2925,2.2925,2.3033,2.3091,2.3091,2.3091,2.3247,2.3603,2.3613,2.3613,2.3613,2.3613,2.3457,2.3091,2.3091,2.3091,2.3091,2.3091,2.3551,2.4339,2.4339,2.4967,2.6016,2.5683,2.5766,2.5839,2.3755,2.2925,2.3036,2.3734,2.4303,2.4543,2.3282,2.3289,2.3678,2.2656,2.2612,2.278,2.1914,2.1292,2.0667,1.996,1.9173,1.8598,1.8598,1.8286,1.8168,1.8787,1.8851,1.8769,1.8769,1.8511,1.8077,1.7461,1.7056,1.6556,1.5735,1.5919,1.6079,1.5662,1.5241,1.4909,1.4803,1.4595,1.4445,1.4445,1.4983,1.5343,1.5343,1.5765,1.5756,1.5121,1.4831,1.4576,1.4324,1.3458,1.2739,1.219,1.1059,1.0482,0.0,0.0,0.0,0.0,0.0,0.0,0.0,0.0,0.0,0.0,0.0,0.0,0.0,0.0,0.0,0.0,0.0,0.0,0.0,0.0,0.0,0.0,2.0432,2.1724,2.1624,2.2086,2.2568,2.2998,2.3262,2.3408,2.3408,2.3574,2.3627,2.3627,2.4142,2.4442,2.4442,2.4916,2.5083,2.487,2.5362,2.5094,2.4053,2.5094,2.508,2.4038,2.4116,2.4275,2.452,2.4006,2.4425,2.5504,2.5504,2.6119,2.7128,2.6678,2.676,2.6994,0.0,0.0,0.0,0.0,2.5747,2.5938,2.4836,2.4787,2.5077,2.4272,2.4066,2.4036,2.3441,2.2812,2.2155,2.1565,2.0907,2.034,2.0072,1.9734,1.9517,1.9769,1.9846,1.9846,1.9846,1.9434,1.8963,1.8451,1.8191,0.0,1.7187,1.718,1.7104,1.6698,1.6345,1.5982,1.5541,1.5439,1.5337,1.5108,1.5622,1.5986,1.5986,1.6104,0.0,0.0,0.0,1.4544,1.3765,1.3391,0.0,0.0,0.0,0.0,0.0,0.0,0.0,0.0,0.9687,0.8863,0.0,0.0,0.0,0.0,0.0,0.0,0.0,0.0,0.0,0.0,0.0,0.0,0.0,0.0,0.0,0.0,2.297,2.4681,2.5094,2.4288,2.3785,2.4133,2.4048,2.4023,2.4073,2.4418,2.4588,2.4588,2.5778,2.6475,2.6475,2.7502,0.0,0.0,0.0,2.7105,2.4934,2.7105,2.7348,2.5705,2.5762,2.6076,2.6561,2.5484,2.563,2.6678,2.6678,2.729,2.8215,2.725,2.7412,2.8176,2.6964,2.6554,2.6678,2.6678,2.676,2.6785,2.625,0.0,0.0,2.6089,2.5612,2.523,2.5064,2.4384,2.3672,2.3514,2.3214,2.2756,2.217,2.1711,2.1294,2.0831,2.0751,2.0751,2.0751,2.0067,1.9417,1.9242,1.9058,1.8893,1.8833,1.8274,1.7732,1.7379,1.7265,1.6888,1.593,1.6233,1.6308,1.5758,1.6194,0.0,1.65,1.607,1.5969,1.6375,1.5525,1.4519,1.3441,1.3448,1.324,1.2693,1.3152,1.3659,1.4191,1.4676,1.4664,1.4123,1.1381,1.014,0.0,0.0,0.0,0.0,0.0,0.0,0.0,0.0,0.0,0.0,0.0,0.0,0.0,0.0,0.0,2.2756,2.4672,2.6235,2.715,2.7118,2.6889,2.6647,2.5719,2.5295,2.5792,2.5906,2.5913,2.5913,2.7051,2.7765,2.7765,2.7983,2.8174,2.831,2.8544,2.8411,2.7963,2.8411,2.8298,2.7577,2.7177,0.0,2.7139,2.6485,2.6748,2.7804,2.7804,2.8438,2.9456,2.9248,2.9287,2.9287,2.7261,2.7046,2.7804,2.7804,2.8359,2.9028,2.8028,2.8011,2.8212,2.6824,2.659,2.6629,2.5397,2.4862,0.0,2.3745,2.3214,2.2756,2.217,2.1711,2.1437,2.1619,2.1647,2.1647,2.1647,2.1662,2.1348,2.0193,2.016,2.0152,1.9666,1.9475,1.936,1.9262,1.8893,1.84,1.7748,1.7409,1.698,1.6399,1.6423,1.65,1.65,1.64,1.6187,1.5881,1.5655,1.5261,1.4607,1.4977,1.4952,1.4431,1.4519,1.4632,1.4752,1.4846,1.4853,1.4727,1.3709,1.3017,0.0,0.0,0.0,0.0,0.0,0.0,0.0,0.0,0.0,0.0,0.0,2.0397,2.1022,0.0,2.2743,2.5364,2.6519,2.7403,2.8233,2.8855,2.8825,2.7741,2.7052,2.6889,2.7511,2.7717,2.7858,2.7858,2.8979,2.9653,2.9653,3.0233,3.0406,3.0024,3.0634,3.0358,2.9094,3.0313,3.0233,2.8846,2.8646,2.8555,2.8512,2.769,2.7907,2.8937,2.8937,2.9275,2.9792,2.9792,2.9792,2.9675,2.8581,2.849,2.8937,2.8937,2.9326,2.9702,2.9157,2.8917,2.8725,2.7631,2.7309,2.711,2.6081,2.5734,2.5664,2.5134,2.4873,2.4551,2.3968,2.3456,2.3086,2.2982,2.2714,2.2506,2.2506,2.239,2.2018,2.1047,2.0769,2.0515,1.9899,1.9798,1.9798,1.9798,1.9572,1.9196,1.8657,1.8141,1.7576,1.7011,1.6685,1.65,1.65,1.65,1.6387,1.612,1.6107,1.5856,1.5324,1.5563,1.5449,1.4916,1.516,1.5299,1.5299,1.5567,1.5693,1.568,1.5437,1.486,0.0,0.0,0.0,0.0,0.0,0.0,0.0,1.9823,2.0613,2.0962,2.2101,2.3335,2.4383,2.4423,2.5142,2.7859,2.8311,2.8551,2.9058,3.001,3.0049,2.8607,2.8225,2.8289,2.8898,2.9341,2.958,2.958,3.0808,3.1589,3.1589,3.2556,3.2612,3.1589,3.2568,3.2152,3.0135,3.2108,3.2104,3.0116,3.0103,3.0049,2.9903,2.8895,2.8937,2.9792,2.9792,2.9792,2.9792,2.9792,2.9792,2.9792,2.9792,2.9792,2.9792,2.9792,2.9792,2.9792,2.9792,2.949,2.8963,2.8448,2.7896,2.7379,2.6826,2.6575,2.6499,2.6499,2.6499,2.6361,2.5749,2.5209,2.465,2.413,2.3521,2.3108,2.3108,2.2757,2.2309,2.1757,2.1232,2.0666,2.0075,1.9874,1.9798,1.9798,1.9798,1.961,1.907,1.8519,1.799,1.7461,1.6861,1.65,1.65,1.65,1.65,1.65,1.65,1.63,1.5869,1.5856,1.5643,1.5223,1.563,1.5856,1.5856,1.6287,1.65,1.65,1.65,1.6045,2.1543,2.0718,2.0328,2.0988,2.0476,2.0733,0.0,2.4827,2.4743,2.4495,2.6397,2.7538,2.5787,2.6932,2.8464,2.9428,2.9886,3.0192,3.0372,3.0528,3.0513,3.031,2.9369,2.8916,2.9447,2.9954,3.0304,3.0304,3.1926,3.2896,3.2896,3.3025,3.3025,3.2884,3.3025,3.2982,3.2711,3.2939,3.2712,3.1893,3.1447,3.0963,3.0507,2.9888,2.9663,2.9792,2.9792,2.9792,2.9792,2.9792,2.9792,2.9792,2.9792,2.9792,2.9792,2.9792,2.9792,2.9792,2.9792,2.9754,2.9603,2.8988,2.8461,2.7908,2.7356,2.6889,2.6499,2.6499,2.6499,2.6361,2.5749,2.5209,2.465,2.413,2.3521,2.3108,2.3108,2.3058,2.2844,2.2293,2.1782,2.1257,2.0691,2.0137,1.9798,1.9798,1.9798,1.961,1.907,1.8519,1.799,1.7461,1.6861,1.65,1.65,1.65,1.65,1.65,1.65,1.6475,1.64,1.64,1.6375,1.6312,1.6375,1.64,1.64,1.6463,1.65,1.65,1.65,1.6437,2.445,2.3628,2.302,2.39,2.3769,2.4061,2.6329,2.7061,2.7317,2.7618,2.8773,2.9569,2.8982,2.8756,2.9141,3.0487,3.0025,2.9629,3.0074,3.0131,3.0131,3.0131,2.97,2.9742,3.0577,3.0859,3.1117,3.1436,3.2174,3.2717,3.3056,3.3124,3.3124,3.3124,3.3124,3.3124,3.3124,3.2742,3.229,3.1725,3.1198,3.0658,3.0131,2.9892,2.9792,2.9792,2.9792,2.9792,2.9792,2.9792,2.9792,2.9792,2.9792,2.9792,2.9792,2.9792,2.9792,2.9792,2.9792,2.9792,2.9691,2.9076,2.8737,2.8423,2.7544,2.7153,2.6901,2.6587,2.6499,2.6436,2.6197,2.546,2.4725,2.4531,2.376,2.3108,2.3108,2.3108,2.2945,2.2393,2.187,2.1345,2.0792,2.0214,1.9798,1.9798,1.9798,1.9723,1.9484,1.8731,1.7865,1.6974,1.6638,1.65,1.65,1.65,1.65,1.65,1.65,1.65,1.65,1.65,1.65,1.65,1.65,1.65,1.65,1.65,1.65,1.65,1.65,1.65,2.5376,2.5222,2.5169,2.5579,2.6271,2.7122,2.8199,2.8984,2.9609,2.9945,3.0618,3.1144,3.1196,3.0299,3.0001,3.1215,3.0208,2.9427,2.975,2.9792,2.9792,2.9792,2.9792,3.0093,3.0871,3.1085,3.1336,3.1738,3.2039,3.239,3.2817,3.2993,3.3124,3.3124,3.3124,3.3124,3.3124,3.2667,3.2102,3.1386,3.1009,3.047,2.9792,2.9792,2.9792,2.9792,2.9792,2.9792,2.9792,2.9792,2.9792,2.9792,2.9792,2.9792,2.9792,2.9792,2.9792,2.9792,2.9792,2.9792,2.9729,2.9302,2.9026,2.8712,2.7795,2.7406,2.7203,2.665,2.6499,2.6499,2.6499,2.5749,2.4963,2.4825,2.4048,2.3296,2.3145,2.3108,2.2995,2.2594,2.2096,2.1543,2.1018,2.0453,1.9987,1.9823,1.9798,1.9798,1.9798,1.8869,1.784,1.6861,1.6588,1.65,1.65,1.65,1.65,1.65,1.65,1.65,1.65,1.65,1.65,1.65,1.65,1.65,1.65,1.65,1.65,1.65,1.65,1.65,2.2992,2.4069,2.5616,2.4991,2.6954,2.9284,3.0269,3.1344,3.1898,3.1289,3.2159,3.2643,3.14,3.1687,3.1943,3.1486,3.0906,3.038,2.9867,2.9792,2.9792,2.9792,2.9792,2.9804,2.9842,3.0331,3.0645,3.067,3.1625,3.2227,3.224,3.2767,3.3124,3.3124,3.3124,3.3124,3.3124,3.3056,3.2491,3.1386,3.1373,3.0821,2.9792,2.9792,2.9792,2.9792,2.9792,2.9792,2.9792,2.9792,2.9792,2.9792,2.9792,2.9792,2.9792,2.9792,2.9792,2.9792,2.9792,2.9792,2.9792,2.9779,2.939,2.8787,2.8247,2.7708,2.7203,2.665,2.6499,2.6499,2.6499,2.6047,2.5448,2.4913,2.4393,2.3816,2.3233,2.3108,2.3095,2.3083,2.2631,2.2121,2.1556,2.1031,2.0478,1.9886,1.9798,1.9798,1.9798,1.8869,1.799,1.7436,1.6861,1.65,1.65,1.65,1.65,1.65,1.65,1.65,1.65,1.65,1.65,1.65,1.65,1.65,1.65,1.65,1.65,1.65,1.65,1.65,2.5938,2.6129,2.6633,2.8675,2.9658,3.047,3.1951,3.2523,3.2632,3.1994,3.1938,3.1714,3.0927,3.0689,3.0545,3.0369,3.0495,3.0419,2.9867,3.0105,3.0206,2.9829,2.9792,2.9792,2.9792,2.9955,3.0218,3.0583,3.1273,3.1825,3.219,3.2767,3.3124,3.3124,3.3124,3.3124,3.3124,3.2692,3.2315,3.1926,3.1223,3.0495,2.9792,2.9792,2.9792,2.9792,2.9792,2.9792,2.9792,2.9792,2.9792,2.9792,2.9792,2.9792,2.9792,2.9792,2.9792,2.9792,2.9792,2.9792,2.9792,2.9792,2.9666,2.9327,2.8386,2.7971,2.7632,2.6751,2.6499,2.6499,2.6499,2.6059,2.5548,2.5372,2.4657,2.3941,2.3753,2.3371,2.3108,2.3108,2.2656,2.2246,2.2071,2.1307,2.049,1.9886,1.9798,1.9673,1.9309,1.8945,1.8405,1.7511,1.7212,1.6936,1.6525,1.65,1.65,1.65,1.65,1.65,1.65,1.65,1.65,1.65,1.65,1.65,1.65,1.65,1.65,1.65,1.65,1.65,2.7397,2.7831,2.8345,3.055,3.132,3.1779,3.2852,3.2918,3.2604,3.2039,3.1336,3.0721,3.0382,2.9541,2.9089,2.9691,2.9917,2.9967,2.9817,3.0269,3.0407,2.9854,2.9792,2.9792,2.9792,2.9792,2.9942,3.0294,3.0984,3.1549,3.1901,3.2654,3.3124,3.3124,3.3124,3.3124,3.3124,3.2704,3.2315,3.1901,3.1035,3.0331,2.9792,2.9792,2.9792,2.9792,2.9792,2.9792,2.9792,2.9792,2.9792,2.9792,2.9792,2.9792,2.9792,2.9792,2.9792,2.9792,2.9792,2.9792,2.9792,2.9792,2.9792,2.9616,2.8687,2.826,2.7921,2.704,2.665,2.6499,2.6499,2.6223,2.585,2.5649,2.4933,2.4243,2.4042,2.354,2.3108,2.3108,2.2819,2.2506,2.2347,2.1393,2.049,1.9886,1.9798,1.9685,1.9321,1.9121,1.8732,1.8053,1.7614,1.7237,1.6861,1.6613,1.65,1.65,1.65,1.65,1.65,1.65,1.65,1.65,1.65,1.65,1.65,1.65,1.65,1.65,1.65,1.65,2.7464,2.9047,3.0648,3.07,3.1915,3.3111,3.3043,3.2591,3.1989,3.1348,3.0369,2.9591,2.9515,2.826,2.7794,2.9365,2.9289,2.9202,2.9754,3.0306,3.0457,2.993,2.988,2.988,2.988,2.988,2.988,2.988,3.0821,3.1399,3.1436,3.2478,3.3124,3.3124,3.3124,3.3124,3.3124,3.3056,3.2478,3.1386,3.0871,3.0331,2.9792,2.9792,2.9792,2.9792,2.9792,2.9792,2.9792,2.9792,2.9792,2.9792,2.9792,2.9792,2.9792,2.9792,2.9792,2.9792,2.9792,2.9792,2.9792,2.9792,2.9792,2.9679,2.9063,2.8549,2.7996,2.7444,2.6927,2.6499,2.6499,2.6499,2.6361,2.5774,2.5247,2.4675,2.4167,2.359,2.3145,2.3108,2.3108,2.2932,2.238,2.1418,2.0541,1.9936,1.9823,1.9798,1.9798,1.9346,1.9033,1.9008,1.8091,1.7473,1.7448,1.6898,1.6538,1.6538,1.6513,1.65,1.65,1.65,1.65,1.65,1.65,1.65,1.65,1.65,1.65,1.65,1.65,1.65,2.9875,3.0697,3.1276,3.2241,3.2784,3.2968,3.2528,3.2001,3.1097,2.9315,2.8072,2.6964,2.5699,2.616,2.6839,2.7278,2.8925,3.0231,3.0382,3.0859,3.1148,3.0997,3.0984,3.0984,3.0984,3.0984,3.0984,3.0984,3.1235,3.1574,3.1976,3.2679,3.3124,3.3124,3.3124,3.3124,3.3124,3.2641,3.2077,3.1386,3.0871,3.0331,2.9792,2.9792,2.9792,2.9792,2.9792,2.9792,2.9792,2.9792,2.9792,2.9792,2.9792,2.9792,2.9792,2.9792,2.9792,2.9792,2.9792,2.9792,2.9792,2.9792,2.9792,2.9679,2.9063,2.8549,2.7996,2.7444,2.6927,2.6499,2.6499,2.6499,2.6461,2.6311,2.5812,2.5259,2.472,2.4167,2.3653,2.3195,2.3108,2.2932,2.238,2.1732,2.1119,2.0553,2.0075,1.9798,1.9798,1.9685,1.9434,1.9045,1.8757,1.8418,1.8028,1.7488,1.7162,1.7162,1.676,1.65,1.65,1.65,1.65,1.65,1.65,1.65,1.65,1.65,1.65,1.65,1.65,1.65,3.1347,3.19,3.2196,3.2927,3.288,3.2428,3.1386,3.0532,2.9252,2.6804,2.5611,2.4644,2.3477,2.4205,2.5355,2.6336,2.8172,2.9691,3.0181,3.0909,3.1298,3.1085,3.1248,3.1386,3.1386,3.1386,3.1486,3.1738,3.175,3.1888,3.219,3.2767,3.3124,3.3124,3.3124,3.3124,3.3124,3.2503,3.1938,3.1386,3.0871,3.0331,2.9792,2.9792,2.9792,2.9792,2.9792,2.9792,2.9792,2.9792,2.9792,2.9792,2.9792,2.9792,2.9792,2.9792,2.9792,2.9792,2.9792,2.9792,2.9792,2.9792,2.9792,2.9729,2.9402,2.875,2.8047,2.7733,2.7102,2.6499,2.6499,2.6499,2.6499,2.6499,2.6047,2.5523,2.5222,2.4544,2.3828,2.3221,2.3108,2.2932,2.238,2.2058,2.1581,2.0817,2.0415,2.0087,1.9836,1.9798,1.9685,1.9371,1.9146,1.8882,1.8569,1.8053,1.7662,1.7423,1.7074,1.6785,1.65,1.65,1.65,1.65,1.65,1.65,1.65,1.65,1.65,1.65,1.65,1.65,3.2177,3.2692,3.3124,3.3124,3.2591,3.1675,3.0043,2.8687,2.6992,2.423,2.312,2.2493,2.1942,2.2481,2.3697,2.5933,2.7293,2.8524,2.9729,3.0696,3.1173,3.0859,3.1223,3.1537,3.1612,3.1612,3.1813,3.229,3.2328,3.2328,3.2328,3.2805,3.3124,3.3124,3.3006,3.2968,3.2968,3.2315,3.1763,3.1286,3.0758,3.0256,2.9792,2.9792,2.9792,2.9792,2.9792,2.9792,2.9792,2.9792,2.9792,2.9792,2.9792,2.9792,2.9792,2.9792,2.9792,2.9792,2.9792,2.9792,2.9792,2.9792,2.9792,2.9792,2.9792,2.9051,2.8197,2.8134,2.7369,2.6587,2.6512,2.6499,2.6499,2.6499,2.6109,2.5686,2.5611,2.4757,2.3828,2.3221,2.3108,2.2957,2.2498,2.2359,2.1983,2.1056,2.0779,2.0515,1.9987,1.9849,1.9798,1.9798,1.9371,1.9108,1.9108,1.8607,1.8103,1.7626,1.7561,1.7262,1.6738,1.6726,1.6726,1.6726,1.6651,1.6651,1.6726,1.6651,1.6651,1.6713,1.6638,1.6613,3.2767,3.3006,3.3124,3.3124,3.2303,3.1097,2.9453,2.7494,0.0,2.2498,2.1104,2.0225,1.9672,2.1139,2.3007,2.482,2.6791,2.8662,3.0256,3.0633,3.1047,3.1838,3.2014,3.2252,3.2742,3.2822,3.2817,3.2918,3.293,3.293,3.293,3.3018,3.3124,3.3124,3.2616,3.2365,3.2365,3.1386,3.0846,3.0746,3.0193,2.988,2.9792,2.9792,2.9792,2.9792,2.9792,2.9792,2.9792,2.9792,2.9792,2.9792,2.9792,2.9792,2.9792,2.9792,2.9792,2.9792,2.9792,2.9792,2.9792,2.9792,2.9792,2.9792,2.9792,2.9315,2.865,2.8235,2.7645,2.7065,2.6612,2.6499,2.6499,2.6499,2.6411,2.621,2.5699,2.4757,2.3828,2.3221,2.3108,2.307,2.2982,2.2581,2.2246,2.2058,2.1282,2.0654,2.0553,2.01,1.9798,1.9798,1.9723,1.966,1.966,1.9158,1.882,1.8719,1.8317,1.8016,1.7915,1.7915,1.7915,1.7915,1.7463,1.7451,1.7903,1.7451,1.7463,1.7903,1.7438,1.7237,3.2554,3.2842,3.2973,3.234,3.1587,3.0398,2.8188,0.0,0.0,2.1223,2.0195,1.9549,1.8735,2.0374,2.225,2.3319,2.4895,2.6753,2.8988,2.9315,2.993,3.1587,3.2039,3.2441,3.3061,3.3124,3.3124,3.3124,3.3124,3.3124,3.3124,3.3124,3.2943,3.2641,3.2353,3.2077,3.1788,3.1009,3.062,3.0608,3.0055,2.9792,2.9792,2.9792,2.9792,2.9792,2.9792,2.9792,2.9792,2.9792,2.9792,2.9792,2.9792,2.9792,2.9792,2.9792,2.9792,2.9792,2.9792,2.9792,2.9792,2.9792,2.9792,2.9792,2.9792,2.939,2.8775,2.826,2.7708,2.719,2.6637,2.6499,2.6499,2.6499,2.6499,2.6336,2.5724,2.5197,2.4582,2.374,2.387,2.3906,2.3206,2.3225,2.3235,2.2925,2.2099,2.1572,2.1662,2.112,2.0502,1.9888,1.9798,1.9798,1.9798,1.9572,1.9284,1.902,1.8757,1.8481,1.8216,1.8204,1.8204,1.8204,1.794,1.794,1.8204,1.794,1.7953,1.8191,1.794,1.7815,3.2215,3.2641,3.283,3.1813,3.0909,2.9555,2.6978,2.4819,0.0,2.0211,1.9539,1.9211,1.8478,1.9863,2.1394,2.2178,2.3242,2.4898,2.7544,2.8034,2.8875,3.0972,3.17,3.2265,3.283,3.3006,3.3124,3.3124,3.3124,3.3124,3.3124,3.3124,3.2805,3.2227,3.2102,3.1775,3.1223,3.0696,3.0444,3.0432,2.9993,2.9792,2.9792,2.9792,2.9792,2.9792,2.9792,2.9792,2.9792,2.9792,2.9792,2.9792,2.9792,2.9792,2.9792,2.9792,2.9792,2.9792,2.9792,2.9792,2.9792,2.9792,2.9792,2.9792,2.9792,2.9478,2.9001,2.8436,2.7883,2.7331,2.6813,2.6587,2.6499,2.6499,2.6499,2.6336,2.5724,2.5598,2.5322,2.4356,2.4661,2.4779,2.3709,2.408,2.4378,2.3898,2.3221,2.2819,2.3004,2.2457,2.1692,2.0746,2.0259,2.0003,2.0003,2.0003,1.9826,1.9407,1.9493,1.9337,1.8772,1.8759,1.8818,1.8947,1.8703,1.8632,1.8759,1.8632,1.8573,1.8543,1.843,1.838,3.2215,3.2641,3.2918,3.229,3.0595,2.8482,2.6207,0.0,2.1205,1.9374,1.8604,1.8383,1.8762,1.9451,2.0465,2.2034,2.3225,2.4733,2.7037,2.7795,2.875,3.0482,3.1148,3.1687,3.224,3.2767,3.3124,3.3124,3.3124,3.3124,3.3124,3.3124,3.2805,3.2227,3.1725,3.1223,3.0696,3.0143,2.9867,2.9867,2.9817,2.9792,2.9792,2.9792,2.9792,2.9792,2.9792,2.9792,2.9792,2.9792,2.9792,2.9792,2.9792,2.9792,2.9792,2.9792,2.9792,2.9792,2.9792,2.9792,2.9792,2.9792,2.9792,2.9792,2.9792,2.9754,2.9591,2.8976,2.8461,2.7896,2.7392,2.6876,2.6499,2.6499,2.6499,2.6336,2.5724,2.5598,2.5423,2.4825,2.4931,2.5047,2.4934,2.5145,2.5273,2.5204,2.4682,2.4297,2.4323,2.3837,2.3476,2.3356,2.177,2.0696,2.0696,2.0696,2.0683,2.0631,2.114,2.1185,2.0601,2.0576,2.082,2.1379,2.0371,2.0075,2.0576,2.0075,1.9761,1.9648,1.9146,1.8933,3.116,3.1888,3.2265,3.106,2.9591,2.7934,2.6064,2.3765,2.1597,2.0253,1.9488,1.9021,1.8919,1.9351,1.9972,2.0678,2.1159,2.2192,2.4457,2.5272,2.649,2.8825,2.9892,3.0896,3.2102,3.2416,3.2554,3.2554,3.2554,3.2416,3.2077,3.2378,3.2303,3.1738,3.1198,3.067,3.0118,2.9905,2.9792,2.9792,2.9792,2.9792,2.9792,2.9792,2.9792,2.9792,2.9792,2.9792,2.9792,2.9792,2.9792,2.9792,2.9792,2.9792,2.9792,2.9792,2.9792,2.9792,2.9792,2.9792,2.9792,2.9792,2.9792,2.9792,2.9792,2.9792,2.9666,2.9051,2.8499,2.7984,2.7419,2.7258,2.7351,2.7887,2.7986,2.7952,2.7699,2.7658,2.7485,2.6943,2.728,2.727,2.6085,2.6329,2.6521,2.6125,2.5491,2.5215,2.5659,2.5171,2.4645,2.4217,2.2832,2.1947,2.1947,2.1583,2.1342,2.1342,2.1568,2.1592,2.1342,2.1342,2.1448,2.171,2.124,2.1135,2.1342,2.0753,2.0448,2.0396,1.9763,1.9497,2.9917,3.0909,3.1424,3.0118,2.8999,2.7648,2.5611,2.3712,2.1988,2.068,2.0034,1.9584,1.9207,1.9459,1.966,1.9557,1.9817,2.0753,2.2795,2.3747,2.5209,2.7795,2.895,3.0055,3.1373,3.1788,3.1964,3.1964,3.1964,3.18,3.1411,3.1612,3.1562,3.1173,3.0809,3.0357,2.9804,2.9792,2.9792,2.9792,2.9792,2.9792,2.9792,2.9792,2.9792,2.9792,2.9792,2.9792,2.9792,2.9792,2.9792,2.9792,2.9792,2.9792,2.9792,2.9792,2.9792,2.9792,2.9792,2.9792,2.9792,2.9792,2.9792,2.9792,2.9792,2.9792,2.9704,2.9302,2.8835,2.8344,2.7819,2.7868,2.8247,2.8844,2.9002,2.9002,2.9002,2.9002,2.8878,2.8512,2.8898,2.887,2.7482,2.758,2.7669,2.719,2.6504,2.6242,2.6774,2.6403,2.5933,2.5479,2.4475,2.3692,2.3336,2.2684,2.2296,2.2296,2.2278,2.2179,2.1993,2.1993,2.2086,2.2271,2.2086,2.1993,2.1993,2.1379,2.0979,2.0771,2.0105,1.9798,2.8612,2.9728,3.0507,2.993,2.9074,2.7597,2.4615,2.3186,2.1967,2.0098,1.9708,1.9708,1.969,1.9708,1.9534,1.9003,1.9855,2.1189,2.2854,2.4073,2.559,2.7846,2.8562,2.9126,2.9767,3.0783,3.1399,3.1399,3.1399,3.1399,3.1386,3.0909,3.0633,3.062,3.062,3.0357,2.9804,2.9792,2.9792,2.9792,2.9792,2.9792,2.9792,2.9792,2.9792,2.9792,2.9792,2.9792,2.9792,2.9792,2.9792,2.9792,2.9792,2.9792,2.9792,2.9792,2.9792,2.9792,2.9792,2.9792,2.9792,2.9792,2.9792,2.9792,2.9792,2.9792,2.9792,2.9779,2.9609,2.925,2.8644,2.8762,2.9002,2.9002,2.9002,2.9002,2.9002,2.9002,2.9002,2.8989,2.9165,2.9289,2.9275,2.8897,2.8607,2.8592,2.8008,2.7575,2.76,2.7585,2.7585,2.756,2.6961,2.6046,2.4785,2.4062,2.3677,2.3677,2.3622,2.3312,2.2717,2.2694,2.2965,2.3573,2.2987,2.2694,2.2694,2.203,2.139,2.0771,2.0105,1.9798,2.6013,2.6929,2.7593,2.6628,2.5929,2.4988,2.3217,2.2317,2.1463,1.9994,1.9708,1.9708,1.9708,1.9708,2.0074,2.1298,2.1306,2.1818,2.3725,2.4759,2.5749,2.6889,2.8812,3.0156,3.0331,3.0984,3.1248,3.0884,3.0859,3.0696,3.0319,3.0143,3.0231,3.0608,3.0256,2.9967,2.9792,2.9792,2.9792,2.9792,2.9792,2.9792,2.9792,2.9792,2.9792,2.9792,2.9792,2.9792,2.9792,2.9792,3.0177,3.0758,3.0758,3.0758,3.0833,3.1476,3.1291,3.0758,3.0758,3.0758,3.0758,3.0758,3.0758,3.0871,3.1513,3.0822,2.9858,3.0106,3.0623,3.0932,3.0448,3.0425,3.0542,3.0686,3.0703,3.0703,3.0703,3.0703,3.0703,3.0703,3.0764,3.0673,3.02,2.9997,2.9594,2.8727,2.8412,2.8113,2.766,2.76,2.76,2.76,2.7405,2.6942,2.606,2.5384,2.4991,2.4991,2.4984,2.488,2.4695,2.468,2.4764,2.4948,2.4319,2.4006,2.4006,2.2437,2.1618,2.1491,2.1159,2.129,2.4307,2.5218,2.5787,2.534,2.4853,2.4137,2.2669,2.1977,2.1269,1.996,1.9708,1.9708,1.9708,1.953,1.9824,2.1072,2.1027,2.1469,2.3346,2.4598,2.577,2.6952,2.88,2.9941,2.9941,3.047,3.0658,3.0331,3.0306,3.0156,2.9817,2.9792,2.9942,3.0294,2.9967,2.9792,2.9792,2.9792,2.9792,2.9792,2.9792,2.9792,2.9792,2.9792,2.9792,2.9792,2.9792,2.9792,0.0,3.0177,3.0658,3.1254,3.1609,3.1742,3.1815,3.2393,3.2249,3.1742,3.1742,3.1742,3.1742,3.1742,3.1742,3.1852,3.2429,3.1792,3.0917,3.1158,3.1728,3.2224,3.1969,3.1801,3.1733,3.1841,3.169,3.1511,3.1511,3.1511,3.1511,3.1511,3.1511,3.1376,3.0943,3.0672,3.0238,2.9445,2.9116,2.8727,2.8064,2.7989,2.7884,2.763,2.76,2.742,2.7016,2.6363,2.5974,2.5974,2.5749,2.5615,2.5615,2.5615,2.5615,2.5615,2.5187,2.4978,2.4963,2.3525,2.2717,2.2513,2.2436,2.2483,0.0,2.4218,2.472,2.532,2.5173,2.4398,2.2619,2.1914,0.0,1.9977,1.9708,1.9738,1.9828,1.9335,1.8998,1.931,1.9781,2.0688,2.2378,2.4073,2.591,2.7968,2.8674,2.895,2.895,2.9478,2.9792,2.9792,2.9792,2.9792,2.9792,2.9792,2.983,2.9895,2.9895,2.9869,2.9792,2.9792,2.9792,2.9792,2.9792,2.9792,2.9792,2.9792,2.9792,2.9792,2.9792,2.983,2.9972,3.0833,3.1278,3.1499,3.2357,3.2713,3.2713,3.2784,3.2749,3.2713,3.2713,3.2713,3.2713,3.2713,3.2749,3.282,3.282,3.2749,3.2713,3.2713,3.2964,3.3258,3.3215,3.2908,3.2632,3.2512,3.2019,3.157,3.1511,3.1511,3.1511,3.1511,3.1511,3.1511,3.1511,3.0972,3.0552,3.0507,3.0013,2.94,2.8757,2.8667,2.8412,2.775,2.766,2.7645,2.76,2.7031,2.6662,2.6662,2.6093,2.5749,2.5749,2.5749,2.5749,2.5749,2.5704,2.5636,2.5529,2.5023,2.4447,2.3847,2.3821,2.3463,2.1205,0.0,2.1547,2.1305,2.1512,2.1513,0.0,2.064,2.0707,1.9872,1.9708,2.0022,2.1036,1.9952,2.0016,2.3459,2.2874,2.2883,2.5525,2.6739,2.7862,2.9252,2.9515,2.9591,2.9591,2.9716,2.9792,2.9792,2.9792,2.9792,2.9792,2.9792,3.0139,3.0833,3.0871,3.052,2.9792,2.9792,2.9792,2.9792,2.9792,2.9792,2.9792,2.9792,2.9792,2.9792,2.9792,3.0216,3.0895,3.1106,3.2069,3.3345,3.3602,3.3671,3.3774,3.4509,3.4327,3.3671,3.3671,3.3671,3.3671,3.3671,3.4177,3.482,3.482,3.4293,3.3671,3.3671,3.4292,3.4839,3.4305,3.4107,3.3769,3.2751,3.2392,3.2108,3.1615,3.1511,3.1511,3.1511,3.1511,3.1511,3.1511,3.1376,3.1077,3.0582,3.0372,3.0058,2.943,2.934,2.9101,2.8427,2.8353,2.8169,2.7645,2.745,2.736,2.736,2.7225,2.7136,2.7136,2.7136,2.7136,2.7136,2.6641,2.5877,2.4912,2.523,2.5336,2.5228,2.5123,2.495,2.0139,2.0898,2.1569,2.1541,2.157,2.1509,2.1158,2.0626,2.0139,1.9783,1.9708,2.0022,2.1051,2.045,2.0788,2.3776,2.3588,2.4025,2.6777,2.7928,2.8812,2.9691,2.9792,2.9972,3.0381,3.0457,3.0633,3.1057,3.1095,3.0884,3.0457,3.0846,3.1119,3.1217,3.1609,3.1609,3.1095,3.1095,3.0884,3.0457,3.0457,3.0203,2.983,3.0241,3.0457,3.0457,3.0884,3.1365,3.1888,3.2321,3.3066,3.4061,3.4509,3.4691,3.4758,3.5294,3.5166,3.4691,3.4691,3.4691,3.4691,3.4691,3.5067,3.5504,3.5504,3.5133,3.4691,3.4691,3.51,3.5415,3.504,3.4711,3.4324,3.3589,3.2961,3.2392,3.2034,3.172,3.1511,3.1511,3.1511,3.1511,3.1511,3.1511,3.1376,3.1002,3.0943,3.0746,3.0088,2.9998,2.9759,2.9116,2.9056,2.8786,2.8124,2.8064,2.7929,2.7615,2.76,2.76,2.76,2.76,2.76,2.76,2.724,2.6718,2.6026,2.6351,2.6545,2.6571,2.6505,2.6255,1.9947,2.14,2.2847,2.2867,2.2652,2.2375,2.2181,2.0791,1.9603,1.969,1.9783,2.0109,2.0972,2.1073,2.1584,2.3314,2.4065,2.5283,2.778,2.8559,2.9177,2.9935,2.9998,3.0317,3.1106,3.1315,3.1742,3.2522,3.2593,3.2249,3.1462,3.2177,3.2321,3.1633,3.2393,3.289,3.3031,3.2749,3.2213,3.1426,3.1426,3.1007,3.0254,3.1044,3.1426,3.1462,3.2249,3.2664,3.289,3.3671,3.4095,3.4312,3.5166,3.5504,3.5504,3.5504,3.5504,3.5504,3.5504,3.5504,3.5504,3.5504,3.5504,3.5504,3.5504,3.5504,3.5504,3.5504,3.5504,3.5504,3.5504,3.507,3.4638,3.4533,3.3619,3.2781,3.2677,3.2198,3.178,3.1675,3.1645,3.163,3.1525,3.1511,3.1511,3.1511,3.1511,3.1286,3.0731,3.0657,3.0417,2.9789,2.9756,2.9487,2.8801,2.8742,2.8502,2.7944,2.7705,2.76,2.76,2.76,2.76,2.76,2.76,2.76,2.76,2.76,2.76,2.76,2.76,2.7196,2.1081,2.2398,2.2831,2.0264,2.0413,2.0878,1.974,1.9242,1.9151,1.9603,2.0154,2.1077,2.2832,2.223,2.2866,2.7025,2.7869,2.8789,3.1065,2.994,2.9415,3.083,3.097,3.1044,3.118,3.1924,3.2464,3.2593,3.2593,3.2522,3.2393,3.2522,3.289,3.3553,3.3705,3.4177,3.5034,3.3429,3.2522,3.2393,3.2393,3.2321,3.2177,3.2321,3.2393,3.2393,3.2522,3.3066,3.3808,3.3945,3.4509,3.5279,3.5439,3.5504,3.5504,3.5504,3.5504,3.5504,3.5504,3.5504,3.5504,3.5504,3.5504,3.5504,3.5504,3.5504,3.5504,3.5504,3.5504,3.5504,3.5504,3.5429,3.519,3.4638,3.4354,3.4054,3.3469,3.326,3.3036,3.2452,3.2333,3.2153,3.16,3.1511,3.1511,3.1511,3.1511,3.1466,3.1361,3.1346,3.1077,3.0432,3.0357,3.0103,2.9517,2.9457,2.9412,2.9307,2.8229,2.76,2.76,2.76,2.76,2.76,2.76,2.76,2.76,2.76,2.76,2.76,2.76,2.7129,2.0456,2.1575,2.2176,2.0413,2.171,2.3106,2.178,2.147,2.1508,2.1759,2.2054,2.2652,2.3902,2.4221,2.5448,2.8962,3.0117,3.0908,3.181,3.1352,3.1156,3.1847,3.196,3.2177,3.2664,3.3101,3.3567,3.4124,3.4158,3.3939,3.3394,3.3856,3.4109,3.3993,3.4543,3.5019,3.5504,3.4591,3.3891,3.3345,3.3345,3.3101,3.2629,3.3136,3.3345,3.3394,3.3939,3.4409,3.4806,3.4806,3.51,3.5504,3.5504,3.5504,3.5504,3.5504,3.5504,3.5504,3.5504,3.5504,3.5504,3.5504,3.5504,3.5504,3.5504,3.5504,3.5504,3.5504,3.5504,3.5504,3.5504,3.5504,3.5429,3.51,3.4741,3.4429,3.4098,3.3739,3.341,3.3095,3.3036,3.2946,3.2647,3.2587,3.2452,3.2093,3.2034,3.1914,3.1555,3.1511,3.1376,3.1062,3.1032,3.0791,3.0133,3.0088,2.9939,2.9636,2.9022,2.8678,2.8678,2.8678,2.8678,2.8678,2.8678,2.8678,2.8678,2.8678,2.8678,2.8678,2.8678,2.8441,2.0082,2.0917,2.1634,2.1386,2.3047,2.4553,2.3876,2.3567,2.3554,2.3977,2.4193,2.4507,2.5196,2.6767,2.8592,3.0434,3.1766,3.2581,3.2665,3.2633,3.2664,3.289,3.2925,3.3206,3.391,3.4211,3.4691,3.5424,3.5504,3.5166,3.4394,3.51,3.5133,3.4394,3.51,3.5504,3.5504,3.5504,3.51,3.4361,3.4361,3.3959,3.329,3.4027,3.4361,3.4394,3.5166,3.5504,3.5504,3.5504,3.5504,3.5504,3.5504,3.5504,3.5504,3.5504,3.5504,3.5504,3.5504,3.5504,3.5504,3.5504,3.5504,3.5504,3.5504,3.5504,3.5504,3.5504,3.5504,3.5504,3.5504,3.5504,3.5504,3.5504,3.51,3.4711,3.4711,3.4322,3.3918,3.3754,3.3724,3.3679,3.3529,3.3499,3.332,3.2826,3.2736,3.2557,3.2034,3.1959,3.1914,3.175,3.1735,3.1451,3.0806,3.0746,3.0552,3.0058,2.9786,2.9606,2.9606,2.9606,2.9606,2.9606,2.9606,2.9606,2.9606,2.9606,2.9606,2.9606,2.9606,2.9573,2.1216,2.162,2.1837,2.241,2.2373,2.2439,2.3548,2.3377,2.3442,2.5118,2.5944,2.6572,2.727,2.9953,3.2064,3.2072,3.3062,3.4163,3.5091,3.3691,3.2925,3.3808,3.391,3.391,3.3993,3.4839,3.5424,3.5504,3.5504,3.5472,3.5392,3.5472,3.5472,3.5392,3.5472,3.5504,3.5504,3.5504,3.5472,3.5392,3.5392,3.5359,3.5279,3.5359,3.5392,3.5392,3.5472,3.5504,3.5504,3.5504,3.5504,3.5504,3.5504,3.5504,3.5504,3.5504,3.5504,3.5504,3.5504,3.5504,3.5504,3.5504,3.5504,3.5504,3.5504,3.5504,3.5504,3.5504,3.5504,3.5504,3.5504,3.5504,3.5504,3.5504,3.5474,3.5429,3.5429,3.5385,3.5175,3.4563,3.4444,3.4234,3.3604,3.3499,3.3484,3.344,3.3425,3.341,3.3365,3.335,3.3125,3.2482,3.2437,3.2153,3.1496,3.1436,3.1406,3.1376,3.0253,2.9606,2.9606,2.9606,2.9606,2.9606,2.9606,2.9606,2.9606,2.9606,2.9606,2.9606,2.9606,2.9505,2.0322,2.137,2.2372,2.2653,2.3459,2.444,2.5338,2.6323,2.749,2.8973,2.9463,2.9702,2.9998,3.139,3.2601,3.295,3.4097,3.5067,3.5439,3.4887,3.4524,3.4872,3.4953,3.4953,3.4953,3.5279,3.5504,3.5504,3.5504,3.5504,3.5504,3.5504,3.5504,3.5504,3.5504,3.5504,3.5504,3.5504,3.5504,3.5504,3.5504,3.5504,3.5504,3.5504,3.5504,3.5504,3.5504,3.5504,3.5504,3.5504,3.5504,3.5504,3.5504,3.5504,3.5504,3.5504,3.5504,3.5504,3.5504,3.5504,3.5504,3.5504,3.5504,3.5504,3.5504,3.5504,3.5504,3.5504,3.5504,3.5504,3.5504,3.5504,3.5504,3.5504,3.5504,3.5504,3.5504,3.5504,3.5429,3.516,3.5115,3.504,3.4786,3.4741,3.4592,3.4158,3.4098,3.3963,3.3544,3.3499,3.3395,3.3155,3.2766,3.2392,3.2123,3.1735,3.1511,3.1511,3.1047,3.0763,3.0763,3.0763,3.0763,3.0763,3.0763,3.0763,3.0763,3.0763,3.0763,3.0763,3.0763,3.0741,2.0022,2.1006,2.2224,2.2838,2.4148,2.5735,2.7445,2.8758,3.0073,3.1765,3.1959,3.1869,3.2079,3.2497,3.3036,3.3709,3.4756,3.5504,3.5504,3.5504,3.5504,3.5504,3.5504,3.5504,3.5504,3.5504,3.5504,3.5504,3.5504,3.5504,3.5504,3.5504,3.5504,3.5504,3.5504,3.5504,3.5504,3.5504,3.5504,3.5504,3.5504,3.5504,3.5504,3.5504,3.5504,3.5504,3.5504,3.5504,3.5504,3.5504,3.5504,3.5504,3.5504,3.5504,3.5504,3.5504,3.5504,3.5504,3.5504,3.5504,3.5504,3.5504,3.5504,3.5504,3.5504,3.5504,3.5504,3.5504,3.5504,3.5504,3.5504,3.5504,3.5504,3.5504,3.5504,3.5504,3.5504,3.5504,3.5504,3.5504,3.5504,3.5504,3.5504,3.5504,3.534,3.4876,3.4833,3.4637,3.4188,3.4128,3.4038,3.3829,3.3215,3.2826,3.2826,3.2392,3.2123,3.2123,3.1929,3.172,3.1511,3.1511,3.1511,3.1511,3.1511,3.1511,3.1511,3.1511,3.1511,3.1511,3.1511,3.1511,2.0688,2.0703,2.1181,2.3116,2.4126,2.5681,2.9624,3.0043,3.0385,3.2976,3.2991,3.2736,3.338,3.3499,3.3724,3.4399,3.5055,3.5504,3.5504,3.5504,3.5504,3.5504,3.5504,3.5504,3.5504,3.5504,3.5504,3.5504,3.5504,3.5504,3.5504,3.5504,3.5504,3.5504,3.5504,3.5504,3.5504,3.5504,3.5504,3.5504,3.5504,3.5504,3.5504,3.5504,3.5504,3.5504,3.5504,3.5504,3.5504,3.5504,3.5504,3.5504,3.5504,3.5504,3.5504,3.5504,3.5504,3.5504,3.5504,3.5504,3.5504,3.5504,3.5504,3.5504,3.5504,3.5504,3.5504,3.5504,3.5504,3.5504,3.5504,3.5504,3.5504,3.5504,3.5504,3.5504,3.5504,3.5504,3.5504,3.5504,3.5504,3.5504,3.5504,3.5504,3.5504,3.5504,3.5504,3.5504,3.5504,3.5504,3.525,3.4593,3.3903,3.3499,3.3499,3.3499,3.3499,3.3499,3.2886,3.2198,3.154,3.1511,3.1511,3.1511,3.1511,3.1511,3.1511,3.1511,3.1511,3.1511,3.1511,3.1511,2.0124,2.1335,2.2877,2.346,2.5884,2.8667,3.0718,3.145,3.2273,3.4457,3.4367,3.3979,3.4174,3.4219,3.4279,3.4474,3.5055,3.5504,3.5504,3.5504,3.5504,3.5504,3.5504,3.5504,3.5504,3.5504,3.5504,3.5504,3.5504,3.5504,3.5504,3.5504,3.5504,3.5504,3.5504,3.5504,3.5504,3.5504,3.5504,3.5504,3.5504,3.5504,3.5504,3.5504,3.5504,3.5504,3.5504,3.5504,3.5504,3.5504,3.5504,3.5504,3.5504,3.5504,3.5504,3.5504,3.5504,3.5504,3.5504,3.5504,3.5504,3.5504,3.5504,3.5504,3.5504,3.5504,3.5504,3.5504,3.5504,3.5504,3.5504,3.5504,3.5504,3.5504,3.5504,3.5504,3.5504,3.5504,3.5504,3.5504,3.5504,3.5504,3.5504,3.5504,3.5504,3.5504,3.5504,3.5504,3.5504,3.5504,3.5429,3.522,3.4592,3.4219,3.4219,3.3769,3.3499,3.3499,3.3305,3.2901,3.2213,3.175,3.1511,3.1511,3.1511,3.1511,3.1511,3.1511,3.1735,3.2183,3.2183,3.2467,2.1066,2.2218,2.3571,2.4852,2.72,2.9804,3.2168,3.3215,3.4053,3.525,3.4966,3.4593,3.4863,3.4698,3.4593,3.4846,3.5235,3.5504,3.5504,3.5504,3.5504,3.5504,3.5504,3.5504,3.5504,3.5504,3.5504,3.5504,3.5504,3.5504,3.5504,3.5504,3.5504,3.5504,3.5504,3.5504,3.5504,3.5504,3.5504,3.5504,3.5504,3.5504,3.5504,3.5504,3.5504,3.5504,3.5504,3.5504,3.5504,3.5504,3.5504,3.5504,3.5504,3.5504,3.5504,3.5504,3.5504,3.5504,3.5504,3.5504,3.5504,3.5504,3.5504,3.5504,3.5504,3.5504,3.5504,3.5504,3.5504,3.5504,3.5504,3.5504,3.5504,3.5504,3.5504,3.5504,3.5504,3.5504,3.5504,3.5504,3.5504,3.5504,3.5504,3.5504,3.5504,3.5504,3.5504,3.5504,3.5504,3.5504,3.5504,3.5504,3.513,3.4891,3.4891,3.4517,3.4292,3.4292,3.4038,3.3709,3.3305,3.2662,3.2288,3.2288,3.2288,3.2288,3.2288,3.2288,3.2512,3.2901,3.2901,3.2913,2.2757,2.3167,2.3631,2.6806,2.8334,3.0013,3.3724,3.5055,3.5504,3.5504,3.5011,3.4788,3.5385,3.4996,3.4771,3.54,3.5504,3.5504,3.5504,3.5504,3.5504,3.5504,3.5504,3.5504,3.5504,3.5504,3.5504,3.5504,3.5504,3.5504,3.5504,3.5504,3.5504,3.5504,3.5504,3.5504,3.5504,3.5504,3.5504,3.5504,3.5504,3.5504,3.5504,3.5504,3.5504,3.5504,3.5504,3.5504,3.5504,3.5504,3.5504,3.5504,3.5504,3.5504,3.5504,3.5504,3.5504,3.5504,3.5504,3.5504,3.5504,3.5504,3.5504,3.5504,3.5504,3.5504,3.5504,3.5504,3.5504,3.5504,3.5504,3.5504,3.5504,3.5504,3.5504,3.5504,3.5504,3.5504,3.5504,3.5504,3.5504,3.5504,3.5504,3.5504,3.5504,3.5504,3.5504,3.5504,3.5504,3.5504,3.5504,3.5504,3.5504,3.5504,3.5504,3.5504,3.5504,3.5504,3.4921,3.4593,3.4593,3.3873,3.3499,3.3499,3.3499,3.3499,3.3499,3.3499,3.3529,3.3589,3.3482,3.3046,2.1814,2.3131,2.4747,2.7031,3.0028,3.2946,3.4846,3.54,3.5504,3.5504,3.5385,3.5325,3.5474,3.5385,3.5325,3.5489,3.5504,3.5504,3.5504,3.5504,3.5504,3.5504,3.5504,3.5504,3.5504,3.5504,3.5504,3.5504,3.5504,3.5504,3.5504,3.5504,3.5504,3.5504,3.5504,3.5504,3.5504,3.5504,3.5504,3.5504,3.5504,3.5504,3.5504,3.5504,3.5504,3.5504,3.5504,3.5504,3.5504,3.5504,3.5504,3.5504,3.5504,3.5504,3.5504,3.5504,3.5504,3.5504,3.5504,3.5504,3.5504,3.5504,3.5504,3.5504,3.5504,3.5504,3.5504,3.5504,3.5504,3.5504,3.5504,3.5504,3.5504,3.5504,3.5504,3.5504,3.5504,3.5504,3.5504,3.5504,3.5504,3.5504,3.5504,3.5504,3.5504,3.5504,3.5504,3.5504,3.5504,3.5504,3.5504,3.5504,3.5504,3.5504,3.5504,3.5504,3.5504,3.5504,3.537,3.528,3.528,3.4143,3.3499,3.3499,3.3499,3.3499,3.3499,3.3499,3.3769,3.4262,3.3533,3.3343,2.1994,2.3573,2.5382,2.8652,3.1495,3.3769,3.4786,3.5265,3.5504,3.5504,3.5504,3.5504,3.5504,3.5504,3.5504,3.5504,3.5504,3.5504,3.5504,3.5504,3.5504,3.5504,3.5504,3.5504,3.5504,3.5504,3.5504,3.5504,3.5504,3.5504,3.5504,3.5504,3.5504,3.5504,3.5504,3.5504,3.5504,3.5504,3.5504,3.5504,3.5504,3.5504,3.5504,3.5504,3.5504,3.5504,3.5504,3.5504,3.5504,3.5504,3.5504,3.5504,3.5504,3.5504,3.5504,3.5504,3.5504,3.5504,3.5504,3.5504,3.5504,3.5504,3.5504,3.5504,3.5504,3.5504,3.5504,3.5504,3.5504,3.5504,3.5504,3.5504,3.5504,3.5504,3.5504,3.5504,3.5504,3.5504,3.5504,3.5504,3.5504,3.5504,3.5504,3.5504,3.5504,3.5504,3.5504,3.5504,3.5504,3.5504,3.5504,3.5504,3.5504,3.5504,3.5504,3.5504,3.5504,3.5504,3.5504,3.5504,3.5504,3.4831,3.4457,3.4457,3.4457,3.4457,3.4457,3.4457,3.4384,3.4244,3.3767,3.3235,2.2009,2.3924,2.601,3.0404,3.2407,3.3529,3.4339,3.4921,3.5355,3.5489,3.5504,3.5504,3.5504,3.5504,3.5504,3.5504,3.5504,3.5504,3.5504,3.5504,3.5504,3.5504,3.5504,3.5504,3.5504,3.5504,3.5504,3.5504,3.5504,3.5444,3.5325,3.5325,3.5265,3.516,3.5265,3.5325,3.5325,3.5444,3.5504,3.5504,3.5504,3.5504,3.5504,3.5504,3.5504,3.5504,3.5504,3.5504,3.5504,3.5504,3.5504,3.5504,3.5504,3.5504,3.5504,3.5504,3.5504,3.5504,3.5504,3.5504,3.5504,3.5504,3.5504,3.5504,3.5504,3.5504,3.5504,3.5504,3.5504,3.5504,3.5504,3.5504,3.5504,3.5504,3.5504,3.5504,3.5504,3.5504,3.5504,3.5504,3.5504,3.5504,3.5504,3.5504,3.5504,3.5504,3.5504,3.5504,3.5504,3.5504,3.5504,3.5504,3.5504,3.5504,3.5504,3.5504,3.5504,3.5504,3.5504,3.5504,3.5504,3.5504,3.5504,3.5504,3.5504,3.5504,3.5504,3.5504,3.5067,3.4245,3.391,3.2925,1.9914,2.3206,2.7171,3.0629,3.2064,3.2961,3.4219,3.4578,3.4786,3.5385,3.5504,3.5504,3.5504,3.5504,3.5504,3.5504,3.5504,3.5504,3.5504,3.5504,3.5504,3.5504,3.5504,3.5504,3.5504,3.5504,3.5504,3.5504,3.5504,3.525,3.4668,3.4638,3.4352,3.3784,3.4322,3.4638,3.4638,3.5205,3.5504,3.5504,3.5504,3.5504,3.5504,3.5504,3.5504,3.5504,3.5504,3.5504,3.5504,3.5504,3.5504,3.5504,3.5504,3.5504,3.5504,3.5504,3.5504,3.5504,3.5504,3.5504,3.5504,3.5504,3.5504,3.5504,3.5504,3.5504,3.5504,3.5504,3.5504,3.5504,3.5504,3.5504,3.5504,3.5504,3.5504,3.5504,3.5504,3.5504,3.5504,3.5504,3.5504,3.5504,3.5504,3.5504,3.5504,3.5504,3.5504,3.5504,3.5504,3.5504,3.5504,3.5504,3.5504,3.5504,3.5504,3.5504,3.5504,3.5504,3.5504,3.5504,3.5504,3.5504,3.5504,3.5504,3.5504,3.5504,3.5504,3.5504,3.5424,3.5246,3.3581,3.2629,2.1096,2.3909,2.6826,3.0133,3.1436,3.2183,3.3155,3.3664,3.4113,3.4786,3.4936,3.504,3.5429,3.5504,3.5504,3.5504,3.5504,3.5504,3.5504,3.5504,3.5504,3.5504,3.5504,3.5355,3.4966,3.4936,3.4771,3.4412,3.4382,3.4247,3.3948,3.3918,3.3784,3.3499,3.3784,3.3918,3.3918,3.4218,3.4562,3.4936,3.5325,3.5504,3.5504,3.5504,3.5504,3.5504,3.5504,3.5504,3.5504,3.5504,3.5504,3.5504,3.5504,3.5504,3.5504,3.5504,3.5504,3.5504,3.5504,3.5504,3.5504,3.5504,3.5504,3.5504,3.5504,3.5504,3.5504,3.5504,3.5504,3.5504,3.5504,3.5504,3.5504,3.5504,3.5504,3.5504,3.5504,3.5504,3.5504,3.5504,3.5504,3.5504,3.5504,3.5504,3.5504,3.5504,3.5504,3.5504,3.5504,3.5504,3.5504,3.5504,3.5504,3.5504,3.5504,3.5504,3.5504,3.5504,3.5504,3.5504,3.5504,3.5504,3.5504,3.5504,3.5504,3.5504,3.5504,3.5504,3.5213,3.4643,3.3774,3.3101,2.171,2.3595,2.5128,2.8442,2.9894,3.0763,3.1779,3.2527,3.323,3.4053,3.4264,3.4414,3.4891,3.513,3.5295,3.5474,3.5355,3.531,3.5489,3.5355,3.525,3.525,3.51,3.4801,3.4309,3.4264,3.4054,3.3529,3.3499,3.3425,3.3245,3.3245,3.317,3.3006,3.3155,3.3245,3.3245,3.341,3.3829,3.4518,3.4996,3.534,3.5504,3.5504,3.5504,3.5504,3.5504,3.5504,3.5504,3.5504,3.5504,3.5504,3.5504,3.5504,3.5504,3.5504,3.5504,3.5504,3.5504,3.5504,3.5504,3.5504,3.5504,3.5504,3.5504,3.5504,3.5504,3.5504,3.5504,3.5504,3.5504,3.5504,3.5504,3.5504,3.5504,3.5504,3.5504,3.5504,3.5504,3.5504,3.5504,3.5504,3.5504,3.5504,3.5504,3.5504,3.5504,3.5504,3.5504,3.5504,3.5504,3.5504,3.5504,3.5504,3.5504,3.5504,3.5504,3.5504,3.5504,3.5504,3.5504,3.5504,3.5504,3.5504,3.5504,3.5504,3.5504,3.5504,3.51,3.4394,3.4129,3.3636,1.9944,2.0897,2.1734,2.5023,2.6826,2.8304,3.0178,3.1107,3.1974,3.3275,3.3544,3.3559,3.3589,3.4098,3.4773,3.54,3.4966,3.4756,3.5415,3.4936,3.4563,3.4563,3.3978,3.3589,3.3544,3.3544,3.3529,3.3499,3.3499,3.3215,3.2602,3.2557,3.2243,3.163,3.2213,3.2557,3.2557,3.3185,3.3829,3.4503,3.4548,3.4876,3.5504,3.5504,3.5504,3.5504,3.5504,3.5504,3.5504,3.5504,3.5504,3.5504,3.5504,3.5504,3.5504,3.5504,3.5504,3.5504,3.5504,3.5504,3.5504,3.5504,3.5504,3.5504,3.5504,3.5504,3.5504,3.5504,3.5504,3.5504,3.5504,3.5504,3.5504,3.5504,3.5504,3.5504,3.5504,3.5504,3.5504,3.5504,3.5504,3.5504,3.5504,3.5504,3.5504,3.5504,3.5504,3.5504,3.5504,3.5504,3.5504,3.5504,3.5504,3.5504,3.5504,3.5504,3.5504,3.5504,3.5504,3.5504,3.5504,3.5504,3.5504,3.5504,3.5504,3.5504,3.5504,3.5504,3.5472,3.5392,3.4428,3.3993,1.8986,2.0363,2.1829,2.3819,2.5644,2.7255,2.8393,2.9789,3.1135,3.2019,3.2572,3.2991,3.3425,3.3694,3.3933,3.4173,3.4008,3.3933,3.4173,3.4008,3.3844,3.3844,3.3649,3.332,3.2901,3.2871,3.2691,3.2243,3.2213,3.2108,3.1869,3.1854,3.175,3.1511,3.1735,3.1854,3.1854,3.2512,3.32,3.3844,3.4309,3.4846,3.5504,3.5504,3.5504,3.5504,3.5504,3.5504,3.5504,3.5504,3.5504,3.5504,3.5504,3.5504,3.5504,3.5504,3.5504,3.5504,3.5504,3.5504,3.5504,3.5504,3.5504,3.5504,3.5504,3.5504,3.5504,3.5504,3.5504,3.5504,3.5504,3.5504,3.5609,3.6028,3.6447,3.6731,3.6731,3.6088,3.5504,3.5504,3.5504,3.5504,3.5504,3.5504,3.5504,3.5504,3.5504,3.5504,3.5504,3.5504,3.5504,3.5504,3.5504,3.5504,3.5504,3.5504,3.5504,3.5504,3.5504,3.5504,3.5504,3.5504,3.5504,3.5504,3.5504,3.5504,3.5504,3.5504,3.5504,3.5504,3.5133,3.4953,1.7908,1.9163,2.0782,2.2532,2.3789,2.5076,2.6866,2.8248,2.952,3.0642,3.139,3.2048,3.2721,3.2841,3.2976,3.3425,3.3305,3.3245,3.3469,3.3305,3.3155,3.3155,3.2976,3.2662,3.2198,3.2153,3.1974,3.154,3.1511,3.1511,3.1511,3.1511,3.1511,3.1511,3.1511,3.1511,3.1511,3.1929,3.2512,3.317,3.3829,3.4502,3.516,3.54,3.5504,3.5504,3.5504,3.5504,3.5504,3.5504,3.5504,3.5504,3.5504,3.5504,3.5504,3.5504,3.5504,3.5504,3.5504,3.5504,3.5504,3.5504,3.5504,3.5504,3.5504,3.5504,3.5504,3.5504,3.5669,3.5833,3.5833,3.5983,3.6252,3.6686,3.7105,3.7404,3.7404,3.6746,3.6148,3.6148,3.6148,3.6148,3.6148,3.6148,3.6148,3.6148,3.6148,3.6148,3.6148,3.6148,3.6148,3.6148,3.6148,3.6148,3.6148,3.6148,3.6058,3.5848,3.5833,3.5729,3.5519,3.5504,3.5504,3.5504,3.5504,3.5504,3.5504,3.5504,3.5504,3.5504,3.5504,3.5504,0.0,0.0,0.0,2.0946,2.1126,2.1695,2.554,2.6452,2.7066,2.9112,2.9983,3.0642,3.1316,3.1466,3.1899,3.32,3.2886,3.2706,3.335,3.2886,3.2452,3.2452,3.1899,3.1511,3.1511,3.1511,3.1511,3.1511,3.1511,3.1511,3.1511,3.1511,3.1511,3.1511,3.1511,3.1511,3.1511,3.1511,3.1839,3.2497,3.3185,3.3844,3.4533,3.519,3.5504,3.5504,3.5504,3.5504,3.5504,3.5504,3.5504,3.5504,3.5504,3.5504,3.5504,3.5504,3.5504,3.5504,3.5504,3.5504,3.5504,3.5504,3.5504,3.5504,3.5504,3.5504,3.5504,3.5534,3.5998,3.6492,3.6507,3.6971,3.7434,3.7434,3.7449,3.7464,3.7464,3.7464,3.7464,3.7419,3.7404,3.7404,3.7404,3.7404,3.7404,3.7404,3.7404,3.7404,3.7404,3.7404,3.7404,3.7404,3.7404,3.7404,3.7404,3.7404,3.715,3.6552,3.6507,3.6222,3.5594,3.5549,3.5534,3.5534,3.5519,3.5504,3.5504,3.5504,3.5504,3.5504,3.5504,3.5504,1.7413,0.0,0.0,0.0,0.0,0.0,2.1979,2.343,2.5001,2.7006,2.7959,2.8768,2.9909,3.0492,3.0911,3.127,3.157,3.1839,3.2019,3.1884,3.178,3.178,3.1615,3.1511,3.1511,3.1511,3.1511,3.1511,3.1511,3.1511,3.1511,3.1511,3.1511,3.1511,3.1511,3.1511,3.1511,3.1511,3.1839,3.2497,3.3185,3.3844,3.4533,3.519,3.5504,3.5504,3.5504,3.5504,3.5504,3.5504,3.5504,3.5504,3.5504,3.5504,3.5504,3.5504,3.5504,3.5504,3.5504,3.5504,3.5504,3.5504,3.5504,3.5504,3.5504,3.5504,3.5609,3.6088,3.6357,3.6596,3.7045,3.7629,3.8123,3.8123,3.8497,3.8871,3.8871,3.8871,3.8571,3.7599,3.7404,3.7404,3.7404,3.7404,3.7404,3.7404,3.7404,3.7404,3.7404,3.7404,3.7404,3.7404,3.7404,3.7404,3.7404,3.7404,3.7345,3.7165,3.715,3.7075,3.6881,3.6447,3.6207,3.6207,3.5744,3.5504,3.5504,3.5504,3.5504,3.5504,3.5504,3.5504,1.7848,1.8192,1.8747,1.8909,0.0,0.0,2.1126,2.1979,2.3041,2.53,2.6303,2.718,2.8528,2.9265,2.9714,2.9714,3.0283,3.0883,3.1436,3.1511,3.1511,3.1511,3.1511,3.1511,3.1511,3.1511,3.1511,3.1511,3.1511,3.1511,3.1511,3.1511,3.1511,3.1511,3.1511,3.1511,3.1511,3.1511,3.1705,3.2079,3.2766,3.3425,3.4098,3.4771,3.5235,3.5504,3.5504,3.5504,3.5504,3.5504,3.5504,3.5504,3.5504,3.5504,3.5504,3.5504,3.5504,3.5504,3.5504,3.5504,3.5504,3.5504,3.5504,3.5504,3.5504,3.5699,3.5998,3.6372,3.6866,3.7434,3.8078,3.8527,3.8826,3.8826,3.9125,3.9388,3.9388,3.9388,3.9185,3.8407,3.8242,3.8242,3.8242,3.8242,3.8242,3.8242,3.8242,3.8242,3.8242,3.8242,3.8242,3.8242,3.8242,3.8242,3.8242,3.8242,3.8123,3.7838,3.7823,3.7689,3.7419,3.706,3.6866,3.6866,3.6237,3.5774,3.5504,3.5504,3.5504,3.5504,3.5504,3.5504,1.8446,1.8521,1.9196,2.0318,1.9298,0.0,2.1625,2.144,2.1376,2.3782,2.4739,2.557,2.6911,2.7694,2.8158,2.8158,2.8831,2.9819,3.1107,3.1286,3.1286,3.1286,3.1346,3.1391,3.1391,3.1466,3.1511,3.1511,3.1511,3.1511,3.1511,3.1511,3.1511,3.1511,3.1511,3.1511,3.1511,3.1511,3.1511,3.1511,3.2168,3.2856,3.3514,3.4173,3.4861,3.5504,3.5504,3.5504,3.5504,3.5504,3.5504,3.5504,3.5504,3.5504,3.5504,3.5504,3.5504,3.5504,3.5504,3.5504,3.5504,3.5504,3.5504,3.5519,3.5594,3.6028,3.6507,3.6656,3.7569,3.8646,3.926,3.9388,3.9388,3.9388,3.9388,3.9388,3.9388,3.9388,3.9388,3.9388,3.9388,3.9388,3.9388,3.9388,3.9388,3.9388,3.9388,3.9388,3.9388,3.9388,3.9388,3.9388,3.9388,3.9388,3.9388,3.9388,3.9155,3.8542,3.8497,3.8242,3.7659,3.7554,3.7524,3.7524,3.6836,3.6207,3.5609,3.5549,3.5504,3.5504,3.5504,3.5504,2.0842,2.0632,2.024,1.9959,2.0004,0.0,1.9585,2.0124,2.1006,2.2054,2.2368,2.2847,2.4133,2.4941,2.5382,2.5382,2.6841,2.8453,2.9774,2.9968,2.9968,2.9968,3.0402,3.0717,3.0717,3.1182,3.1511,3.1511,3.1511,3.1511,3.1511,3.1511,3.1511,3.1511,3.1511,3.1511,3.1511,3.1511,3.1511,3.1511,3.2168,3.2856,3.3514,3.4173,3.4861,3.5504,3.5504,3.5504,3.5504,3.5504,3.5504,3.5504,3.5504,3.5504,3.5504,3.5504,3.5504,3.5504,3.5504,3.5504,3.5504,3.5504,3.5504,3.5609,3.6133,3.6387,3.6701,3.7734,3.8601,3.9245,3.9394,3.9388,3.9388,3.9388,3.9388,3.9388,3.9388,3.9388,3.9388,3.9388,3.9388,3.9388,3.9388,3.9388,3.9388,3.9388,3.9388,3.9388,3.9388,3.9388,3.9388,3.9388,3.9388,3.9388,3.9388,3.9388,3.9328,3.923,3.9215,3.917,3.9035,3.8497,3.8197,3.8197,3.7075,3.6432,3.6297,3.5759,3.5504,3.5504,3.5504,3.5504,2.1784,2.1455,2.1201,2.1205,2.085,0.0,0.0,2.0125,2.037,2.1484,2.1156,2.1186,2.2853,2.3146,2.3349,2.4014,2.5241,2.6333,2.7006,2.8547,2.9606,2.9606,2.9864,3.0043,3.0043,3.0357,3.0687,3.0972,3.0987,3.1137,3.1481,3.1511,3.1511,3.1511,3.1511,3.1511,3.1511,3.1511,3.1511,3.1511,3.1839,3.2542,3.3499,3.3844,3.4547,3.5504,3.5504,3.5504,3.5504,3.5504,3.5504,3.5504,3.5504,3.5504,3.5504,3.5504,3.5504,3.5504,3.5504,3.5504,3.5504,3.5504,3.5504,3.5624,3.6297,3.6926,3.7644,3.8616,3.9155,3.9388,3.9388,3.9388,3.9388,3.9388,3.9388,3.9388,3.9388,3.9388,3.9388,3.9388,3.9388,3.9388,3.9388,3.9388,3.9388,3.9388,3.9388,3.9388,3.9388,3.9388,3.9388,3.9388,3.9388,3.9388,3.9388,3.9388,3.9388,3.9388,3.9388,3.9388,3.9388,3.9095,3.8736,3.8407,3.7764,3.727,3.6941,3.6611,3.6133,3.5504,3.5504,3.5504,2.2772,2.2547,2.2637,2.2688,2.2005,2.1308,0.0,0.0,0.0,2.1098,2.0456,2.0202,2.1819,2.1684,2.165,2.2682,2.3513,2.4036,2.4036,2.6587,2.8427,2.8427,2.8798,2.9037,2.9037,2.9142,2.9532,3.0268,3.0088,3.0342,3.1256,3.1316,3.1376,3.1511,3.1511,3.1511,3.1511,3.1511,3.1511,3.1511,3.1511,3.2183,3.3499,3.3499,3.4233,3.5504,3.5504,3.5504,3.5504,3.5504,3.5504,3.5504,3.5504,3.5504,3.5504,3.5504,3.5504,3.5504,3.5504,3.5504,3.5504,3.5504,3.5669,3.5998,3.6656,3.7659,3.8706,3.926,3.9388,3.9388,3.9388,3.9388,3.9388,3.9388,3.9388,3.9388,3.9388,3.9388,3.9388,3.9388,3.9388,3.9388,3.9388,3.9388,3.9388,3.9388,3.9388,3.9388,3.9388,3.9388,3.9388,3.9388,3.9388,3.9388,3.9388,3.9388,3.9388,3.9388,3.9388,3.9388,3.9388,3.9388,3.9155,3.8601,3.8467,3.8123,3.7599,3.7464,3.6821,3.5684,3.5684,3.5624,2.536,2.5585,2.5518,2.3257,2.3848,2.4109,2.0696,0.0,2.1158,2.0127,0.0,1.9768,2.0007,0.0,0.0,2.0127,2.1201,2.2024,2.2024,2.3325,2.4283,2.4283,2.5854,2.6956,2.6956,2.748,2.8349,2.9621,2.8603,2.8723,3.0522,3.0612,3.0883,3.1481,3.1511,3.1511,3.1511,3.1511,3.1511,3.1511,3.1511,3.2183,3.3499,3.3499,3.4233,3.5504,3.5504,3.5504,3.5504,3.5504,3.5504,3.5504,3.5504,3.5504,3.5504,3.5504,3.5504,3.5504,3.5504,3.5504,3.5504,3.5504,3.6267,3.7315,3.7973,3.8706,3.932,3.9394,3.9388,3.9388,3.9388,3.9388,3.9388,3.9388,3.9388,3.9388,3.9388,3.9388,3.9388,3.9388,3.9388,3.9388,3.9388,3.9388,3.9388,3.9388,3.9388,3.9388,3.9388,3.9388,3.9388,3.9388,3.9388,3.9388,3.9388,3.9388,3.9388,3.9388,3.9388,3.9388,3.9388,3.9388,3.9343,3.9305,3.8691,3.8347,3.8287,3.7689,3.7045,3.6372,3.6372,3.6058,2.5794,2.6093,2.6138,2.4268,2.4316,2.4149,2.1473,2.0872,2.0771,2.0359,0.0,0.0,0.0,0.0,0.0,0.0,2.0752,2.0976,2.0587,2.1335,2.2338,2.3475,2.4343,2.5016,2.5397,2.5704,2.6422,2.7754,2.7345,2.7735,2.931,3.0103,3.0642,3.0898,3.1301,3.1511,3.1511,3.1511,3.1511,3.1511,3.1511,3.2183,3.3499,3.3499,3.4233,3.5504,3.5504,3.5504,3.5504,3.5504,3.5504,3.5504,3.5504,3.5504,3.5504,3.5504,3.5504,3.5504,3.5504,3.5504,3.5564,3.5953,3.6686,3.7539,3.8197,3.8871,3.9388,3.9388,3.9388,3.9388,3.9388,3.9388,3.9388,3.9388,3.9388,3.9388,3.9388,3.9388,3.9388,3.9388,3.9388,3.9388,3.9388,3.9388,3.9388,3.9388,3.9388,3.9388,3.9388,3.9388,3.9388,3.9388,3.9388,3.9388,3.9388,3.9388,3.9388,3.9388,3.9388,3.9388,3.9388,3.9388,3.9388,3.9388,3.9125,3.899,3.899,3.8706,3.8242,3.7584,3.7195,3.6866,2.6647,2.6916,2.6916,2.4829,2.4344,2.3808,2.1639,2.1046,2.0904,2.0734,2.0363,0.0,0.0,0.0,0.0,0.0,0.0,2.0624,1.9962,2.0143,2.0828,2.2104,2.2742,2.334,2.4007,2.3902,2.4425,2.5944,2.5719,2.6333,2.8218,2.919,2.9953,3.0492,3.0957,3.1316,3.1511,3.1511,3.1511,3.1511,3.1511,3.2183,3.3499,3.3499,3.4233,3.5504,3.5504,3.5504,3.5504,3.5504,3.5504,3.5504,3.5504,3.5504,3.5504,3.5504,3.5504,3.5504,3.5504,3.5624,3.5878,3.6522,3.7165,3.7808,3.8467,3.902,3.9388,3.9388,3.9388,3.9388,3.9388,3.9388,3.9388,3.9388,3.9388,3.9388,3.9388,3.9388,3.9388,3.9388,3.9388,3.9388,3.9388,3.9388,3.9388,3.9388,3.9388,3.9388,3.9388,3.9388,3.9388,3.9388,3.9388,3.9388,3.9388,3.9388,3.9388,3.9388,3.9388,3.9388,3.9388,3.9388,3.9388,3.9388,3.9388,3.9388,3.9388,3.9388,3.9155,3.8661,3.7988,3.7584,2.8846,2.8981,2.8573,2.4612,2.4118,2.3744,2.0501,2.1255,2.2274,2.0976,2.2173,0.0,0.0,0.0,0.0,0.0,0.0,0.0,0.0,1.9803,1.9299,1.8903,2.0572,2.2009,2.2703,2.2179,2.2592,2.453,2.352,2.423,2.745,2.766,2.8558,3.0447,3.0522,3.0823,3.1496,3.1511,3.1511,3.1511,3.1511,3.2183,3.3499,3.3499,3.4233,3.5504,3.5504,3.5504,3.5504,3.5504,3.5504,3.5504,3.5504,3.5504,3.5504,3.5504,3.5504,3.5504,3.5504,3.5923,3.6552,3.718,3.7823,3.8482,3.917,3.9394,3.9388,3.9388,3.9388,3.9388,3.9388,3.9388,3.9388,3.9388,3.9388,3.9388,3.9388,3.9388,3.9388,3.9388,3.9388,3.9388,3.9388,3.9388,3.9388,3.9388,3.9388,3.9388,3.9388,3.9388,3.9388,3.9388,3.9388,3.9388,3.9388,3.9388,3.9388,3.9388,3.9388,3.9388,3.9388,3.9388,3.9388,3.9388,3.9388,3.9388,3.9388,3.9388,3.9373,3.9328,3.8676,3.8018,2.937,2.9714,2.9445,2.6348,2.542,2.4515,2.1665,2.1894,2.2328,2.0991,2.2248,2.3318,0.0,0.0,0.0,0.0,0.0,0.0,0.0,0.0,1.8023,1.8032,1.942,2.0471,2.0696,2.0902,2.15,2.2607,2.2682,2.3535,2.551,2.6881,2.8109,2.9205,3.0058,3.0808,3.1496,3.1511,3.1511,3.1511,3.1511,3.2183,3.3499,3.3499,3.4233,3.5504,3.5504,3.5504,3.5504,3.5504,3.5504,3.5504,3.5504,3.5504,3.5504,3.5504,3.5504,3.5504,3.5504,3.5938,3.6596,3.721,3.7853,3.8527,3.9215,3.9388,3.9388,3.9388,3.9388,3.9388,3.9388,3.9388,3.9388,3.9388,3.9388,3.9388,3.9388,3.9768,4.0068,4.0068,4.0427,4.0711,4.0711,4.0711,4.0427,3.9508,3.9388,3.9388,3.9388,3.9388,3.9388,3.9388,3.9388,3.9388,3.9388,3.9388,3.9388,3.9388,3.9388,3.9388,3.9388,3.9388,3.9388,3.9388,3.9388,3.9388,3.9388,3.9388,3.9388,3.9373,3.9185,3.8945,3.0043,3.0193,2.9924,2.7555,2.6641,2.5615,2.2966,2.3251,2.3721,2.2347,2.3259,2.4228,0.0,0.0,0.0,0.0,0.0,0.0,0.0,1.8395,1.7938,1.8115,1.8994,1.9615,1.9696,1.9894,2.04,2.128,2.1613,2.2505,2.4163,2.5929,2.7395,2.8562,2.9624,3.0612,3.1496,3.1511,3.1511,3.1511,3.1511,3.2183,3.3499,3.3499,3.4233,3.5504,3.5504,3.5504,3.5504,3.5504,3.5504,3.5504,3.5504,3.5504,3.5504,3.5504,3.5504,3.5534,3.5774,3.6282,3.6911,3.7554,3.8212,3.8841,3.929,3.9388,3.9388,3.9388,3.9388,3.9388,3.9388,3.9388,3.9448,3.9709,3.9768,3.9828,4.0068,4.0442,4.0756,4.0756,4.1085,4.1422,4.1422,4.1422,4.11,4.0247,4.0113,4.0113,4.0113,4.0113,4.0113,4.0113,4.0113,4.0023,3.9783,3.9768,3.9664,3.9439,3.9388,3.9388,3.9388,3.9388,3.9388,3.9388,3.9388,3.9388,3.9388,3.9388,3.9388,3.9388,3.9388,3.9388]}]]